[[{"header":{"parameterUnit":"m.s-1","parameterCategory":1,"la1":31.0,"la2":29.5877,"lo1":-88.7671,"lo2":-86.6584,"dy":0.0162,"dx":0.0185,"nx":115,"ny":88,"refTime":"2025-04-16T00:00:00:Z","depth":0,"parameterNumber":2,"parameterNumberName":"U-component_of_WINDS"},"data":[0.0,0.0,0.0,0.0,0.0,0.0,0.0,0.0,0.0,0.0,0.0,0.0,0.0,0.0,0.0,0.0,0.0,0.0,0.0,0.0,0.0,0.0,0.0,0.0,0.0,0.0,0.0,0.0,0.0,0.0,0.0,0.0,0.0,0.0,0.0,0.0,0.0,0.0,0.0,0.0,0.0,0.0,0.0,0.0,0.0,0.0,0.0,0.0,0.0,0.0,0.0,0.0,0.0,0.0,0.0,0.0,0.0,0.0,0.0,0.0,0.0,0.0,0.0,0.0,0.0,0.0,0.0,0.0,0.0,0.0,0.0,0.0,0.0,0.0,0.0,0.0,0.0,0.0,0.0,0.0,0.0,0.0,0.0,0.0,0.0,0.0,0.0,0.0,0.0,0.0,0.0,0.0,0.0,0.0,0.0,0.0,0.0,0.0,0.0,0.0,0.0,0.0,0.0,0.0,0.0,0.0,0.0,0.0,0.0,0.0,0.0,0.0,0.0,0.0,0.0,0.0,0.0,0.0,0.0,0.0,0.0,0.0,0.0,0.0,0.0,0.0,0.0,0.0,0.0,0.0,0.0,0.0,0.0,0.0,0.0,0.0,0.0,0.0,0.0,0.0,0.0,0.0,0.0,0.0,0.0,0.0,0.0,0.0,0.0,0.0,0.0,0.0,0.0,0.0,0.0,0.0,0.0,0.0,0.0,0.0,0.0,0.0,0.0,0.0,0.0,0.0,0.0,0.0,0.0,0.0,0.0,0.0,0.0,0.0,0.0,0.0,0.0,0.0,0.0,0.0,0.0,0.0,0.0,0.0,0.0,0.0,0.0,0.0,0.0,0.0,0.0,0.0,0.0,0.0,0.0,0.0,0.0,0.0,0.0,0.0,0.0,0.0,0.0,0.0,0.0,0.0,0.0,0.0,0.0,0.0,0.0,0.0,0.0,0.0,0.0,0.0,0.0,0.0,0.0,0.0,0.0,0.0,0.0,0.0,0.0,0.0,0.0,0.0,0.0,0.0,0.0,0.0,0.0,0.0,0.0,0.0,0.0,0.0,0.0,0.0,0.0,0.0,0.0,0.0,0.0,0.0,0.0,0.0,0.0,0.0,0.0,0.0,0.0,0.0,0.0,0.0,0.0,0.0,0.0,0.0,0.0,0.0,0.0,0.0,0.0,0.0,0.0,0.0,0.0,0.0,0.0,0.0,0.0,0.0,0.0,0.0,0.0,0.0,0.0,0.0,0.0,0.0,0.0,0.0,0.0,0.0,0.0,0.0,0.0,0.0,0.0,0.0,0.0,0.0,0.0,0.0,0.0,0.0,0.0,0.0,0.0,0.0,0.0,0.0,0.0,0.0,0.0,0.0,0.0,0.0,0.0,0.0,0.0,0.0,0.0,0.0,0.0,0.0,0.0,0.0,0.0,0.0,0.0,0.0,0.0,0.0,0.0,0.0,0.0,0.0,0.0,0.0,0.0,0.0,0.0,0.0,0.0,0.0,0.0,0.0,0.0,0.0,0.0,0.0,0.0,0.0,0.0,0.0,0.0,0.0,0.0,0.0,0.0,0.0,0.0,0.0,0.0,0.0,0.0,0.0,0.0,0.0,0.0,0.0,0.0,0.0,0.0,0.0,0.0,0.0,0.0,0.0,0.0,0.0,0.0,0.0,0.0,0.0,0.0,0.0,0.0,0.0,0.0,0.0,0.0,0.0,0.0,0.0,0.0,0.0,0.0,0.0,0.0,0.0,0.0,0.0,0.0,0.0,0.0,0.0,0.0,0.0,0.0,0.0,0.0,0.0,0.0,0.0,0.0,0.0,0.0,0.0,0.0,0.0,0.0,0.0,0.0,0.0,0.0,0.0,0.0,0.0,0.0,0.0,0.0,0.0,0.0,0.0,0.0,0.0,0.0,0.0,0.0,0.0,0.0,0.0,0.0,0.0,0.0,0.0,0.0,0.0,0.0,0.0,0.0,0.0,0.0,0.0,0.0,0.0,0.0,0.0,0.0,0.0,0.0,0.0,0.0,0.0,0.0,0.0,0.0,0.0,0.0,0.0,0.0,0.0,0.0,0.0,0.0,0.0,0.0,0.0,0.0,0.0,0.0,0.0,0.0,0.0,0.0,0.0,0.0,0.0,0.0,0.0,0.0,0.0,0.0,0.0,0.0,0.0,0.0,0.0,0.0,0.0,0.0,0.0,0.0,0.0,0.0,0.0,0.0,0.0,0.0,0.0,0.0,0.0,0.0,0.0,0.0,0.0,0.0,0.0,0.0,0.0,0.0,0.0,0.0,0.0,0.0,0.0,0.0,0.0,0.0,0.0,0.0,0.0,0.0,0.0,0.0,0.0,0.0,0.0,0.0,0.0,0.0,0.0,0.0,0.0,0.0,0.0,0.0,0.0,0.0,0.0,0.0,0.0,0.0,0.0,0.0,0.0,0.0,0.0,0.0,0.0,0.0,0.0,0.0,0.0,0.0,0.0,0.0,0.0,0.0,0.0,0.0,0.0,0.0,0.0,0.0,0.0,0.0,0.0,0.0,0.0,0.0,0.0,0.0,0.0,0.0,0.0,0.0,0.0,0.0,0.0,0.0,0.0,0.0,0.0,0.0,0.0,0.0,0.0,0.0,0.0,0.0,0.0,0.0,0.0,0.0,0.0,0.0,0.0,0.0,0.0,0.0,0.0,0.0,0.0,0.0,0.0,0.0,0.0,0.0,0.0,0.0,0.0,0.0,0.0,0.0,0.0,0.0,0.0,0.0,0.0,0.0,0.0,0.0,0.0,0.0,0.0,0.0,0.0,0.0,0.0,0.0,0.0,0.0,0.0,0.0,0.0,0.0,0.0,0.0,0.0,0.0,0.0,0.0,0.0,0.0,0.0,0.0,0.0,0.0,0.0,0.0,0.0,0.0,0.0,0.0,0.0,0.0,0.0,0.0,0.0,0.0,0.0,0.0,0.0,0.0,0.0,0.0,0.0,0.0,0.0,0.0,0.0,0.0,0.0,0.0,0.0,0.0,0.0,0.0,0.0,0.0,0.0,0.0,0.0,0.0,0.0,0.0,0.0,0.0,0.0,0.0,0.0,0.0,0.0,0.0,0.0,0.0,0.0,0.0,0.0,0.0,0.0,0.0,0.0,0.0,0.0,0.0,0.0,0.0,0.0,0.0,0.0,0.0,0.0,0.0,0.0,0.0,0.0,0.0,0.0,0.0,0.0,0.0,0.0,0.0,0.0,0.0,0.0,0.0,0.0,0.0,0.0,0.0,0.0,0.0,0.0,0.0,0.0,0.0,0.0,0.0,0.0,0.0,0.0,0.0,0.0,0.0,0.0,0.0,0.0,0.0,0.0,0.0,0.0,0.0,0.0,0.0,0.0,0.0,0.0,0.0,0.0,0.0,0.0,0.0,0.0,0.0,0.0,0.0,0.0,0.0,0.0,0.0,0.0,0.0,0.0,0.0,0.0,0.0,0.0,0.0,0.0,0.0,0.0,0.0,0.0,0.0,0.0,0.0,0.0,0.0,0.0,0.0,0.0,0.0,0.0,0.0,0.0,0.0,0.0,0.0,0.0,0.0,0.0,0.0,0.0,0.0,0.0,0.0,0.0,0.0,0.0,0.0,0.0,0.0,0.0,0.0,0.0,0.0,0.0,0.0,0.0,0.0,0.0,0.0,0.0,0.0,0.0,0.0,0.0,0.0,0.0,0.0,0.0,0.0,0.0,0.0,0.0,0.0,0.0,0.0,0.0,0.0,0.0,0.0,0.0,0.0,0.0,0.0,0.0,0.0,0.0,0.0,0.0,0.0,0.0,0.0,0.0,0.0,0.0,0.0,0.0,0.0,0.0,0.0,0.0,0.0,0.0,0.0,0.0,0.0,0.0,0.0,0.0,0.0,0.0,0.0,0.0,0.0,0.0,0.0,0.0,0.0,0.0,0.0,0.0,0.0,0.0,0.0,0.0,0.0,0.0,0.0,0.0,0.0,0.0,0.0,0.0,0.0,0.0,0.0,0.0,0.0,0.0,0.0,0.0,0.0,0.0,0.0,0.0,0.0,0.0,0.0,0.0,0.0,0.0,0.0,0.0,0.0,0.0,0.0,0.0,0.0,0.0,0.0,0.0,0.0,0.0,0.0,0.0,0.0,0.0,0.0,0.0,0.0,0.0,0.0,0.0,0.0,0.0,0.0,0.0,0.0,0.0,0.0,0.0,0.0,0.0,0.0,0.0,0.0,0.0,0.0,0.0,0.0,0.0,0.0,0.0,0.0,0.0,0.0,0.0,-2.1562,0.0,0.0,0.0,0.0,0.0,0.0,0.0,0.0,0.0,0.0,0.0,0.0,0.0,0.0,0.0,0.0,0.0,0.0,0.0,0.0,0.0,0.0,0.0,0.0,0.0,0.0,0.0,0.0,0.0,0.0,0.0,0.0,0.0,0.0,0.0,0.0,0.0,0.0,0.0,0.0,0.0,0.0,0.0,0.0,0.0,0.0,0.0,0.0,0.0,0.0,0.0,0.0,0.0,0.0,0.0,0.0,0.0,0.0,0.0,0.0,0.0,0.0,0.0,0.0,0.0,0.0,0.0,0.0,0.0,0.0,0.0,0.0,0.0,0.0,0.0,0.0,0.0,0.0,0.0,0.0,0.0,0.0,0.0,0.0,0.0,0.0,0.0,0.0,0.0,0.0,0.0,0.0,0.0,0.0,0.0,0.0,0.0,0.0,0.0,0.0,0.0,0.0,0.0,0.0,0.0,0.0,0.0,0.0,0.0,0.0,-2.2694,-2.2694,-2.2694,-2.253,-2.2173,0.0,0.0,0.0,0.0,0.0,0.0,0.0,0.0,0.0,0.0,0.0,0.0,0.0,0.0,0.0,0.0,0.0,0.0,0.0,0.0,0.0,0.0,0.0,0.0,0.0,0.0,0.0,0.0,0.0,0.0,0.0,0.0,0.0,0.0,0.0,0.0,0.0,0.0,0.0,0.0,0.0,0.0,0.0,0.0,0.0,0.0,0.0,0.0,0.0,0.0,0.0,0.0,0.0,0.0,0.0,0.0,0.0,0.0,0.0,0.0,0.0,0.0,0.0,0.0,0.0,0.0,0.0,0.0,0.0,0.0,0.0,0.0,0.0,0.0,0.0,0.0,0.0,0.0,0.0,0.0,0.0,0.0,0.0,0.0,0.0,0.0,0.0,0.0,0.0,0.0,0.0,0.0,0.0,0.0,0.0,0.0,0.0,0.0,0.0,0.0,0.0,0.0,0.0,0.0,0.0,0.0,0.0,0.0,0.0,0.0,0.0,0.0,-2.2986,-2.2903,-2.2903,0.0,0.0,0.0,0.0,0.0,0.0,0.0,0.0,0.0,0.0,0.0,0.0,0.0,0.0,0.0,0.0,0.0,0.0,0.0,0.0,0.0,0.0,0.0,0.0,0.0,0.0,0.0,0.0,0.0,0.0,0.0,0.0,0.0,0.0,0.0,0.0,0.0,0.0,0.0,0.0,0.0,0.0,0.0,0.0,0.0,0.0,0.0,0.0,0.0,0.0,0.0,0.0,0.0,0.0,0.0,0.0,0.0,0.0,0.0,0.0,0.0,0.0,0.0,0.0,0.0,0.0,0.0,0.0,0.0,0.0,0.0,0.0,0.0,0.0,0.0,0.0,0.0,0.0,0.0,0.0,0.0,0.0,0.0,0.0,0.0,0.0,0.0,0.0,0.0,0.0,0.0,0.0,0.0,0.0,0.0,0.0,0.0,0.0,0.0,0.0,0.0,0.0,0.0,0.0,0.0,0.0,0.0,0.0,0.0,0.0,-2.3289,-2.4628,-2.3939,0.0,-2.352,0.0,0.0,0.0,0.0,0.0,0.0,0.0,0.0,0.0,0.0,0.0,0.0,0.0,0.0,0.0,0.0,0.0,0.0,0.0,0.0,0.0,0.0,0.0,0.0,0.0,0.0,0.0,0.0,0.0,0.0,0.0,0.0,0.0,0.0,0.0,0.0,0.0,0.0,0.0,0.0,0.0,0.0,0.0,0.0,0.0,0.0,0.0,0.0,0.0,0.0,0.0,0.0,0.0,0.0,0.0,0.0,0.0,0.0,0.0,0.0,0.0,0.0,0.0,0.0,0.0,0.0,0.0,0.0,0.0,0.0,0.0,0.0,0.0,0.0,0.0,0.0,0.0,0.0,0.0,0.0,0.0,0.0,0.0,0.0,0.0,0.0,0.0,0.0,0.0,0.0,0.0,0.0,0.0,0.0,0.0,0.0,0.0,0.0,0.0,0.0,0.0,0.0,0.0,0.0,0.0,0.0,0.0,0.0,0.0,0.0,0.0,-2.4259,-2.3844,-2.3651,0.0,0.0,0.0,0.0,0.0,0.0,0.0,0.0,0.0,0.0,0.0,0.0,0.0,0.0,0.0,0.0,0.0,0.0,0.0,0.0,0.0,0.0,0.0,0.0,0.0,0.0,0.0,0.0,0.0,0.0,0.0,0.0,0.0,0.0,0.0,0.0,0.0,0.0,0.0,0.0,0.0,0.0,0.0,0.0,0.0,0.0,0.0,0.0,0.0,0.0,0.0,0.0,0.0,0.0,0.0,0.0,0.0,0.0,0.0,0.0,0.0,0.0,0.0,0.0,0.0,0.0,0.0,0.0,0.0,0.0,0.0,0.0,0.0,0.0,0.0,0.0,0.0,0.0,0.0,0.0,0.0,0.0,0.0,0.0,0.0,0.0,0.0,0.0,0.0,0.0,0.0,0.0,0.0,0.0,0.0,0.0,0.0,0.0,0.0,0.0,0.0,0.0,0.0,0.0,0.0,0.0,0.0,0.0,0.0,0.0,-2.3798,0.0,-2.3982,-2.3959,-2.3696,-2.3278,0.0,0.0,0.0,0.0,0.0,0.0,0.0,0.0,0.0,0.0,0.0,0.0,0.0,0.0,0.0,0.0,0.0,0.0,0.0,0.0,0.0,0.0,0.0,0.0,0.0,0.0,0.0,0.0,0.0,0.0,0.0,0.0,0.0,0.0,0.0,0.0,0.0,0.0,0.0,0.0,0.0,0.0,0.0,0.0,0.0,0.0,0.0,0.0,0.0,0.0,0.0,0.0,0.0,0.0,0.0,0.0,0.0,0.0,0.0,0.0,0.0,0.0,0.0,0.0,0.0,0.0,0.0,0.0,0.0,0.0,0.0,0.0,0.0,0.0,0.0,0.0,0.0,0.0,0.0,0.0,0.0,0.0,0.0,0.0,0.0,0.0,0.0,0.0,0.0,0.0,0.0,0.0,0.0,0.0,0.0,0.0,0.0,0.0,0.0,0.0,0.0,0.0,0.0,0.0,0.0,0.0,0.0,0.0,0.0,-2.4712,-2.3891,-2.4452,-2.4471,-2.3812,0.0,0.0,0.0,0.0,0.0,0.0,0.0,0.0,0.0,0.0,0.0,0.0,0.0,0.0,0.0,0.0,0.0,0.0,0.0,0.0,0.0,0.0,0.0,0.0,0.0,0.0,0.0,0.0,0.0,0.0,0.0,0.0,0.0,0.0,0.0,0.0,0.0,0.0,0.0,0.0,0.0,0.0,0.0,0.0,0.0,0.0,0.0,0.0,0.0,0.0,0.0,0.0,0.0,0.0,0.0,0.0,0.0,0.0,0.0,0.0,0.0,0.0,0.0,0.0,0.0,0.0,0.0,0.0,0.0,0.0,0.0,0.0,0.0,0.0,0.0,0.0,0.0,0.0,0.0,0.0,0.0,0.0,0.0,0.0,0.0,0.0,0.0,0.0,0.0,0.0,0.0,0.0,0.0,0.0,0.0,0.0,0.0,0.0,0.0,0.0,0.0,0.0,0.0,0.0,0.0,0.0,0.0,0.0,0.0,-2.4224,-2.3921,-2.4247,-2.5292,-2.3979,-2.3153,0.0,0.0,0.0,0.0,0.0,0.0,0.0,0.0,0.0,0.0,0.0,0.0,0.0,0.0,0.0,0.0,0.0,0.0,0.0,0.0,0.0,0.0,0.0,0.0,0.0,0.0,0.0,0.0,0.0,0.0,0.0,0.0,0.0,0.0,0.0,0.0,0.0,0.0,0.0,0.0,0.0,0.0,0.0,0.0,0.0,0.0,0.0,0.0,0.0,0.0,0.0,0.0,0.0,0.0,0.0,0.0,0.0,0.0,0.0,0.0,0.0,0.0,0.0,0.0,0.0,0.0,0.0,0.0,0.0,0.0,0.0,0.0,0.0,0.0,0.0,0.0,0.0,0.0,0.0,0.0,0.0,0.0,0.0,0.0,0.0,0.0,0.0,0.0,0.0,0.0,0.0,0.0,0.0,0.0,0.0,0.0,0.0,0.0,0.0,0.0,0.0,0.0,0.0,0.0,0.0,0.0,0.0,0.0,0.0,-2.3316,0.0,-2.499,0.0,-2.3721,-2.2643,0.0,0.0,0.0,0.0,0.0,0.0,0.0,0.0,0.0,0.0,0.0,0.0,0.0,0.0,0.0,0.0,0.0,0.0,0.0,0.0,0.0,0.0,0.0,0.0,0.0,0.0,0.0,0.0,0.0,0.0,0.0,0.0,0.0,0.0,0.0,0.0,0.0,0.0,0.0,0.0,0.0,0.0,0.0,0.0,0.0,0.0,0.0,0.0,0.0,0.0,0.0,0.0,0.0,0.0,0.0,0.0,0.0,0.0,0.0,0.0,0.0,0.0,0.0,0.0,0.0,0.0,0.0,0.0,0.0,0.0,0.0,0.0,0.0,0.0,0.0,0.0,0.0,0.0,0.0,0.0,0.0,0.0,0.0,0.0,0.0,0.0,0.0,0.0,0.0,0.0,0.0,0.0,0.0,0.0,0.0,0.0,0.0,0.0,0.0,0.0,0.0,0.0,0.0,0.0,0.0,0.0,0.0,0.0,-2.328,-2.455,-2.591,-2.5962,-2.4625,-2.3763,-2.2327,0.0,0.0,0.0,0.0,0.0,0.0,0.0,0.0,0.0,0.0,0.0,0.0,0.0,0.0,0.0,0.0,0.0,0.0,0.0,0.0,0.0,0.0,0.0,0.0,0.0,0.0,0.0,0.0,0.0,0.0,0.0,0.0,0.0,0.0,0.0,0.0,0.0,0.0,0.0,0.0,0.0,0.0,0.0,0.0,0.0,0.0,0.0,0.0,0.0,0.0,0.0,0.0,0.0,0.0,0.0,0.0,0.0,0.0,0.0,0.0,0.0,0.0,0.0,0.0,0.0,0.0,0.0,0.0,0.0,0.0,0.0,0.0,0.0,0.0,0.0,0.0,0.0,0.0,0.0,0.0,0.0,0.0,0.0,0.0,0.0,0.0,0.0,0.0,0.0,0.0,0.0,0.0,0.0,0.0,0.0,0.0,0.0,0.0,0.0,0.0,0.0,0.0,0.0,0.0,0.0,0.0,0.0,0.0,0.0,-2.4047,-2.548,-2.6204,-2.601,-2.393,-2.2895,0.0,0.0,0.0,0.0,0.0,0.0,0.0,0.0,0.0,0.0,0.0,0.0,0.0,0.0,0.0,0.0,0.0,0.0,0.0,0.0,0.0,0.0,0.0,0.0,0.0,0.0,0.0,0.0,0.0,0.0,0.0,0.0,0.0,0.0,0.0,0.0,0.0,0.0,0.0,0.0,0.0,0.0,0.0,0.0,0.0,0.0,0.0,0.0,0.0,0.0,0.0,0.0,0.0,0.0,0.0,0.0,0.0,0.0,0.0,0.0,0.0,0.0,0.0,0.0,0.0,0.0,0.0,0.0,0.0,0.0,0.0,0.0,0.0,0.0,0.0,0.0,0.0,0.0,0.0,0.0,0.0,0.0,0.0,0.0,0.0,0.0,0.0,0.0,0.0,0.0,0.0,0.0,0.0,0.0,0.0,0.0,0.0,0.0,0.0,0.0,0.0,0.0,0.0,0.0,0.0,0.0,0.0,0.0,0.0,-2.581,-2.6681,-2.7162,-2.7165,-2.4887,-2.3648,-2.3628,0.0,0.0,0.0,0.0,0.0,0.0,0.0,0.0,0.0,0.0,0.0,0.0,0.0,0.0,0.0,0.0,0.0,0.0,0.0,0.0,0.0,0.0,0.0,0.0,0.0,0.0,0.0,0.0,0.0,0.0,0.0,0.0,0.0,0.0,0.0,0.0,0.0,0.0,0.0,0.0,0.0,0.0,0.0,0.0,0.0,0.0,0.0,0.0,0.0,0.0,0.0,0.0,0.0,0.0,0.0,0.0,0.0,0.0,0.0,0.0,0.0,0.0,0.0,0.0,0.0,0.0,0.0,0.0,0.0,0.0,0.0,0.0,0.0,0.0,0.0,0.0,0.0,0.0,0.0,0.0,0.0,0.0,0.0,0.0,0.0,0.0,0.0,0.0,0.0,0.0,0.0,0.0,0.0,0.0,0.0,0.0,0.0,0.0,0.0,0.0,0.0,0.0,0.0,0.0,0.0,0.0,0.0,0.0,-2.9356,-2.9351,-2.8976,-2.8094,-2.6556,-2.4763,0.0,0.0,0.0,0.0,0.0,0.0,0.0,0.0,0.0,0.0,0.0,0.0,0.0,0.0,0.0,0.0,0.0,0.0,0.0,0.0,0.0,0.0,0.0,0.0,0.0,0.0,0.0,0.0,0.0,0.0,0.0,0.0,0.0,0.0,0.0,0.0,0.0,0.0,0.0,0.0,0.0,0.0,0.0,0.0,0.0,0.0,0.0,0.0,0.0,0.0,0.0,0.0,0.0,0.0,0.0,0.0,0.0,0.0,0.0,0.0,0.0,0.0,0.0,0.0,0.0,0.0,0.0,0.0,0.0,0.0,0.0,0.0,0.0,0.0,0.0,0.0,0.0,0.0,0.0,0.0,0.0,0.0,0.0,0.0,0.0,0.0,0.0,0.0,0.0,0.0,0.0,0.0,0.0,0.0,0.0,0.0,0.0,0.0,0.0,0.0,0.0,0.0,0.0,0.0,0.0,0.0,0.0,0.0,0.0,-3.2246,-3.3322,-3.2983,-3.1142,-2.8691,-2.7063,0.0,0.0,0.0,0.0,0.0,0.0,0.0,0.0,0.0,0.0,0.0,0.0,0.0,0.0,0.0,0.0,0.0,0.0,0.0,0.0,0.0,0.0,0.0,0.0,0.0,0.0,0.0,0.0,0.0,0.0,0.0,0.0,0.0,0.0,0.0,0.0,0.0,0.0,0.0,0.0,0.0,0.0,0.0,0.0,0.0,0.0,0.0,0.0,0.0,0.0,0.0,0.0,0.0,0.0,0.0,0.0,0.0,0.0,0.0,0.0,0.0,0.0,0.0,0.0,0.0,0.0,0.0,0.0,0.0,0.0,0.0,0.0,0.0,0.0,0.0,0.0,0.0,0.0,0.0,0.0,0.0,0.0,0.0,0.0,0.0,0.0,0.0,0.0,0.0,0.0,0.0,0.0,0.0,0.0,0.0,0.0,0.0,0.0,0.0,0.0,0.0,0.0,0.0,0.0,0.0,0.0,0.0,0.0,-3.2184,-3.4281,-3.5825,-3.596,-3.4675,-3.1825,-2.9487,0.0,0.0,0.0,0.0,0.0,0.0,0.0,0.0,0.0,0.0,0.0,0.0,0.0,0.0,0.0,0.0,0.0,0.0,0.0,0.0,0.0,0.0,0.0,0.0,0.0,0.0,0.0,0.0,0.0,0.0,0.0,0.0,0.0,0.0,0.0,0.0,0.0,0.0,0.0,0.0,0.0,0.0,0.0,0.0,0.0,0.0,0.0,0.0,0.0,0.0,0.0,0.0,0.0,0.0,0.0,0.0,0.0,0.0,0.0,0.0,0.0,0.0,0.0,0.0,0.0,0.0,0.0,0.0,0.0,0.0,0.0,0.0,0.0,0.0,0.0,0.0,0.0,0.0,0.0,0.0,0.0,0.0,0.0,0.0,0.0,0.0,0.0,0.0,0.0,0.0,0.0,0.0,0.0,0.0,0.0,0.0,0.0,0.0,0.0,0.0,0.0,0.0,0.0,0.0,0.0,0.0,0.0,0.0,-3.3656,-3.5802,-3.7347,-3.8091,-3.7922,-3.5047,-3.1765,0.0,0.0,0.0,0.0,0.0,0.0,0.0,0.0,0.0,0.0,0.0,0.0,0.0,0.0,0.0,0.0,0.0,0.0,0.0,0.0,0.0,0.0,0.0,0.0,0.0,0.0,0.0,0.0,0.0,0.0,0.0,0.0,0.0,0.0,0.0,0.0,0.0,0.0,0.0,0.0,0.0,0.0,0.0,0.0,0.0,0.0,0.0,0.0,0.0,0.0,0.0,0.0,0.0,0.0,0.0,0.0,0.0,0.0,0.0,0.0,0.0,0.0,0.0,0.0,0.0,0.0,0.0,0.0,0.0,0.0,0.0,0.0,0.0,0.0,0.0,0.0,0.0,0.0,0.0,0.0,0.0,0.0,0.0,0.0,0.0,0.0,0.0,0.0,0.0,0.0,0.0,0.0,0.0,0.0,0.0,0.0,0.0,0.0,0.0,0.0,0.0,0.0,0.0,0.0,0.0,0.0,0.0,0.0,-3.5137,-3.7381,-3.887,-3.9343,-3.8768,-3.5284,-3.2489,0.0,0.0,0.0,0.0,0.0,0.0,0.0,0.0,0.0,0.0,0.0,0.0,0.0,0.0,0.0,0.0,0.0,0.0,0.0,0.0,0.0,0.0,0.0,0.0,0.0,0.0,0.0,0.0,0.0,0.0,0.0,0.0,0.0,0.0,0.0,0.0,0.0,0.0,0.0,0.0,0.0,0.0,0.0,0.0,0.0,0.0,0.0,0.0,-1.8032,0.0,0.0,0.0,0.0,0.0,0.0,0.0,0.0,0.0,0.0,0.0,0.0,0.0,0.0,0.0,0.0,0.0,0.0,0.0,0.0,0.0,0.0,0.0,0.0,0.0,0.0,0.0,0.0,0.0,0.0,0.0,0.0,0.0,0.0,0.0,0.0,0.0,0.0,0.0,0.0,0.0,0.0,0.0,0.0,0.0,0.0,0.0,0.0,0.0,0.0,0.0,0.0,0.0,0.0,0.0,0.0,0.0,0.0,0.0,-3.6129,-3.8362,-3.9512,-3.991,-3.9411,-3.6592,-3.3931,0.0,0.0,0.0,0.0,0.0,0.0,0.0,0.0,0.0,0.0,0.0,0.0,0.0,0.0,0.0,0.0,0.0,0.0,0.0,0.0,0.0,0.0,0.0,0.0,0.0,0.0,0.0,0.0,0.0,0.0,0.0,0.0,0.0,0.0,0.0,0.0,0.0,0.0,0.0,0.0,0.0,0.0,0.0,0.0,0.0,0.0,0.0,0.0,0.0,0.0,0.0,0.0,0.0,0.0,0.0,0.0,0.0,0.0,0.0,0.0,0.0,0.0,0.0,0.0,0.0,0.0,0.0,0.0,0.0,0.0,0.0,0.0,0.0,0.0,0.0,0.0,0.0,0.0,0.0,0.0,0.0,0.0,0.0,0.0,0.0,0.0,0.0,0.0,0.0,0.0,0.0,0.0,0.0,0.0,0.0,0.0,0.0,0.0,0.0,0.0,0.0,0.0,0.0,0.0,0.0,0.0,0.0,-3.4349,-3.6772,-3.9097,-3.991,-4.0214,-4.0079,-3.8082,-3.5543,-3.2564,0.0,0.0,0.0,0.0,0.0,0.0,0.0,0.0,0.0,0.0,0.0,0.0,0.0,0.0,0.0,0.0,0.0,0.0,0.0,0.0,0.0,0.0,0.0,0.0,0.0,0.0,0.0,0.0,0.0,0.0,0.0,0.0,0.0,0.0,0.0,0.0,0.0,0.0,-1.8154,-2.0525,0.0,0.0,0.0,0.0,0.0,0.0,0.0,0.0,-1.9168,0.0,0.0,0.0,0.0,0.0,0.0,0.0,0.0,0.0,0.0,0.0,0.0,0.0,0.0,0.0,0.0,0.0,0.0,0.0,0.0,0.0,0.0,0.0,0.0,0.0,0.0,0.0,0.0,0.0,0.0,0.0,0.0,0.0,0.0,0.0,0.0,0.0,0.0,0.0,0.0,0.0,0.0,0.0,0.0,0.0,0.0,0.0,0.0,0.0,0.0,0.0,0.0,0.0,0.0,0.0,0.0,-3.4788,-3.5363,-3.7009,-3.9842,-4.0629,-4.073,-4.0113,-3.8565,-3.6299,-3.3322,0.0,0.0,0.0,0.0,0.0,0.0,0.0,0.0,0.0,0.0,0.0,0.0,0.0,0.0,0.0,0.0,0.0,0.0,0.0,0.0,0.0,0.0,0.0,0.0,0.0,0.0,0.0,0.0,0.0,0.0,0.0,0.0,0.0,0.0,0.0,0.0,0.0,0.0,0.0,-2.2639,-2.3581,0.0,0.0,0.0,0.0,0.0,0.0,0.0,0.0,-1.8696,0.0,0.0,0.0,0.0,0.0,0.0,0.0,0.0,0.0,0.0,0.0,0.0,0.0,0.0,0.0,0.0,0.0,0.0,0.0,0.0,0.0,0.0,0.0,0.0,0.0,0.0,0.0,0.0,0.0,0.0,0.0,0.0,0.0,0.0,0.0,0.0,0.0,0.0,0.0,0.0,0.0,0.0,0.0,0.0,0.0,0.0,0.0,0.0,0.0,0.0,0.0,0.0,0.0,0.0,0.0,-3.4247,-3.64,-3.843,-4.0595,-4.1001,-4.1035,-4.0629,-3.8091,-3.5633,0.0,0.0,0.0,0.0,0.0,0.0,0.0,0.0,0.0,0.0,0.0,0.0,0.0,0.0,0.0,0.0,0.0,0.0,0.0,0.0,0.0,0.0,0.0,0.0,0.0,0.0,0.0,0.0,0.0,0.0,0.0,0.0,0.0,0.0,0.0,0.0,0.0,0.0,0.0,0.0,-2.3469,-2.4379,-2.4143,0.0,0.0,0.0,0.0,0.0,0.0,-2.0729,-1.9605,0.0,0.0,0.0,0.0,0.0,0.0,0.0,0.0,0.0,0.0,0.0,0.0,0.0,0.0,0.0,0.0,0.0,0.0,0.0,0.0,0.0,0.0,0.0,0.0,0.0,0.0,0.0,0.0,0.0,0.0,0.0,0.0,0.0,0.0,0.0,0.0,0.0,0.0,0.0,0.0,0.0,0.0,0.0,0.0,0.0,0.0,0.0,0.0,0.0,0.0,0.0,0.0,0.0,0.0,0.0,-3.3626,-3.7178,-3.9783,-4.1339,-4.1441,-4.1373,-4.1136,-3.7855,-3.5228,0.0,0.0,0.0,0.0,0.0,0.0,0.0,0.0,0.0,0.0,0.0,0.0,0.0,0.0,0.0,0.0,0.0,0.0,0.0,0.0,0.0,0.0,0.0,0.0,0.0,0.0,0.0,0.0,0.0,0.0,0.0,0.0,0.0,0.0,0.0,0.0,0.0,0.0,0.0,0.0,0.0,-2.5072,-2.4505,-2.3726,0.0,0.0,0.0,0.0,-2.3134,-2.22,0.0,0.0,0.0,0.0,0.0,0.0,0.0,0.0,0.0,0.0,0.0,0.0,0.0,0.0,0.0,0.0,0.0,0.0,0.0,0.0,0.0,0.0,0.0,0.0,0.0,0.0,0.0,0.0,0.0,0.0,0.0,0.0,0.0,0.0,0.0,0.0,0.0,0.0,0.0,0.0,0.0,0.0,0.0,0.0,0.0,0.0,0.0,0.0,0.0,0.0,0.0,0.0,0.0,0.0,0.0,0.0,-3.4303,-3.7415,-4.0045,-4.2049,-4.2151,-4.1847,-4.1204,-3.8903,-3.6299,0.0,0.0,0.0,0.0,0.0,0.0,0.0,0.0,0.0,0.0,0.0,0.0,0.0,0.0,0.0,0.0,0.0,0.0,0.0,0.0,0.0,0.0,0.0,0.0,0.0,0.0,0.0,0.0,0.0,0.0,0.0,0.0,0.0,0.0,0.0,0.0,0.0,0.0,0.0,0.0,0.0,-2.5883,-2.5013,-2.4913,-2.4627,0.0,0.0,0.0,-2.3659,-2.4225,0.0,0.0,0.0,0.0,0.0,0.0,0.0,0.0,0.0,0.0,0.0,0.0,0.0,0.0,0.0,0.0,0.0,0.0,0.0,0.0,0.0,0.0,0.0,0.0,0.0,0.0,0.0,0.0,0.0,0.0,0.0,0.0,0.0,0.0,0.0,0.0,0.0,0.0,0.0,0.0,0.0,0.0,0.0,0.0,0.0,0.0,0.0,0.0,0.0,0.0,0.0,0.0,0.0,0.0,0.0,-3.0886,-3.4472,-3.8294,-4.1136,-4.2828,-4.2523,-4.2151,-4.1813,-3.843,-3.5622,0.0,0.0,0.0,0.0,0.0,0.0,0.0,0.0,0.0,0.0,0.0,0.0,0.0,0.0,0.0,0.0,0.0,0.0,0.0,0.0,0.0,0.0,0.0,0.0,0.0,0.0,0.0,0.0,0.0,0.0,0.0,0.0,0.0,0.0,0.0,0.0,0.0,0.0,0.0,0.0,0.0,0.0,-2.5863,-2.5795,0.0,0.0,0.0,-2.4842,-2.5133,0.0,0.0,0.0,0.0,0.0,0.0,0.0,0.0,0.0,0.0,0.0,0.0,0.0,0.0,0.0,0.0,0.0,0.0,0.0,0.0,0.0,0.0,0.0,0.0,0.0,0.0,0.0,0.0,0.0,0.0,0.0,0.0,0.0,0.0,0.0,0.0,0.0,0.0,0.0,0.0,0.0,0.0,0.0,0.0,0.0,0.0,0.0,0.0,0.0,0.0,0.0,0.0,0.0,0.0,0.0,0.0,0.0,-3.4776,-3.9208,-4.2219,-4.3606,-4.2794,-4.2286,-4.2219,-3.8328,0.0,0.0,0.0,0.0,0.0,0.0,0.0,0.0,0.0,0.0,0.0,0.0,0.0,0.0,0.0,0.0,0.0,0.0,0.0,0.0,0.0,0.0,0.0,0.0,0.0,0.0,0.0,-1.2908,0.0,0.0,0.0,0.0,0.0,0.0,0.0,0.0,0.0,0.0,0.0,0.0,0.0,0.0,-2.7155,-2.6329,-2.6561,-2.6788,0.0,0.0,-2.5601,-2.6055,-2.5549,-2.4625,0.0,0.0,0.0,0.0,0.0,0.0,0.0,0.0,0.0,0.0,0.0,0.0,0.0,0.0,0.0,0.0,0.0,0.0,0.0,0.0,0.0,0.0,0.0,0.0,0.0,0.0,0.0,0.0,0.0,0.0,0.0,0.0,0.0,0.0,0.0,0.0,0.0,0.0,0.0,0.0,0.0,0.0,0.0,0.0,0.0,0.0,0.0,0.0,0.0,0.0,0.0,0.0,0.0,0.0,0.0,-3.5566,-3.9952,-4.2929,-4.4412,-4.3064,-4.2286,-4.2252,-3.9343,-3.6377,0.0,0.0,0.0,0.0,0.0,0.0,0.0,0.0,0.0,0.0,0.0,0.0,0.0,0.0,0.0,0.0,0.0,0.0,0.0,0.0,0.0,0.0,0.0,0.0,0.0,0.0,0.0,0.0,0.0,0.0,0.0,0.0,0.0,0.0,0.0,0.0,0.0,0.0,0.0,0.0,0.0,-2.6594,-2.6083,-2.7083,-2.7618,0.0,0.0,-2.7234,-2.5645,-2.638,-2.6103,-2.2871,0.0,0.0,0.0,0.0,0.0,0.0,0.0,0.0,0.0,0.0,0.0,0.0,0.0,0.0,0.0,0.0,0.0,0.0,0.0,0.0,0.0,0.0,0.0,0.0,0.0,0.0,0.0,0.0,0.0,0.0,0.0,0.0,0.0,0.0,0.0,0.0,0.0,0.0,0.0,0.0,0.0,0.0,0.0,0.0,0.0,0.0,0.0,0.0,0.0,0.0,0.0,0.0,0.0,-3.2645,-3.56,-4.002,-4.3031,-4.4513,-4.3538,-4.276,-4.2286,-3.9884,-3.6941,0.0,0.0,0.0,0.0,0.0,0.0,0.0,0.0,0.0,0.0,0.0,0.0,0.0,0.0,0.0,0.0,0.0,0.0,0.0,0.0,0.0,0.0,0.0,0.0,0.0,0.0,0.0,0.0,-1.6409,-1.6622,-1.6524,0.0,0.0,0.0,0.0,0.0,0.0,0.0,0.0,0.0,0.0,-2.7275,-2.7241,-2.7955,0.0,0.0,-2.8023,-2.8044,-2.7487,-2.7162,-2.6386,-2.4668,-2.3398,0.0,0.0,0.0,0.0,0.0,0.0,0.0,0.0,0.0,0.0,0.0,0.0,0.0,0.0,0.0,0.0,0.0,0.0,0.0,0.0,0.0,0.0,0.0,0.0,0.0,0.0,0.0,0.0,0.0,0.0,0.0,0.0,0.0,0.0,0.0,0.0,0.0,0.0,0.0,0.0,0.0,0.0,0.0,0.0,0.0,0.0,0.0,0.0,0.0,0.0,0.0,0.0,-3.2882,-3.5566,-4.002,-4.3058,-4.4553,-4.3809,-4.3064,-4.2286,-4.0358,-3.755,0.0,0.0,0.0,0.0,0.0,0.0,0.0,0.0,0.0,0.0,0.0,0.0,0.0,0.0,0.0,0.0,0.0,0.0,0.0,0.0,0.0,0.0,0.0,0.0,0.0,0.0,0.0,0.0,-1.7731,-1.7638,-1.6962,0.0,0.0,0.0,0.0,0.0,0.0,0.0,0.0,0.0,0.0,-2.7913,-2.8132,-2.865,-2.8948,-2.8772,-2.8559,-2.8357,-2.8215,-2.7351,-2.6352,-2.531,0.0,0.0,0.0,0.0,0.0,0.0,0.0,0.0,0.0,0.0,0.0,0.0,0.0,0.0,0.0,0.0,0.0,0.0,0.0,0.0,0.0,0.0,0.0,0.0,0.0,0.0,0.0,0.0,0.0,0.0,0.0,0.0,0.0,0.0,0.0,0.0,0.0,0.0,0.0,0.0,0.0,0.0,0.0,0.0,0.0,0.0,0.0,0.0,0.0,0.0,0.0,0.0,0.0,0.0,-3.5633,-4.002,-4.3058,-4.4513,-4.3809,-4.3064,-4.2286,-4.0857,-3.8294,-3.4506,0.0,0.0,0.0,0.0,0.0,0.0,0.0,0.0,0.0,0.0,0.0,0.0,0.0,0.0,0.0,0.0,0.0,0.0,0.0,0.0,0.0,0.0,0.0,0.0,0.0,0.0,-1.8284,-1.7608,-1.6993,0.0,0.0,0.0,0.0,0.0,0.0,0.0,0.0,0.0,0.0,-2.6809,-2.8205,-2.8456,-2.9044,-2.9461,-2.9448,-2.884,-2.8104,-2.7284,-2.6867,-2.6061,0.0,0.0,0.0,0.0,0.0,0.0,0.0,0.0,0.0,0.0,0.0,0.0,0.0,0.0,0.0,0.0,0.0,0.0,0.0,0.0,0.0,0.0,0.0,0.0,0.0,0.0,0.0,-3.0615,-2.9702,0.0,0.0,0.0,0.0,0.0,0.0,0.0,0.0,0.0,0.0,0.0,-3.534,-3.6062,0.0,0.0,0.0,0.0,0.0,0.0,0.0,0.0,0.0,0.0,0.0,0.0,-3.3681,-3.6457,-4.029,-4.3058,-4.4547,-4.4316,-4.3572,-4.2347,-4.1339,-3.8386,-3.3207,0.0,0.0,0.0,0.0,0.0,0.0,0.0,0.0,0.0,0.0,0.0,0.0,0.0,0.0,0.0,0.0,0.0,0.0,0.0,0.0,0.0,0.0,0.0,0.0,0.0,-1.9888,0.0,0.0,0.0,0.0,0.0,0.0,0.0,0.0,0.0,0.0,0.0,-2.5278,-2.7009,-2.7708,-2.831,-2.9054,-2.9365,-2.9425,0.0,0.0,0.0,0.0,0.0,0.0,0.0,0.0,0.0,0.0,0.0,0.0,0.0,0.0,-2.2959,-1.9139,-1.8033,-1.7876,-1.8554,0.0,0.0,0.0,0.0,0.0,0.0,0.0,0.0,0.0,0.0,0.0,0.0,0.0,0.0,0.0,0.0,-3.2848,0.0,0.0,0.0,0.0,0.0,0.0,0.0,0.0,-3.6941,-3.8328,-3.8362,-3.9073,-3.9039,0.0,-3.7821,-3.5453,0.0,0.0,0.0,0.0,0.0,0.0,0.0,0.0,-3.4426,-3.7178,-4.0798,-4.3301,-4.4547,-4.4581,-4.4005,-4.2692,-4.1204,-3.8227,-3.3592,-3.0603,-2.8409,0.0,0.0,0.0,0.0,0.0,0.0,0.0,0.0,0.0,0.0,0.0,0.0,0.0,0.0,0.0,0.0,0.0,0.0,0.0,0.0,0.0,0.0,0.0,-2.0549,0.0,0.0,0.0,0.0,0.0,0.0,0.0,0.0,0.0,-2.428,-2.5471,-2.6987,-2.8894,-2.886,-2.8978,-2.9871,0.0,0.0,0.0,0.0,0.0,0.0,0.0,-2.8337,-2.8359,-2.7469,-2.6714,-2.6704,-2.666,-2.6572,-2.6594,0.0,0.0,-2.2034,-2.097,-2.0754,-2.1255,-2.2396,-2.3223,-2.303,-2.4195,-2.5086,0.0,0.0,0.0,0.0,0.0,0.0,0.0,0.0,-3.5971,-3.6366,0.0,-3.6129,0.0,0.0,0.0,0.0,0.0,0.0,0.0,0.0,-4.1305,-4.2632,-4.1407,-4.2049,-4.1982,-4.1441,-4.2598,-4.1414,-3.7821,-3.2916,0.0,0.0,0.0,0.0,0.0,0.0,-3.5723,-3.8058,-4.1576,-4.3775,-4.4547,-4.4581,-4.4181,-4.3335,-4.0561,-3.799,-3.5735,-3.4158,-3.1721,-2.8131,-2.7145,0.0,0.0,0.0,0.0,0.0,0.0,0.0,0.0,0.0,0.0,0.0,0.0,0.0,0.0,0.0,0.0,0.0,0.0,0.0,0.0,-2.0949,0.0,0.0,0.0,0.0,0.0,0.0,0.0,0.0,0.0,0.0,-2.5937,-2.7615,-2.9264,-3.0412,0.0,0.0,0.0,0.0,-3.0914,-3.0914,-3.0937,-3.0937,-3.0937,-3.0479,-2.983,-2.9006,0.0,0.0,-2.7038,-2.6643,-2.654,-2.6517,-2.6727,-2.6823,-2.6935,-2.5846,-2.5341,-2.6027,-2.5799,-2.5869,-2.6555,-2.6956,-2.7324,-4.2598,0.0,0.0,0.0,0.0,-3.87,-4.0121,-4.2794,-4.2219,-4.1238,-3.9918,-3.9715,0.0,0.0,0.0,0.0,0.0,0.0,-3.8633,-4.002,-4.2327,-4.347,-4.3667,-4.4384,-4.435,-4.3667,-4.347,-4.2591,-4.0967,-3.8473,-3.5148,-3.1089,0.0,0.0,0.0,0.0,-3.8024,-4.0223,-4.2354,-4.3809,-4.4581,-4.4581,-4.3944,-4.2658,-4.079,-3.8971,-3.729,-3.5461,-3.3494,-3.1298,-2.882,0.0,0.0,0.0,0.0,0.0,0.0,0.0,0.0,0.0,0.0,0.0,0.0,0.0,0.0,0.0,0.0,0.0,0.0,0.0,-2.1589,-2.1904,-2.1935,0.0,0.0,0.0,0.0,0.0,0.0,0.0,0.0,0.0,-2.9383,-2.9375,-2.9657,0.0,0.0,-3.0831,-3.1578,-3.1508,-3.1461,-3.1657,0.0,0.0,0.0,-3.1112,-3.0628,-3.0545,-3.0077,-2.954,-2.8998,-2.8738,-2.8559,-2.8355,-2.824,-2.8255,-2.8621,-2.7518,-2.6755,-2.713,-2.7086,-2.6989,-2.7357,-2.7591,-2.7656,-4.7733,-4.3944,-4.2625,-4.276,-4.3809,-4.3369,-4.4654,-4.6955,-4.621,-4.5297,-4.4248,-4.3673,-4.1847,-3.914,-3.8203,0.0,0.0,0.0,-4.1441,-4.3031,-4.4215,-4.4993,-4.5495,-4.5906,-4.5737,-4.5026,-4.4553,-4.3944,-4.32,-4.2016,-3.9546,-3.5893,0.0,0.0,-3.5656,-3.7719,-3.9715,-4.161,-4.3132,-4.4113,-4.4581,-4.4581,-4.387,-4.2354,-4.1433,-4.018,-3.8396,-3.6692,-3.5063,-3.3557,-3.0793,-2.8441,0.0,0.0,0.0,0.0,0.0,0.0,0.0,0.0,0.0,0.0,0.0,-1.9208,0.0,0.0,0.0,0.0,-2.076,-2.2146,-2.3002,-2.3332,0.0,0.0,0.0,0.0,0.0,0.0,0.0,-2.7303,-2.8285,-2.9415,-3.1054,-3.1,-3.1165,-3.2176,-3.1738,-3.1564,-3.2313,0.0,-3.2249,-3.2393,-3.2676,-3.2838,-3.2838,-3.2385,-3.1919,-3.1627,-3.1075,-3.0608,-3.0389,-2.9967,-2.9713,-2.9801,-2.9344,-2.9084,-2.9809,-2.8869,-2.806,-2.834,-2.8415,-2.8415,-2.8542,-2.8563,-2.8563,-5.2435,-5.0338,-4.8342,-4.7733,-4.8075,-4.8075,-4.8477,-4.912,-4.8443,-4.8511,-4.8984,-4.7665,-4.6244,-4.4722,-4.2625,0.0,0.0,-4.4141,-4.5094,-4.5805,-4.6549,-4.6853,-4.6819,-4.6853,-4.6515,-4.5805,-4.5805,-4.5399,-4.4682,-4.3944,-4.2861,-4.1407,-3.8768,-3.8014,-3.914,-3.9961,-4.1068,-4.2455,-4.3876,-4.4581,-4.4581,-4.4581,-4.387,-4.2354,-4.2286,-4.1238,-3.9106,-3.782,-3.6481,-3.4939,-3.2785,-3.06,-2.8497,0.0,0.0,0.0,0.0,0.0,0.0,0.0,0.0,0.0,0.0,0.0,0.0,0.0,0.0,0.0,-2.3305,0.0,-2.4471,-2.5025,0.0,0.0,0.0,-2.4902,-2.5619,-2.6257,-2.7396,-2.9335,0.0,0.0,0.0,0.0,-3.3229,-3.4,-3.2943,-3.2393,-3.3097,-3.3161,-3.3161,-3.3161,-3.368,-3.4068,-3.3914,-3.3738,-3.3259,-3.252,-3.1985,-3.1588,-3.1329,-3.0644,-3.0438,-3.1019,-3.0141,-2.961,-3.0558,-3.0092,-2.9611,-2.9602,-2.9694,-2.9826,-2.9783,-2.9783,-2.9751,-5.4836,-5.4329,-5.3822,-5.2063,-4.9593,-4.9593,-4.9999,-5.0676,-5.0507,-5.0202,-4.9796,-4.9458,-4.8477,-4.7056,-4.5974,-4.5568,-4.5737,-4.6109,-4.6346,-4.6583,-4.7293,-4.7361,-4.6819,-4.7361,-4.7259,-4.6549,-4.6549,-4.6143,-4.5466,-4.5263,-4.4688,-4.3802,-4.3091,-4.2049,-4.0764,-4.1955,-4.3098,-4.4073,-4.4412,-4.4581,-4.4581,-4.4581,-4.387,-4.2354,-4.2286,-4.1238,-3.9073,-3.8173,-3.6886,-3.5117,-3.3162,-3.1347,-2.9726,-2.6496,0.0,0.0,0.0,0.0,0.0,0.0,0.0,0.0,0.0,-2.2271,-1.9573,0.0,-2.3037,0.0,-2.3465,-2.4748,-2.5795,-2.601,0.0,0.0,-2.7426,-2.7919,-2.9064,-2.8879,-2.9273,-3.0751,-3.1059,-3.1615,-3.2693,-3.3024,-3.344,-3.4,-3.3634,-3.3398,-3.3817,-3.3874,-3.3874,-3.3874,-3.3971,-3.4101,-3.4075,-3.3873,-3.3681,-3.3648,-3.2937,-3.2389,-3.2364,-3.1855,-3.1494,-3.1502,-3.1286,-3.1222,-3.1563,-3.0955,-3.0459,-3.0477,-3.009,-2.9681,-2.9836,-2.9913,-2.9913,-5.6021,-5.5681,-5.5681,-5.4499,-5.257,-5.2232,-5.2334,-5.2672,-5.1995,-5.1454,-5.1048,-5.0744,-5.0135,-4.9325,-4.8951,-4.8748,-4.8748,-4.8748,-4.8578,-4.8274,-4.868,-4.8477,-4.78,-4.8206,-4.8003,-4.7293,-4.7293,-4.6921,-4.621,-4.5872,-4.55,-4.506,-4.4784,-4.3972,-4.2794,-4.3538,-4.4147,-4.4581,-4.4581,-4.4581,-4.4581,-4.4581,-4.387,-4.2354,-4.2011,-4.0975,-3.9073,-3.7786,-3.6489,-3.507,-3.335,-3.167,-3.0037,-2.782,-2.6173,0.0,0.0,0.0,0.0,0.0,0.0,0.0,0.0,0.0,0.0,0.0,-2.4094,0.0,-2.561,0.0,-2.8073,-2.8411,-2.8996,-3.0074,-3.0197,-3.0597,-3.1616,-3.1428,-3.1705,-3.3088,-3.2964,-3.3169,-3.4129,-3.414,-3.4017,-3.4022,-3.4095,-3.4124,-3.409,-3.4101,-3.4101,-3.4101,-3.4101,-3.4101,-3.4101,-3.3975,-3.3873,-3.3866,-3.3577,-3.3269,-3.3136,-3.2666,-3.2378,-3.2586,-3.2128,-3.1807,-3.2336,-3.1804,-3.1186,-3.0868,-3.049,-3.0113,-2.9923,-2.9913,-2.9913,-5.6562,-5.5987,-5.5987,-5.5987,-5.5953,-5.5209,-5.4803,-5.4634,-5.3213,-5.2536,-5.2401,-5.1691,-5.1352,-5.1352,-5.1219,-5.1217,-5.1217,-5.1217,-5.0879,-5.0236,-5.0135,-4.9763,-4.9154,-4.9052,-4.868,-4.8071,-4.8037,-4.7665,-4.6921,-4.6278,-4.5906,-4.5669,-4.506,-4.4682,-4.4615,-4.4581,-4.4581,-4.4581,-4.4581,-4.4581,-4.4581,-4.4581,-4.387,-4.2388,-4.1692,-4.0575,-3.8789,-3.7188,-3.5836,-3.4835,-3.3509,-3.1987,-3.0301,-2.9264,-2.8076,0.0,-2.6074,0.0,0.0,0.0,0.0,0.0,0.0,0.0,0.0,-2.5205,-2.5725,-2.6918,-2.8688,-3.0017,-3.0602,-3.1274,-3.189,-3.2444,-3.2598,-3.2906,-3.346,-3.3552,-3.4014,-3.5214,-3.4874,-3.4751,-3.5301,-3.5165,-3.4716,-3.4349,-3.4509,-3.4573,-3.4214,-3.409,-3.4101,-3.4101,-3.4101,-3.4101,-3.4101,-3.4101,-3.4025,-3.3822,-3.3917,-3.4025,-3.3764,-3.3283,-3.3133,-3.3734,-3.2925,-3.2305,-3.3072,-3.2643,-3.194,-3.139,-3.1163,-3.0775,-3.0107,-2.9913,-2.9913,-5.7611,-5.7476,-5.7476,-5.7476,-5.7442,-5.6697,-5.6055,-5.5446,-5.4532,-5.3822,-5.3247,-5.2435,-5.2097,-5.2063,-5.1488,-5.1217,-5.1217,-5.1217,-5.1117,-5.098,-5.0371,-4.9999,-4.9864,-4.9289,-4.8951,-4.8781,-4.8781,-4.8409,-4.7699,-4.7564,-4.6857,-4.5737,-4.5568,-4.5196,-4.4649,0.0,0.0,0.0,-4.4581,-4.4581,-4.4581,-4.4581,-4.387,-4.2354,-4.1606,0.0,-3.7603,-3.7051,-3.6014,-3.4275,-3.3819,0.0,0.0,0.0,0.0,0.0,0.0,0.0,0.0,0.0,0.0,0.0,-2.9508,-2.8535,-2.7836,-2.9169,-3.032,-3.0873,-3.1491,-3.189,-3.2013,-3.2628,-3.3059,-3.3213,-3.3737,-3.4166,-3.4289,-3.432,-3.4412,-3.4628,-3.4566,-3.4711,-3.5331,-3.5345,-3.5363,-3.534,-3.5268,-3.4876,-3.435,-3.4175,-3.4075,-3.4101,-3.4101,-3.4101,-3.4101,-3.4101,-3.4075,-3.405,-3.405,-3.4075,-3.4025,-3.3928,-3.3799,-3.4101,-3.3824,-3.3605,-3.3874,-3.3356,-3.2838,-3.2708,-3.219,-3.1413,-3.0172,-2.9913,-2.9913,-5.7881,0.0,-5.7881,-5.7881,0.0,-5.7509,-5.7137,-5.6731,-5.5615,-5.4735,-5.4025,-5.3619,-5.3247,-5.2875,-5.2503,-5.2367,-5.2301,-5.2334,-5.2131,-5.1725,-5.1352,-5.0811,-5.0101,-4.9695,-4.9357,-4.9018,-4.9018,-4.8815,-4.8443,-4.8105,-4.75,-4.6819,-4.6447,-4.5872,-4.5162,-4.4756,-4.4581,-4.4581,-4.4581,-4.4581,-4.4581,-4.4581,-4.4045,-4.2868,0.0,0.0,0.0,0.0,0.0,0.0,0.0,0.0,0.0,0.0,0.0,-3.1253,-3.1068,-3.0935,-3.0896,-3.1026,-3.1641,-3.2841,-3.3521,-3.2752,-3.0104,-3.1428,-3.2465,-3.2656,-3.3169,-3.3583,-3.3891,-3.4537,-3.506,-3.5399,-3.6045,-3.6353,-3.6076,-3.5953,-3.583,-3.5552,-3.5491,-3.5642,-3.5909,-3.5939,-3.59,-3.5875,-3.5808,-3.5591,-3.5095,-3.4465,-3.4101,-3.4101,-3.4101,-3.4101,-3.4101,-3.4101,-3.4101,-3.4101,-3.4101,-3.4101,-3.4101,-3.4101,-3.4101,-3.4075,-3.4,-3.3924,-3.4043,-3.3709,-3.3337,-3.3137,-3.2805,-3.2222,-3.1154,-3.0658,-3.0279,-5.7881,-5.7881,-5.7881,-5.7881,-5.7881,-5.7881,-5.7881,-5.778,0.0,0.0,0.0,-5.4634,-5.4262,-5.3687,-5.3551,-5.3518,-5.3518,-5.3518,-5.3145,-5.2503,-5.2367,-5.1657,-5.0507,-5.0202,-4.9763,-4.9221,-4.9052,-4.9018,-4.8984,-4.8345,-4.8007,-4.7838,-4.7293,-4.6583,-4.5737,-4.5094,-4.475,-4.4615,-4.4581,-4.4581,-4.4581,-4.4581,-4.4215,-4.3409,-4.174,-4.0601,-4.0153,-3.8005,-3.6234,-3.4903,-3.4516,-3.3794,-3.2536,-3.2966,-3.3498,-3.3915,-3.4294,-3.4438,-3.4308,-3.4164,-3.4414,-3.5183,-3.6722,-3.6199,-3.2721,-3.3583,-3.4291,-3.4321,-3.4845,-3.543,-3.6014,-3.6507,-3.703,-3.7461,-3.8015,-3.8046,-3.74,-3.7307,-3.6999,-3.6599,-3.6538,-3.663,-3.6569,-3.6724,-3.66,-3.6252,-3.6232,-3.6239,-3.581,-3.4955,-3.4295,-3.4133,-3.4101,-3.4101,-3.4101,-3.4101,-3.4101,-3.4101,-3.4101,-3.4101,-3.4101,-3.4101,-3.4101,-3.4101,-3.3873,-3.3848,-3.4025,-3.3866,-3.3629,-3.3339,-3.3259,-3.3064,-3.2352,-3.1713,-3.1089,-5.7881,-5.7881,-5.7881,-5.7881,-5.7881,-5.7881,-5.7881,-5.7814,-5.7002,-5.6224,-5.5513,-5.4871,-5.4532,-5.4397,-5.3788,-5.3518,-5.3518,-5.3518,-5.345,0.0,-5.2604,-5.2198,-5.1928,-5.0676,-5.0033,-4.9898,-4.9323,-4.9018,-4.8984,-4.8883,-4.8545,-4.7939,-4.78,-4.709,-4.5805,-4.5602,-4.5229,-4.4615,-4.4581,-4.4581,-4.4581,-4.4581,-4.4215,-4.3409,-4.253,-4.1506,-4.04,-3.9373,-3.852,-3.7728,-3.6729,-3.6223,-3.6425,-3.5568,-3.5395,-3.6014,-3.6107,-3.6629,-3.7644,-3.725,-3.7215,-3.7861,-3.82,-3.7861,-3.6815,-3.7338,-3.78,-3.78,-3.7738,-3.7984,-3.8077,-3.8138,-3.8015,-3.7615,-3.7615,-3.74,-3.6846,-3.6753,-3.6692,-3.6507,-3.703,-3.7218,-3.6971,-3.7313,-3.7406,-3.6936,-3.6643,-3.6302,-3.5879,-3.5374,-3.4813,-3.4262,-3.4101,-3.4101,-3.4101,-3.4101,-3.4101,-3.4101,-3.4101,-3.4101,-3.4101,-3.4101,-3.4101,-3.4101,-3.3873,-3.3822,-3.4025,-3.3873,-3.3758,-3.3799,-3.3849,-3.368,-3.3032,-3.2773,-3.2287,-5.7881,-5.7881,-5.7881,-5.7881,-5.7881,-5.7881,-5.7881,-5.7848,-5.7543,-5.7002,-5.6292,-5.5919,-5.5344,-5.46,-5.4228,-5.389,-5.3518,-5.3518,-5.3518,-5.3484,-5.3112,-5.2706,-5.2266,-5.1623,-5.0879,-5.0101,-4.9763,-4.939,-4.9052,-4.9018,-4.8849,-4.8511,-4.8105,-4.7534,-4.6921,-4.6109,-4.5534,-4.5196,-4.4818,-4.4581,-4.4581,-4.4581,-4.4243,-4.3437,-4.2418,-4.1778,-4.1503,-4.0154,-3.9253,-3.8893,-3.8074,-3.7529,-3.7406,-3.6878,-3.6876,-3.7523,-3.7584,-3.7836,-3.8465,-3.858,-3.8723,-3.9031,-3.9367,-3.9493,-3.9154,-3.8754,-3.8508,-3.8508,-3.8508,-3.8508,-3.8539,-3.8813,-3.8939,-3.8631,-3.8908,-3.8692,-3.78,-3.7584,-3.7307,-3.6661,-3.6753,-3.6908,-3.6755,-3.7002,-3.7219,-3.6969,-3.6925,-3.6777,-3.6394,-3.6176,-3.5723,-3.4917,-3.4555,-3.4336,-3.4147,-3.4101,-3.4101,-3.4101,-3.4101,-3.4101,-3.4101,-3.4101,-3.4101,-3.4075,-3.3873,-3.3771,-3.3873,-3.3797,-3.3771,-3.3822,-3.4,-3.3914,-3.368,-3.3356,-3.2579,-5.7881,-5.7881,-5.7881,-5.7881,-5.7881,-5.7881,-5.7881,-5.7881,-5.7881,-5.7577,-5.707,-5.6867,-5.6156,-5.5141,-5.4769,-5.4262,-5.3788,-5.3585,-5.3518,-5.3518,-5.3518,-5.3179,-5.2604,-5.2401,-5.1691,-5.0642,-5.027,-4.9796,-4.9289,-4.9086,-4.9018,-4.8951,-4.8443,-4.8075,-4.7872,-4.6786,-4.6041,-4.5674,-4.4985,-4.4524,-4.4384,-4.4497,-4.4236,-4.3492,-4.252,-4.2166,-4.2518,-4.0886,-3.9911,-3.9856,-3.9119,-3.8529,-3.8171,-3.8015,-3.8262,-3.8877,-3.897,-3.897,-3.9,-3.9565,-3.9874,-3.9739,-4.0197,-4.0505,-4.0413,-3.9551,-3.897,-3.897,-3.9,-3.9,-3.9093,-3.9398,-3.9644,-3.9551,-3.9951,-3.9644,-3.8723,-3.8508,-3.8077,-3.6969,-3.6846,-3.6907,-3.6599,-3.663,-3.6785,-3.6909,-3.7119,-3.7166,-3.6896,-3.6883,-3.651,-3.5798,-3.516,-3.4689,-3.4323,-3.414,-3.4075,-3.4101,-3.4101,-3.4101,-3.4075,-3.405,-3.405,-3.4025,-3.3822,-3.372,-3.3745,-3.3668,-3.3668,-3.3771,-3.3924,-3.4,-3.4011,-3.3518,-3.274,-5.7881,-5.7881,-5.7881,-5.7881,-5.7881,-5.7881,-5.7881,-5.7881,-5.7881,-5.7881,-5.7679,-5.7103,-5.6731,-5.6427,-5.5209,-5.46,-5.4431,-5.3788,-5.3518,-5.3518,-5.3518,-5.345,-5.3281,-5.2638,-5.2232,-5.1894,-5.0744,-5.0067,-4.9898,-4.9289,-4.9018,-4.8984,-4.8917,-4.8578,-4.7939,-4.7736,-4.7027,-4.5708,-4.5013,-4.4314,-4.368,-4.4236,-4.4236,-4.3495,-4.334,-4.3337,-4.3244,-4.2044,-4.1304,-4.1242,-4.0086,-3.9653,-4.0078,-3.9613,-3.9616,-4.0197,-4.029,-4.032,-4.0324,-4.0901,-4.0999,-4.0516,-4.0443,-4.0505,-4.0505,-4.0382,-4.029,-4.0228,-4.0259,-4.0197,-4.0355,-4.032,-4.0105,-3.9644,-3.9644,-3.9308,-3.8723,-3.8508,-3.8231,-3.7523,-3.7861,-3.7861,-3.6876,-3.6969,-3.7061,-3.6662,-3.6847,-3.7059,-3.6993,-3.7168,-3.712,-3.6606,-3.5835,-3.5116,-3.478,-3.4336,-3.4212,-3.414,-3.4101,-3.4075,-3.405,-3.3924,-3.3797,-3.3949,-3.3745,-3.3617,-3.372,-3.372,-3.3565,-3.3822,-3.3899,-3.3822,-3.396,-3.3615,-3.287,-5.7881,-5.7881,-5.7881,-5.7881,-5.7881,-5.7881,-5.7881,-5.7881,-5.7881,-5.7881,-5.7848,-5.7577,-5.7205,-5.6765,-5.6156,-5.5446,-5.46,-5.4262,-5.389,-5.3551,-5.3518,-5.3518,-5.345,-5.3179,-5.2773,-5.2232,-5.1217,-5.0507,-5.0033,-4.9357,-4.9018,-4.9018,-4.9018,-4.8849,-4.8545,-4.8108,-4.7597,-4.6993,-4.5888,-4.4735,-4.3702,-4.3427,-4.3047,-4.2395,-4.2332,-4.2332,-4.2269,-4.1755,-4.1492,-4.1492,-4.0945,-4.0642,-4.0509,-4.0228,-4.0197,-4.0474,-4.0505,-4.0505,-4.0505,-4.0749,-4.0783,-4.0505,-4.0505,-4.0505,-4.0505,-4.0505,-4.0505,-4.0505,-4.0505,-4.0505,-4.0505,-4.0505,-4.0382,-4.0136,-4.0108,-3.9797,-3.9185,-3.9093,-3.8846,-3.8231,-3.8323,-3.8169,-3.7307,-3.6969,-3.6784,-3.6538,-3.6662,-3.6785,-3.6938,-3.724,-3.7291,-3.7118,-3.6578,-3.6061,-3.5642,-3.5098,-3.4736,-3.4497,-3.4258,-3.4075,-3.3899,-3.3949,-3.3949,-3.3899,-3.3771,-3.3617,-3.3565,-3.3797,-3.3848,-3.3949,-3.4,-3.3975,-3.4075,-3.3874,-3.355,-5.7881,-5.7881,-5.7881,-5.7881,-5.7881,-5.7881,-5.7881,-5.7881,-5.7881,-5.7881,-5.7881,-5.7881,-5.7611,-5.7103,-5.69,-5.619,-5.5243,-5.4769,-5.4329,-5.3788,-5.3585,-5.3518,-5.3518,-5.3518,-5.3213,-5.2604,-5.1894,-5.1014,-5.0135,-4.9357,-4.8892,-4.8736,-4.8704,-4.861,-4.8385,-4.7851,-4.7517,-4.7187,-4.6056,-4.4854,-4.3686,-4.2718,-4.201,-4.1557,-4.1492,-4.1492,-4.1492,-4.1358,-4.1194,-4.1225,-4.1227,-4.1024,-4.0543,-4.0505,-4.0505,-4.0505,-4.0505,-4.0505,-4.0505,-4.0505,-4.0505,-4.0505,-4.0505,-4.0505,-4.0505,-4.0505,-4.0505,-4.0505,-4.0505,-4.0505,-4.0505,-4.0505,-4.0505,-4.0505,-4.0505,-4.0259,-3.9828,-3.9767,-3.9524,-3.8939,-3.8816,-3.8539,-3.7861,-3.7277,-3.6846,-3.6815,-3.6661,-3.6569,-3.6847,-3.7089,-3.7298,-3.7387,-3.7118,-3.6805,-3.6469,-3.5787,-3.5315,-3.487,-3.4562,-3.4316,-3.3867,-3.3899,-3.3975,-3.3797,-3.3924,-3.3899,-3.3668,-3.3822,-3.3949,-3.3822,-3.3848,-3.4025,-3.4101,-3.4068,-3.4068,-5.7881,-5.7881,-5.7881,-5.7881,-5.7881,-5.7881,-5.7881,-5.7881,-5.7881,-5.7881,-5.7881,-5.7881,-5.7848,-5.7782,-5.7137,-5.6765,-5.6494,-5.5277,-5.4634,-5.4431,-5.3822,-5.3518,-5.3518,-5.3518,-5.3484,-5.3281,-5.2536,-5.1454,-5.0101,-4.939,-4.8608,-4.8032,-4.8032,-4.7605,-4.7103,-4.697,-4.6509,-4.5991,-4.5285,-4.4415,-4.3608,-4.2358,-4.1735,-4.1614,-4.1492,-4.1426,-4.1393,-4.0919,-4.0543,-4.0574,-4.0578,-4.0539,-4.0505,-4.0505,-4.0505,-4.0505,-4.0505,-4.0505,-4.0505,-4.0505,-4.0505,-4.0505,-4.0505,-4.0505,-4.0505,-4.0505,-4.0505,-4.0505,-4.0505,-4.0505,-4.0505,-4.0505,-4.0505,-4.0505,-4.0505,-4.0443,-4.0443,-4.0351,-4.0136,-3.9613,-3.9398,-3.9123,-3.8508,-3.7892,-3.7461,-3.7246,-3.6876,-3.6538,-3.66,-3.6847,-3.7089,-3.7298,-3.7322,-3.7218,-3.6837,-3.6273,-3.5604,-3.5252,-3.5192,-3.4807,-3.4169,-3.3694,-3.3758,-3.3726,-3.3797,-3.3797,-3.372,-3.3694,-3.3745,-3.3745,-3.3771,-3.3899,-3.4,-3.4075,-3.4101,-5.7881,-5.7881,-5.7881,-5.7881,-5.7881,-5.7881,-5.7881,-5.7881,-5.7881,-5.7881,-5.7881,-5.7881,-5.7881,-5.7881,-5.7611,-5.7239,-5.6765,-5.6224,-5.5513,-5.4668,-5.4329,-5.3957,-5.3518,-5.3518,-5.3518,-5.3382,-5.2672,-5.1555,-5.0234,-4.983,-4.911,-4.8098,-4.7901,-4.7506,-4.6898,-4.6795,-4.6631,-4.6369,-4.5709,-4.5001,-4.4267,-4.3376,-4.2654,-4.2186,-4.132,-4.0885,-4.0854,-4.0612,-4.0505,-4.0505,-4.0505,-4.0505,-4.0505,-4.0505,-4.0505,-4.0505,-4.0505,-4.0505,-4.0505,-4.0505,-4.0505,-4.0505,-4.0505,-4.0505,-4.0505,-4.0505,-4.0505,-4.0505,-4.0505,-4.0505,-4.0505,-4.0505,-4.0505,-4.0505,-4.0505,-4.0505,-4.0505,-4.0505,-4.0382,-4.0136,-3.9831,-3.94,-3.9062,-3.82,-3.7523,-3.743,-3.6907,-3.6569,-3.6569,-3.6785,-3.703,-3.7121,-3.715,-3.7145,-3.725,-3.6781,-3.6318,-3.6121,-3.5888,-3.5166,-3.4462,-3.4345,-3.4404,-3.3689,-3.364,-3.3784,-3.379,-3.372,-3.372,-3.372,-3.3745,-3.3797,-3.3848,-3.3975,-3.405,-5.7881,-5.7881,-5.7881,-5.7881,-5.7881,-5.7881,-5.7881,-5.7881,-5.7881,-5.7881,-5.7881,-5.7881,-5.7881,-5.7881,-5.7881,-5.7645,-5.7137,-5.69,-5.6258,-5.531,-5.4803,-5.4329,-5.389,-5.3619,-5.3518,-5.3382,-5.2706,-5.1758,-5.0847,-5.0316,-4.9325,-4.7967,-4.7633,-4.6989,-4.6266,-4.6092,-4.6092,-4.5985,-4.5588,-4.5112,-4.4601,-4.3944,-4.3408,-4.2817,-4.1801,-4.1058,-4.0843,-4.0628,-4.0505,-4.0505,-4.0505,-4.0505,-4.0505,-4.0505,-4.0505,-4.0505,-4.0505,-4.0505,-4.0505,-4.0505,-4.0505,-4.0505,-4.0505,-4.0505,-4.0505,-4.0505,-4.0505,-4.0505,-4.0505,-4.0505,-4.0505,-4.0505,-4.0505,-4.0505,-4.0505,-4.0505,-4.0505,-4.0505,-4.0505,-4.0413,-4.0136,-3.9859,-3.9674,-3.8846,-3.82,-3.7892,-3.7246,-3.6815,-3.6631,-3.6693,-3.6908,-3.6969,-3.6908,-3.7059,-3.7174,-3.697,-3.661,-3.6413,-3.6426,-3.5677,-3.5058,-3.4977,-3.4659,-3.3851,-3.362,-3.3788,-3.3822,-3.3752,-3.372,-3.3694,-3.3745,-3.3771,-3.3848,-3.3949,-3.4,-5.7881,-5.7881,-5.7881,-5.7881,-5.7881,-5.7881,-5.7881,-5.7881,-5.7881,-5.7881,-5.7881,-5.7881,-5.7881,-5.7881,-5.7881,-5.7848,-5.7679,-5.7171,-5.6799,-5.6494,-5.5344,-5.4702,-5.4465,-5.389,-5.3551,-5.3484,-5.2706,-5.2267,-5.1931,-5.0693,-4.9383,-4.8029,-4.7253,-4.6313,-4.4716,-4.4929,-4.4754,-4.4761,-4.4723,-4.4655,-4.4517,-4.3994,-4.3685,-4.3562,-4.2879,-4.2263,-4.1678,-4.1032,-4.0659,-4.0566,-4.0566,-4.0505,-4.0505,-4.0505,-4.0505,-4.0505,-4.0505,-4.0505,-4.0505,-4.0505,-4.0505,-4.0505,-4.0505,-4.0505,-4.0505,-4.0505,-4.0505,-4.0505,-4.0505,-4.0505,-4.0505,-4.0505,-4.0505,-4.0505,-4.0505,-4.0505,-4.0505,-4.0505,-4.0505,-4.0474,-4.0413,-4.0474,-4.0351,-3.9739,-3.9062,-3.8539,-3.7861,-3.7215,-3.6753,-3.6662,-3.6662,-3.6816,-3.6785,-3.6785,-3.7029,-3.7147,-3.6827,-3.6569,-3.6645,-3.6356,-3.5675,-3.5391,-3.5102,-3.4435,-3.4094,-3.4234,-3.3764,-3.3694,-3.3591,-3.3591,-3.37,-3.372,-3.372,-3.3745,-3.3873,-5.7881,-5.7881,-5.7881,-5.7881,-5.7881,-5.7881,-5.7881,-5.7881,-5.7881,-5.7881,-5.7881,-5.7881,-5.7881,-5.7881,-5.7881,-5.7881,-5.7848,-5.7645,-5.7306,-5.6799,-5.6325,-5.5513,-5.4702,-5.4363,-5.3991,-5.3551,-5.3247,-5.2539,-5.156,-5.0951,-4.9791,-4.8051,-4.751,-4.6635,-4.5388,-4.528,-4.5095,-4.4641,-4.461,-4.461,-4.461,-4.4394,-4.4302,-4.424,-4.3655,-4.3156,-4.2977,-4.2325,-4.1704,-4.1278,-4.1278,-4.1063,-4.0628,-4.0505,-4.0505,-4.0505,-4.0505,-4.0505,-4.0505,-4.0505,-4.0505,-4.0505,-4.0505,-4.0505,-4.0505,-4.0505,-4.0505,-4.0505,-4.0505,-4.0505,-4.0505,-4.0505,-4.0505,-4.0505,-4.0505,-4.0505,-4.0505,-4.0505,-4.0505,-4.0505,-4.0505,-4.0505,-4.0382,-3.992,-3.9493,-3.9154,-3.8262,-3.7461,-3.7184,-3.6784,-3.6538,-3.6631,-3.6538,-3.6538,-3.6754,-3.6938,-3.6841,-3.6682,-3.6766,-3.6785,-3.6198,-3.5826,-3.5511,-3.5033,-3.4754,-3.4324,-3.3884,-3.3591,-3.3545,-3.3487,-3.3565,-3.3539,-3.3461,-3.3539,-3.3694,-5.7881,-5.7881,-5.7881,-5.7881,-5.7881,-5.7881,-5.7881,-5.7881,-5.7881,-5.7881,-5.7881,-5.7881,-5.7881,-5.7881,-5.7881,-5.7881,-5.7881,-5.7881,-5.7645,-5.7205,-5.69,-5.6122,-5.4903,-5.4053,-5.3337,-5.2726,-5.259,-5.2078,-5.1152,-5.0761,-4.9779,-4.8333,-4.7816,-4.7115,-4.6027,-4.568,-4.5341,-4.501,-4.4733,-4.461,-4.461,-4.461,-4.461,-4.4548,-4.4178,-4.3994,-4.3932,-4.3525,-4.291,-4.2171,-4.1955,-4.1648,-4.1001,-4.0905,-4.0782,-4.0536,-4.0505,-4.0505,-4.0505,-4.0505,-4.0505,-4.0505,-4.0505,-4.0505,-4.0505,-4.0505,-4.0505,-4.0505,-4.0505,-4.0505,-4.0505,-4.0505,-4.0505,-4.0505,-4.0505,-4.0505,-4.0505,-4.0505,-4.0505,-4.0505,-4.0505,-4.0505,-4.0382,-4.0197,-3.977,-3.9428,-3.8816,-3.7892,-3.7646,-3.7153,-3.6876,-3.663,-3.6538,-3.6538,-3.6538,-3.6662,-3.6754,-3.6815,-3.6844,-3.6809,-3.6496,-3.6433,-3.6215,-3.5425,-3.497,-3.4333,-3.3873,-3.3593,-3.3466,-3.3461,-3.3588,-3.3487,-3.3461,-3.3408,-3.3513,-5.7881,-5.7881,-5.7881,-5.7881,-5.7881,-5.7881,-5.7881,-5.7881,-5.7881,-5.7881,-5.7881,-5.7881,-5.7881,-5.7881,-5.7881,-5.7881,-5.7881,-5.7881,-5.7881,-5.7645,-5.7239,-5.6459,-5.5435,-5.3663,-5.2425,-5.1569,-5.1359,-5.1112,-5.0865,-5.0294,-4.9521,-4.8694,-4.8031,-4.7352,-4.6696,-4.6018,-4.5803,-4.5618,-4.5033,-4.4733,-4.4702,-4.461,-4.461,-4.461,-4.4579,-4.4517,-4.4486,-4.4387,-4.3864,-4.2848,-4.2571,-4.2232,-4.1771,-4.1648,-4.137,-4.0843,-4.0659,-4.0751,-4.0659,-4.0843,-4.0812,-4.0843,-4.0843,-4.0597,-4.0812,-4.0905,-4.0812,-4.0689,-4.0659,-4.0597,-4.0536,-4.0505,-4.0505,-4.0505,-4.0505,-4.0505,-4.0505,-4.0505,-4.0505,-4.0505,-4.0505,-4.0505,-4.0505,-4.0443,-4.0136,-3.9801,-3.9493,-3.8785,-3.8138,-3.7646,-3.7215,-3.6938,-3.6692,-3.6507,-3.6538,-3.6538,-3.6631,-3.6693,-3.6754,-3.6723,-3.6721,-3.672,-3.6472,-3.5751,-3.524,-3.4547,-3.4101,-3.3923,-3.3787,-3.3855,-3.3814,-3.3599,-3.3504,-3.3493,-3.3477,-5.7881,-5.7881,-5.7881,-5.7881,-5.7881,-5.7881,-5.7881,-5.7881,-5.7881,-5.7881,-5.7881,-5.7881,-5.7881,-5.7881,-5.7881,-5.7881,-5.7881,-5.7881,-5.7881,-5.7848,-5.7746,-5.6808,-5.5499,-5.3908,-5.2631,-5.1853,-5.121,-5.0805,-5.026,-4.9947,-4.9456,-4.8655,-4.843,-4.7989,-4.7373,-4.7127,-4.6788,-4.6326,-4.5649,-4.5341,-4.5287,-4.4849,-4.461,-4.461,-4.4641,-4.461,-4.461,-4.461,-4.4271,-4.3408,-4.2848,-4.254,-4.2386,-4.2355,-4.2202,-4.2017,-4.1986,-4.2017,-4.2017,-4.1986,-4.2017,-4.2048,-4.1925,-4.2048,-4.2012,-4.2048,-4.1801,-4.1494,-4.1309,-4.1093,-4.0628,-4.0505,-4.0505,-4.0505,-4.0505,-4.0505,-4.0505,-4.0505,-4.0505,-4.0505,-4.0505,-4.0505,-4.0505,-4.0474,-4.0413,-4.0166,-3.9797,-3.9398,-3.8752,-3.8108,-3.7646,-3.7246,-3.6938,-3.6661,-3.6507,-3.6507,-3.6538,-3.6538,-3.6569,-3.6569,-3.6662,-3.6784,-3.6321,-3.5763,-3.5628,-3.512,-3.481,-3.4585,-3.4491,-3.4234,-3.4073,-3.3904,-3.3661,-3.3548,-3.354,-5.7881,-5.7881,-5.7881,-5.7881,-5.7881,-5.7881,-5.7881,-5.7881,-5.7881,-5.7881,-5.7881,-5.7881,-5.7881,-5.7881,-5.7881,-5.7881,-5.7881,-5.7881,-5.7881,-5.7808,-5.748,-5.6449,-5.5013,-5.3808,-5.2708,-5.1542,-5.0866,-5.0294,-4.9837,-4.9537,-4.9056,-4.8697,-4.8604,-4.8419,-4.805,-4.7711,-4.7434,-4.6973,-4.6388,-4.6018,-4.5957,-4.5649,-4.528,-4.5095,-4.5003,-4.491,-4.4671,-4.461,-4.4394,-4.4024,-4.3618,-4.331,-4.3033,-4.3033,-4.2879,-4.2663,-4.2602,-4.2602,-4.2602,-4.2602,-4.2602,-4.2602,-4.2602,-4.2602,-4.2571,-4.2602,-4.2355,-4.2109,-4.1801,-4.1401,-4.1032,-4.0724,-4.0536,-4.0505,-4.0505,-4.0505,-4.0505,-4.0505,-4.0505,-4.0505,-4.0505,-4.0505,-4.0505,-4.0505,-4.0505,-4.0413,-4.0197,-3.9828,-3.9431,-3.8723,-3.8046,-3.7584,-3.7215,-3.6907,-3.6599,-3.6507,-3.6507,-3.6507,-3.6507,-3.6507,-3.66,-3.6724,-3.6507,-3.6136,-3.6007,-3.5786,-3.5445,-3.5103,-3.4813,-3.4591,-3.4438,-3.4316,-3.4132,-3.3799,-3.3768,-5.7881,-5.7881,-5.7881,-5.7881,-5.7881,-5.7881,-5.7881,-5.7881,-5.7881,-5.7881,-5.7881,-5.7881,-5.7881,-5.7881,-5.7881,-5.7881,-5.7881,-5.7881,-5.7772,-5.7443,-5.6811,-5.5706,-5.4398,-5.3574,-5.2449,-5.1107,-5.0198,-4.9963,-4.9789,-4.9211,-4.883,-4.8758,-4.8696,-4.8604,-4.8419,-4.8019,-4.7742,-4.7619,-4.7034,-4.6726,-4.6665,-4.6449,-4.6111,-4.5772,-4.5719,-4.5372,-4.4979,-4.4764,-4.4702,-4.4579,-4.461,-4.424,-4.3778,-4.3716,-4.3464,-4.3063,-4.3033,-4.3002,-4.2879,-4.3002,-4.291,-4.2971,-4.294,-4.2817,-4.2971,-4.3033,-4.294,-4.2725,-4.2171,-4.1863,-4.1432,-4.097,-4.0566,-4.0505,-4.0505,-4.0505,-4.0505,-4.0505,-4.0505,-4.0505,-4.0505,-4.0505,-4.0505,-4.0505,-4.0505,-4.0505,-4.032,-4.0166,-3.9828,-3.9339,-3.8569,-3.7861,-3.7492,-3.7184,-3.6815,-3.6507,-3.6507,-3.6507,-3.6507,-3.6507,-3.6538,-3.6631,-3.6662,-3.6507,-3.629,-3.6042,-3.5797,-3.5485,-3.5229,-3.5105,-3.5078,-3.5012,-3.4885,-3.4399,-3.4206,-5.7881,-5.7881,-5.7881,-5.7881,-5.7881,-5.7881,-5.7881,-5.7881,-5.7881,-5.7881,-5.7881,-5.7881,-5.7881,-5.7881,-5.7881,-5.7881,-5.7881,-5.7808,-5.7554,-5.6768,-5.5995,-5.5084,-5.4102,-5.3363,-5.2481,-5.1531,-5.079,-5.0482,-5.0297,-4.9835,-4.9466,-4.9404,-4.8943,-4.8604,-4.8604,-4.8481,-4.8389,-4.8266,-4.7711,-4.7404,-4.7281,-4.6942,-4.6634,-4.6388,-4.6357,-4.6018,-4.5526,-4.5372,-4.5126,-4.4726,-4.4641,-4.4671,-4.4394,-4.4332,-4.4202,-4.4079,-4.4048,-4.4079,-4.4141,-4.4048,-4.4141,-4.4018,-4.3987,-4.4172,-4.4141,-4.4048,-4.3833,-4.3562,-4.3223,-4.2602,-4.1709,-4.094,-4.0597,-4.0536,-4.0505,-4.0505,-4.0505,-4.0505,-4.0505,-4.0505,-4.0505,-4.0505,-4.0505,-4.0505,-4.0505,-4.0505,-4.0474,-4.0413,-4.0136,-3.9797,-3.9185,-3.8385,-3.7861,-3.7523,-3.6969,-3.663,-3.6507,-3.6507,-3.6507,-3.6507,-3.6507,-3.6538,-3.66,-3.6538,-3.6477,-3.6261,-3.6045,-3.6168,-3.5951,-3.5889,-3.5735,-3.5579,-3.5363,-3.4935,-3.4812,-5.7881,-5.7881,-5.7881,-5.7881,-5.7881,-5.7881,-5.7881,-5.7881,-5.7881,-5.7881,-5.7881,-5.7881,-5.7881,-5.7881,-5.7881,-5.7881,-5.7772,-5.7443,-5.6806,-5.5955,-5.5108,-5.4443,-5.3945,-5.3263,-5.2554,-5.2052,-5.1498,-5.1221,-5.1005,-5.0543,-5.0174,-5.0112,-4.9466,-4.9189,-4.9004,-4.8789,-4.8604,-4.8501,-4.8296,-4.8081,-4.7989,-4.7742,-4.7311,-4.7034,-4.6788,-4.6388,-4.608,-4.6049,-4.5865,-4.5618,-4.5495,-4.5187,-4.4733,-4.461,-4.461,-4.461,-4.461,-4.461,-4.461,-4.461,-4.4579,-4.461,-4.461,-4.461,-4.461,-4.461,-4.4486,-4.4117,-4.3685,-4.3069,-4.1771,-4.134,-4.097,-4.0536,-4.0505,-4.0505,-4.0505,-4.0505,-4.0505,-4.0505,-4.0505,-4.0505,-4.0505,-4.0505,-4.0505,-4.0505,-4.0505,-4.0443,-4.0443,-4.0105,-3.9705,-3.9059,-3.8415,-3.7831,-3.7215,-3.6784,-3.6507,-3.6507,-3.6507,-3.6507,-3.6538,-3.6538,-3.6507,-3.6476,-3.6507,-3.6476,-3.6353,-3.6476,-3.6507,-3.6292,-3.6107,-3.6014,-3.5891,-3.5737,-3.5675,-5.7881,-5.7881,-5.7881,-5.7881,-5.7881,-5.7881,-5.7881,-5.7881,-5.7881,-5.7881,-5.7881,-5.7881,-5.7881,-5.7881,-5.7881,-5.7845,-5.7443,-5.6768,-5.5955,-5.5067,-5.4221,-5.3793,-5.3533,-5.3051,-5.2695,-5.2637,-5.2144,-5.1867,-5.1682,-5.1221,-5.0851,-5.0728,-5.0174,-4.9743,-4.9528,-4.9127,-4.8758,-4.8635,-4.8543,-4.8512,-4.8543,-4.845,-4.8173,-4.7773,-4.7373,-4.6973,-4.6819,-4.6726,-4.6665,-4.6603,-4.6603,-4.5988,-4.5249,-4.488,-4.4787,-4.4825,-4.4818,-4.4764,-4.4641,-4.461,-4.461,-4.461,-4.461,-4.461,-4.461,-4.461,-4.4579,-4.4363,-4.3963,-4.3223,-4.2048,-4.1617,-4.1278,-4.0843,-4.0628,-4.0505,-4.0505,-4.0505,-4.0505,-4.0505,-4.0505,-4.0505,-4.0505,-4.0505,-4.0505,-4.0505,-4.0505,-4.0505,-4.0505,-4.0382,-3.9982,-3.9582,-3.897,-3.8108,-3.7461,-3.6815,-3.6569,-3.6507,-3.6507,-3.6507,-3.6507,-3.6507,-3.6507,-3.6507,-3.6476,-3.6507,-3.6507,-3.6507,-3.6507,-3.6507,-3.6445,-3.6261,-3.6322,-3.6476,-3.6415,-5.7881,-5.7881,-5.7881,-5.7881,-5.7881,-5.7881,-5.7881,-5.7881,-5.7881,-5.7881,-5.7881,-5.7881,-5.7881,-5.7845,-5.7881,-5.748,-5.6691,-5.5836,-5.5067,-5.419,-5.339,-5.3024,-5.298,-5.2877,-5.2729,-5.2698,-5.2513,-5.2452,-5.2329,-5.1898,-5.1559,-5.1374,-5.0851,-5.0328,-4.9928,-4.9528,-4.9189,-4.882,-4.8727,-4.8696,-4.8604,-4.8604,-4.8573,-4.8327,-4.8112,-4.7865,-4.7527,-4.7404,-4.7188,-4.6665,-4.6603,-4.648,-4.6326,-4.6265,-4.5988,-4.5557,-4.5434,-4.5249,-4.488,-4.4695,-4.4641,-4.461,-4.4733,-4.4702,-4.4702,-4.4702,-4.4818,-4.4641,-4.4209,-4.3531,-4.3316,-4.2386,-4.1678,-4.1309,-4.0905,-4.0536,-4.0505,-4.0505,-4.0505,-4.0505,-4.0505,-4.0505,-4.0505,-4.0505,-4.0505,-4.0505,-4.0505,-4.0505,-4.0505,-4.0413,-4.0197,-3.9797,-3.9462,-3.8539,-3.7677,-3.703,-3.6569,-3.6507,-3.6507,-3.6507,-3.6507,-3.6507,-3.6507,-3.6507,-3.6507,-3.6507,-3.6507,-3.6507,-3.6507,-3.6507,-3.6507,-3.6507,-3.6507,-3.6507,-3.6507,-5.7881,-5.7881,-5.7881,-5.7881,-5.7881,-5.7881,-5.7881,-5.7881,-5.7881,-5.7881,-5.7881,-5.7881,-5.7625,-5.7331,-5.7218,-5.6503,-5.5434,-5.4902,-5.4136,-5.3346,-5.2922,-5.2729,-5.2729,-5.2729,-5.2729,-5.2698,-5.2698,-5.2729,-5.2698,-5.2421,-5.2206,-5.2052,-5.1559,-5.1036,-5.0728,-5.0389,-4.9866,-4.9312,-4.9158,-4.8974,-4.8666,-4.8635,-4.8604,-4.8604,-4.8604,-4.845,-4.8235,-4.8142,-4.7989,-4.7742,-4.765,-4.765,-4.7619,-4.7496,-4.7157,-4.6357,-4.6111,-4.5988,-4.568,-4.5618,-4.568,-4.5688,-4.5588,-4.5618,-4.5618,-4.568,-4.5557,-4.5434,-4.5003,-4.4486,-4.4148,-4.3156,-4.2386,-4.1678,-4.1247,-4.0874,-4.0628,-4.0536,-4.0505,-4.0505,-4.0505,-4.0505,-4.0505,-4.0505,-4.0505,-4.0505,-4.0505,-4.0505,-4.0505,-4.0413,-4.029,-4.0074,-3.9644,-3.8785,-3.7954,-3.7338,-3.6661,-3.6538,-3.6507,-3.6507,-3.6507,-3.6507,-3.6507,-3.6507,-3.6507,-3.6507,-3.6507,-3.6507,-3.6507,-3.6507,-3.6507,-3.6507,-3.6507,-3.6507,-3.6507,-5.7881,-5.7881,-5.7881,-5.7881,-5.7881,-5.7665,-5.7625,-5.7591,-5.7406,-5.726,-5.7406,-5.7331,-5.692,-5.6498,-5.6152,-5.5515,-5.4062,-5.4019,-5.3608,-5.2922,-5.2743,-5.2729,-5.2729,-5.2729,-5.2729,-5.2729,-5.2729,-5.2729,-5.2729,-5.2667,-5.2698,-5.2513,-5.2113,-5.1805,-5.1528,-5.1097,-5.0513,-5.0112,-4.9866,-4.9558,-4.9158,-4.8881,-4.882,-4.8789,-4.8696,-4.8604,-4.8543,-4.8512,-4.8512,-4.8481,-4.8481,-4.8543,-4.8573,-4.8604,-4.8081,-4.7219,-4.6911,-4.6757,-4.6573,-4.6511,-4.6388,-4.6357,-4.6542,-4.6573,-4.6511,-4.6388,-4.648,-4.6511,-4.6111,-4.5557,-4.5064,-4.4271,-4.3408,-4.254,-4.1955,-4.1401,-4.097,-4.0689,-4.0505,-4.0505,-4.0505,-4.0505,-4.0505,-4.0505,-4.0505,-4.0505,-4.0505,-4.0505,-4.0505,-4.0505,-4.0382,-4.0259,-3.9797,-3.897,-3.8231,-3.7677,-3.6999,-3.6538,-3.6507,-3.6507,-3.6507,-3.6507,-3.6507,-3.6507,-3.6507,-3.6507,-3.6507,-3.6507,-3.6507,-3.6507,-3.6507,-3.6507,-3.6507,-3.6507,-3.6507,-5.7881,-5.7881,-5.7881,-5.7881,-5.7808,-5.7143,-5.6768,-5.6691,-5.6074,-5.5603,-5.5836,-5.5716,-5.5676,-5.5474,-5.5393,-5.4861,-5.419,-5.3805,-5.3434,-5.2788,-5.2729,-5.2729,-5.2729,-5.2729,-5.2729,-5.2729,-5.2729,-5.2729,-5.2729,-5.2729,-5.2729,-5.2667,-5.2575,-5.2329,-5.1867,-5.1682,-5.1251,-5.0697,-5.0543,-5.0482,-5.0266,-4.9805,-4.9589,-4.9404,-4.9035,-4.8696,-4.8727,-4.8696,-4.8604,-4.8604,-4.8604,-4.8604,-4.8604,-4.8604,-4.8573,-4.8235,-4.7835,-4.725,-4.685,-4.685,-4.685,-4.688,-4.6788,-4.6634,-4.6819,-4.685,-4.6819,-4.6603,-4.6511,-4.6449,-4.608,-4.5226,-4.4548,-4.3648,-4.2725,-4.2017,-4.1432,-4.0689,-4.0536,-4.0505,-4.0505,-4.0505,-4.0505,-4.0505,-4.0505,-4.0505,-4.0505,-4.0505,-4.0505,-4.0505,-4.0505,-4.0351,-4.0166,-3.94,-3.8692,-3.8077,-3.743,-3.6753,-3.6538,-3.6507,-3.6507,-3.6507,-3.6507,-3.6507,-3.6507,-3.6507,-3.6507,-3.6507,-3.6507,-3.6507,-3.6507,-3.6507,-3.6507,-3.6507,-3.6507,-5.7881,-5.7881,-5.7881,-5.7881,-5.7808,-5.6992,-5.6614,-5.642,-5.5676,-5.5312,-5.5312,-5.5312,-5.5035,-5.4569,-5.4094,-5.3652,-5.3302,-5.3302,-5.3113,-5.2788,-5.2729,-5.2729,-5.2729,-5.2729,-5.2729,-5.2729,-5.2729,-5.2729,-5.2729,-5.2729,-5.2729,-5.2729,-5.2698,-5.2606,-5.2236,-5.2267,-5.1867,-5.1344,-5.0913,-5.0697,-5.0636,-5.042,-5.0266,-5.0205,-4.9589,-4.9281,-4.9158,-4.8789,-4.8635,-4.8604,-4.8604,-4.8604,-4.8604,-4.8604,-4.8604,-4.8573,-4.8358,-4.805,-4.7835,-4.7711,-4.765,-4.7711,-4.7711,-4.7804,-4.7742,-4.7619,-4.765,-4.7773,-4.7373,-4.7188,-4.7004,-4.6296,-4.5649,-4.4818,-4.371,-4.2817,-4.2017,-4.0966,-4.0505,-4.0505,-4.0505,-4.0505,-4.0505,-4.0505,-4.0505,-4.0505,-4.0505,-4.0505,-4.0505,-4.0505,-4.0505,-4.0474,-4.0259,-3.9893,-3.9247,-3.86,-3.7923,-3.7246,-3.663,-3.6599,-3.6507,-3.6507,-3.6507,-3.6507,-3.6507,-3.6507,-3.6507,-3.6507,-3.6507,-3.6507,-3.6507,-3.6507,-3.6507,-3.6507,-3.6507,-5.7772,-5.7588,-5.7554,-5.7554,-5.7443,-5.6387,-5.5915,-5.5836,-5.4943,-5.4611,-5.4653,-5.4569,-5.419,-5.3707,-5.3113,-5.2877,-5.2743,-5.2729,-5.2729,-5.2729,-5.2729,-5.2729,-5.2729,-5.2729,-5.2729,-5.2729,-5.2729,-5.2729,-5.2729,-5.2729,-5.2729,-5.2729,-5.2729,-5.2698,-5.2698,-5.2637,-5.2359,-5.199,-5.1559,-5.1344,-5.1251,-5.1067,-5.0974,-5.0759,-5.0359,-4.9928,-4.9835,-4.9281,-4.8943,-4.8912,-4.8696,-4.8604,-4.8604,-4.8604,-4.8604,-4.8604,-4.8512,-4.8512,-4.8419,-4.8419,-4.8604,-4.8573,-4.8389,-4.8081,-4.8142,-4.8266,-4.8081,-4.7773,-4.7773,-4.7558,-4.7496,-4.7065,-4.6696,-4.5895,-4.491,-4.3925,-4.291,-4.1955,-4.0905,-4.0505,-4.0505,-4.0505,-4.0505,-4.0505,-4.0505,-4.0505,-4.0505,-4.0505,-4.0505,-4.0505,-4.0505,-4.0505,-4.0382,-4.0105,-3.9554,-3.8939,-3.8323,-3.7738,-3.7123,-3.6661,-3.6599,-3.6538,-3.6507,-3.6507,-3.6507,-3.6507,-3.6507,-3.6507,-3.6507,-3.6507,-3.6507,-3.6507,-3.6507,-3.6507,-3.6445,-5.7406,-5.6691,-5.6691,-5.6652,-5.6575,-5.4902,-5.4232,-5.4317,-5.339,-5.3024,-5.3157,-5.2966,-5.3069,-5.2833,-5.2833,-5.2729,-5.2729,-5.2729,-5.2729,-5.2729,-5.2729,-5.2729,-5.2729,-5.2729,-5.2729,-5.2729,-5.2729,-5.2729,-5.2729,-5.2729,-5.2729,-5.2729,-5.2729,-5.2729,-5.2729,-5.2698,-5.2698,-5.2483,-5.2298,-5.2359,-5.2206,-5.1959,-5.1652,-5.1498,-5.1036,-5.0636,-5.0574,-4.9959,-4.962,-4.9589,-4.9189,-4.8789,-4.885,-4.8789,-4.8789,-4.8635,-4.8604,-4.8604,-4.8604,-4.8604,-4.8604,-4.845,-4.8204,-4.7958,-4.8019,-4.7188,-4.688,-4.7096,-4.7342,-4.7465,-4.7496,-4.7496,-4.7127,-4.6757,-4.5834,-4.491,-4.3925,-4.294,-4.1955,-4.0874,-4.0566,-4.0659,-4.0505,-4.0505,-4.0505,-4.0505,-4.0505,-4.0505,-4.0505,-4.0505,-4.0505,-4.0505,-4.0505,-4.0197,-3.9739,-3.9185,-3.8785,-3.8231,-3.7584,-3.7061,-3.6692,-3.663,-3.6507,-3.6507,-3.6507,-3.6507,-3.6507,-3.6507,-3.6507,-3.6507,-3.6507,-3.6507,-3.6414,-3.6352,-3.6352,-5.6387,-5.6498,-5.5474,-5.528,-5.5716,-5.4527,-5.3976,-5.3848,-5.3069,-5.2729,-5.2729,-5.2729,-5.2729,-5.2729,-5.2729,-5.2729,-5.2729,-5.2729,-5.2729,-5.2729,-5.2729,-5.2729,-5.2729,-5.2729,-5.2729,-5.2729,-5.2729,-5.2729,-5.2729,-5.2729,-5.2729,-5.2729,-5.2729,-5.2729,-5.2729,-5.2729,-5.2729,-5.2729,-5.2729,-5.2729,-5.2667,-5.2544,-5.2329,-5.2267,-5.1682,-5.1374,-5.1221,-5.0636,-5.042,-5.0236,-4.9959,-4.9651,-4.9312,-4.9281,-4.9097,-4.8789,-4.8758,-4.8727,-4.8635,-4.8635,-4.8604,-4.8573,-4.8358,-4.8173,-4.805,-4.7558,-4.7281,-4.725,-4.7004,-4.7065,-4.6973,-4.7004,-4.6942,-4.7065,-4.6634,-4.5711,-4.4849,-4.3833,-4.2848,-4.174,-4.1247,-4.1063,-4.0782,-4.0505,-4.0505,-4.0505,-4.0505,-4.0505,-4.0505,-4.0505,-4.0505,-4.0505,-4.0505,-4.0505,-4.0013,-3.9677,-3.9339,-3.8723,-3.8046,-3.7554,-3.7061,-3.6599,-3.6507,-3.6507,-3.6507,-3.6507,-3.6507,-3.6507,-3.6507,-3.6507,-3.6507,-3.6507,-3.6383,-3.6258,-3.6195,-5.5515,-5.5676,-5.4527,-5.4359,-5.4746,-5.3976,-5.362,-5.3521,-5.3011,-5.2729,-5.2729,-5.2729,-5.2729,-5.2729,-5.2729,-5.2729,-5.2729,-5.2729,-5.2729,-5.2729,-5.2729,-5.2729,-5.2729,-5.2729,-5.2729,-5.2729,-5.2729,-5.2729,-5.2729,-5.2729,-5.2729,-5.2729,-5.2729,-5.2729,-5.2729,-5.2729,-5.2729,-5.2729,-5.2729,-5.2729,-5.2729,-5.2698,-5.2667,-5.2637,-5.2206,-5.2052,-5.1836,-5.1374,-5.1036,-5.0913,-5.0697,-5.042,-5.0143,-4.9897,-4.9712,-4.9404,-4.922,-4.9158,-4.8974,-4.8696,-4.8635,-4.8604,-4.8296,-4.8235,-4.8173,-4.7711,-4.7065,-4.6819,-4.6634,-4.6542,-4.6449,-4.6511,-4.6757,-4.688,-4.6665,-4.5895,-4.5341,-4.451,-4.3556,-4.2571,-4.214,-4.1648,-4.1093,-4.0751,-4.0505,-4.0505,-4.0505,-4.0505,-4.0505,-4.0505,-4.0505,-4.0505,-4.0505,-4.0505,-4.0443,-4.0105,-3.9767,-3.9308,-3.8662,-3.8046,-3.7554,-3.7061,-3.6599,-3.6507,-3.6507,-3.6507,-3.6507,-3.6507,-3.6507,-3.6507,-3.6445,-3.6383,-3.6352,-3.6226,-3.5911,-5.4819,-5.4062,-5.3976,-5.3976,-5.3965,-5.3113,-5.2788,-5.2877,-5.2743,-5.2729,-5.2729,-5.2729,-5.2729,-5.2729,-5.2729,-5.2729,-5.2729,-5.2729,-5.2729,-5.2729,-5.2729,-5.2729,-5.2729,-5.2729,-5.2729,-5.2729,-5.2729,-5.2729,-5.2729,-5.2729,-5.2729,-5.2729,-5.2729,-5.2729,-5.2729,-5.2729,-5.2729,-5.2729,-5.2729,-5.2729,-5.2729,-5.2729,-5.2729,-5.2667,-5.2606,-5.2483,-5.2329,-5.199,-5.1713,-5.1621,-5.1251,-5.0944,-5.0728,-5.0667,-5.0574,-5.0451,-5.0451,-5.0205,-4.9712,-4.9035,-4.882,-4.8604,-4.8296,-4.8019,-4.765,-4.7127,-4.6726,-4.6696,-4.6326,-4.6172,-4.6111,-4.608,-4.6326,-4.6511,-4.6265,-4.6172,-4.5618,-4.5218,-4.4264,-4.3402,-4.2879,-4.2325,-4.1617,-4.1028,-4.0659,-4.0536,-4.0505,-4.0505,-4.0505,-4.0505,-4.0505,-4.0505,-4.0505,-4.0505,-4.0505,-4.0505,-4.0228,-3.9736,-3.9247,-3.86,-3.8015,-3.7461,-3.703,-3.6661,-3.6507,-3.6507,-3.6507,-3.6445,-3.6352,-3.6226,-3.6258,-3.6226,-3.6226,-3.6037,-3.5591,-5.375,-5.3934,-5.339,-5.3126,-5.3113,-5.2833,-5.2729,-5.2729,-5.2729,-5.2729,-5.2729,-5.2729,-5.2729,-5.2729,-5.2729,-5.2729,-5.2729,-5.2729,-5.2729,-5.2729,-5.2729,-5.2729,-5.2729,-5.2729,-5.2729,-5.2729,-5.2729,-5.2729,-5.2729,-5.2729,-5.2729,-5.2729,-5.2729,-5.2729,-5.2729,-5.2729,-5.2729,-5.2729,-5.2729,-5.2729,-5.2729,-5.2729,-5.2729,-5.2729,-5.2729,-5.2729,-5.2729,-5.2359,-5.2298,-5.2298,-5.1898,-5.1744,-5.1436,-5.1374,-5.119,-5.0882,-5.0728,-5.0605,-5.0359,-5.002,-4.9528,-4.8943,-4.8543,-4.8358,-4.8204,-4.765,-4.7219,-4.6726,-4.6265,-4.6049,-4.5741,-4.528,-4.5372,-4.5834,-4.5865,-4.6111,-4.5895,-4.5618,-4.5033,-4.4264,-4.3685,-4.2694,-4.1894,-4.1555,-4.1181,-4.0751,-4.0689,-4.0536,-4.0505,-4.0505,-4.0505,-4.0505,-4.0505,-4.0505,-4.0505,-4.0505,-4.0505,-4.0166,-3.9613,-3.9062,-3.8477,-3.7984,-3.7307,-3.6815,-3.663,-3.6507,-3.6258,-3.6038,-3.6005,-3.5911,-3.5655,-3.572,-3.5816,-3.5429,-3.481,-5.3024,-5.3477,-5.2935,-5.2729,-5.2729,-5.2729,-5.2729,-5.2729,-5.2729,-5.2729,-5.2729,-5.2729,-5.2729,-5.2729,-5.2729,-5.2729,-5.2729,-5.2729,-5.2729,-5.2729,-5.2729,-5.2729,-5.2729,-5.2729,-5.2729,-5.2729,-5.2729,-5.2729,-5.2729,-5.2729,-5.2729,-5.2729,-5.2729,-5.2729,-5.2729,-5.2729,-5.2729,-5.2729,-5.2729,-5.2729,-5.2729,-5.2729,-5.2729,-5.2729,-5.2729,-5.2729,-5.2729,-5.2729,-5.2729,-5.2729,-5.2637,-5.2513,-5.2144,-5.1959,-5.1805,-5.1498,-5.1159,-5.1097,-5.1036,-5.0667,-5.0112,-4.9558,-4.9343,-4.922,-4.9035,-4.8604,-4.805,-4.7434,-4.6573,-4.6018,-4.5649,-4.5103,-4.4918,-4.5341,-4.5372,-4.5618,-4.5649,-4.5311,-4.528,-4.4641,-4.4209,-4.3156,-4.2263,-4.2017,-4.1771,-4.134,-4.0905,-4.0751,-4.0566,-4.0505,-4.0505,-4.0505,-4.0505,-4.0505,-4.0505,-4.0505,-4.0505,-4.0505,-4.0043,-3.9554,-3.9154,-3.8662,-3.7831,-3.6998,-3.6809,-3.6466,-3.5874,-3.5591,-3.5302,-3.4975,-3.4639,-3.481,-3.527,-3.4909,-3.4303,-5.2729,-5.2729,-5.2729,-5.2729,-5.2729,-5.2729,-5.2729,-5.2729,-5.2729,-5.2729,-5.2729,-5.2729,-5.2729,-5.2729,-5.2729,-5.2729,-5.2729,-5.2729,-5.2729,-5.2729,-5.2729,-5.2729,-5.2729,-5.2729,-5.2729,-5.2729,-5.2729,-5.2729,-5.2729,-5.2729,-5.2729,-5.2729,-5.2729,-5.2729,-5.2729,-5.2729,-5.2729,-5.2729,-5.2729,-5.2729,-5.2729,-5.2729,-5.2729,-5.2729,-5.2729,-5.2729,-5.2729,-5.2729,-5.2729,-5.2729,-5.2698,-5.2698,-5.2667,-5.2698,-5.2698,-5.2483,-5.199,-5.1836,-5.1652,-5.1251,-5.1067,-5.0759,-5.0759,-5.0389,-4.9897,-4.9558,-4.9127,-4.8327,-4.7465,-4.6603,-4.5895,-4.5311,-4.4764,-4.4825,-4.4764,-4.4818,-4.488,-4.4918,-4.5041,-4.4795,-4.461,-4.3833,-4.294,-4.254,-4.2386,-4.1925,-4.1524,-4.1247,-4.1001,-4.0536,-4.0536,-4.0505,-4.0505,-4.0505,-4.0505,-4.0505,-4.0505,-4.0505,-4.0474,-4.0043,-3.9708,-3.9213,-3.8508,-3.7732,-3.7068,-3.6471,-3.5878,-3.5086,-3.4409,-3.407,-3.4031,-3.4201,-3.471,-3.4438,-3.3928,-5.2729,-5.2729,-5.2729,-5.2729,-5.2729,-5.2729,-5.2729,-5.2729,-5.2729,-5.2729,-5.2729,-5.2729,-5.2729,-5.2729,-5.2729,-5.2729,-5.2729,-5.2729,-5.2729,-5.2729,-5.2729,-5.2729,-5.2729,-5.2729,-5.2729,-5.2729,-5.2729,-5.2729,-5.2729,-5.2729,-5.2729,-5.2729,-5.2729,-5.2729,-5.2729,-5.2729,-5.2729,-5.2729,-5.2729,-5.2729,-5.2729,-5.2729,-5.2729,-5.2729,-5.2729,-5.2729,-5.2729,-5.2729,-5.2729,-5.2729,-5.2729,-5.2729,-5.2729,-5.2729,-5.2698,-5.2698,-5.2483,-5.2421,-5.239,-5.2206,-5.2021,-5.1959,-5.2021,-5.1405,-5.0851,-5.0359,-5.0143,-4.9312,-4.845,-4.765,-4.6819,-4.6142,-4.5403,-4.5003,-4.4856,-4.4641,-4.4702,-4.4733,-4.4825,-4.4795,-4.461,-4.4363,-4.3433,-4.3279,-4.3094,-4.2602,-4.2171,-4.1863,-4.1432,-4.1001,-4.0536,-4.0536,-4.0505,-4.0505,-4.0505,-4.0505,-4.0505,-4.0505,-4.0405,-4.0217,-3.9757,-3.9296,-3.8964,-3.8274,-3.7325,-3.6533,-3.5836,-3.5001,-3.4163,-3.3922,-3.3854,-3.3962,-3.3997,-3.3791,-3.375,-5.2729,-5.2729,-5.2729,-5.2729,-5.2729,-5.2729,-5.2729,-5.2729,-5.2729,-5.2729,-5.2729,-5.2729,-5.2729,-5.2729,-5.2729,-5.2729,-5.2729,-5.2729,-5.2729,-5.2729,-5.2729,-5.2729,-5.2729,-5.2729,-5.2729,-5.2729,-5.2729,-5.2729,-5.2729,-5.2729,-5.2729,-5.2729,-5.2729,-5.2729,-5.2729,-5.2729,-5.2729,-5.2729,-5.2729,-5.2729,-5.2729,-5.2729,-5.2729,-5.2729,-5.2729,-5.2729,-5.2729,-5.2729,-5.2729,-5.2729,-5.2729,-5.2729,-5.2729,-5.2729,-5.2729,-5.2698,-5.2698,-5.2637,-5.2637,-5.2667,-5.2667,-5.2729,-5.2698,-5.2298,-5.1775,-5.1282,-5.0913,-5.0328,-4.9558,-4.8758,-4.7927,-4.7096,-4.6265,-4.5464,-4.5033,-4.4641,-4.461,-4.461,-4.461,-4.461,-4.4517,-4.4425,-4.4178,-4.4055,-4.3809,-4.3285,-4.2848,-4.2602,-4.2078,-4.1494,-4.0905,-4.0566,-4.0536,-4.0505,-4.0505,-4.0505,-4.0505,-4.0401,-4.0126,-3.9943,-3.9581,-3.9221,-3.8797,-3.8121,-3.7387,-3.6645,-3.5921,-3.494,-3.4136,-3.3987,-3.3845,-3.3703,-3.3675,-3.3542,-3.3542,-5.2729,-5.2729,-5.2729,-5.2729,-5.2729,-5.2729,-5.2729,-5.2729,-5.2729,-5.2729,-5.2729,-5.2729,-5.2729,-5.2729,-5.2729,-5.2729,-5.2729,-5.2729,-5.2729,-5.2729,-5.2729,-5.2729,-5.2729,-5.2729,-5.2729,-5.2729,-5.2729,-5.2729,-5.2729,-5.2729,-5.2729,-5.2729,-5.2729,-5.2729,-5.2729,-5.2729,-5.2729,-5.2729,-5.2729,-5.2729,-5.2729,-5.2729,-5.2729,-5.2729,-5.2729,-5.2729,-5.2729,-5.2729,-5.2729,-5.2729,-5.2729,-5.2729,-5.2729,-5.2729,-5.2729,-5.2729,-5.2729,-5.2729,-5.2729,-5.2729,-5.2729,-5.2729,-5.2698,-5.2606,-5.2267,-5.199,-5.1621,-5.1282,-5.0543,-4.9928,-4.9189,-4.7989,-4.6973,-4.6111,-4.5464,-4.4941,-4.461,-4.461,-4.461,-4.461,-4.4579,-4.4486,-4.4456,-4.4302,-4.424,-4.3809,-4.3624,-4.3377,-4.2817,-4.2171,-4.1555,-4.0874,-4.0597,-4.0536,-4.0505,-4.0505,-4.0505,-4.0366,-4.0021,-3.9814,-3.9672,-3.9152,-3.8604,-3.7978,-3.7352,-3.6733,-3.5978,-3.5089,-3.4489,-3.4305,-3.4107,-3.3586,-3.341,-3.3466,-3.3361,-5.2729,-5.2729,-5.2729,-5.2729,-5.2729,-5.2729,-5.2729,-5.2729,-5.2729,-5.2729,-5.2729,-5.2729,-5.2729,-5.2729,-5.2729,-5.2729,-5.2729,-5.2729,-5.2729,-5.2729,-5.2729,-5.2729,-5.2729,-5.2729,-5.2729,-5.2729,-5.2729,-5.2729,-5.2729,-5.2729,-5.2729,-5.2729,-5.2729,-5.2729,-5.2729,-5.2729,-5.2729,-5.2729,-5.2729,-5.2729,-5.2729,-5.2729,-5.2729,-5.2729,-5.2729,-5.2729,-5.2729,-5.2729,-5.2729,-5.2729,-5.2729,-5.2729,-5.2729,-5.2729,-5.2729,-5.2729,-5.2729,-5.2729,-5.2729,-5.2729,-5.2729,-5.2729,-5.2729,-5.2729,-5.2637,-5.2544,-5.2329,-5.199,-5.1621,-5.1036,-5.0297,-4.9004,-4.7773,-4.688,-4.5957,-4.5341,-4.4726,-4.4641,-4.4641,-4.461,-4.461,-4.461,-4.461,-4.4579,-4.4517,-4.4456,-4.4394,-4.4178,-4.3655,-4.3069,-4.2386,-4.1709,-4.0812,-4.0628,-4.0597,-4.0597,-4.0659,-4.0327,-3.995,-3.9809,-3.9595,-3.9066,-3.8362,-3.7957,-3.7395,-3.6958,-3.6392,-3.5589,-3.5048,-3.4871,-3.4506,-3.4084,-3.3859,-3.3859,-3.355,-5.2729,-5.2729,-5.2729,-5.2729,-5.2729,-5.2729,-5.2729,-5.2729,-5.2729,-5.2729,-5.2729,-5.2729,-5.2729,-5.2729,-5.2729,-5.2729,-5.2729,-5.2729,-5.2729,-5.2729,-5.2729,-5.2729,-5.2729,-5.2729,-5.2729,-5.2729,-5.2729,-5.2729,-5.2729,-5.2729,-5.2729,-5.2729,-5.2729,-5.2729,-5.2729,-5.2729,-5.2729,-5.2729,-5.2729,-5.2729,-5.2729,-5.2729,-5.2729,-5.2729,-5.2729,-5.2729,-5.2729,-5.2729,-5.2729,-5.2729,-5.2729,-5.2729,-5.2729,-5.2729,-5.2729,-5.2729,-5.2729,-5.2729,-5.2698,-5.2667,-5.2637,-5.2606,-5.2667,-5.2667,-5.2729,-5.2606,-5.2606,-5.2329,-5.2329,-5.1836,-5.1436,-5.0389,-4.9343,-4.8419,-4.725,-4.6326,-4.5464,-4.4856,-4.4733,-4.461,-4.461,-4.461,-4.461,-4.461,-4.4548,-4.4548,-4.461,-4.461,-4.4178,-4.3809,-4.3223,-4.2663,-4.1863,-4.1217,-4.1155,-4.1028,-4.0905,-4.0471,-3.9899,-3.9053,-3.8538,-3.8472,-3.819,-3.7812,-3.7575,-3.746,-3.6853,-3.608,-3.5723,-3.5583,-3.5124,-3.4646,-3.4478,-3.4309,-3.4084,-5.2729,-5.2729,-5.2729,-5.2729,-5.2729,-5.2729,-5.2729,-5.2729,-5.2729,-5.2729,-5.2729,-5.2729,-5.2729,-5.2729,-5.2729,-5.2729,-5.2729,-5.2729,-5.2729,-5.2729,-5.2729,-5.2729,-5.2729,-5.2729,-5.2729,-5.2729,-5.2729,-5.2729,-5.2729,-5.2729,-5.2729,-5.2729,-5.2729,-5.2729,-5.2729,-5.2729,-5.2729,-5.2729,-5.2729,-5.2729,-5.2729,-5.2729,-5.2729,-5.2729,-5.2729,-5.2729,-5.2729,-5.2729,-5.2729,-5.2729,-5.2729,-5.2729,-5.2729,-5.2729,-5.2729,-5.2729,-5.2729,-5.2637,-5.2544,-5.2452,-5.239,-5.239,-5.2483,-5.2483,-5.2483,-5.2544,-5.2544,-5.2637,-5.2637,-5.2513,-5.2113,-5.1621,-5.0636,-4.9435,-4.8204,-4.7004,-4.5988,-4.5133,-4.4918,-4.4733,-4.4641,-4.4641,-4.461,-4.461,-4.461,-4.461,-4.461,-4.461,-4.4517,-4.424,-4.3809,-4.3562,-4.3125,-4.254,-4.1894,-4.1505,-4.1311,-4.0455,-3.9768,-3.846,-3.7558,-3.7711,-3.7758,-3.7758,-3.7558,-3.7425,-3.7263,-3.6674,-3.6419,-3.6174,-3.5752,-3.5264,-3.5189,-3.4983,-3.4759,-5.2729,-5.2729,-5.2729,-5.2729,-5.2729,-5.2729,-5.2729,-5.2729,-5.2729,-5.2729,-5.2729,-5.2729,-5.2729,-5.2729,-5.2729,-5.2729,-5.2729,-5.2729,-5.2729,-5.2729,-5.2729,-5.2729,-5.2653,-5.2653,-5.2729,-5.2698,-5.2653,-5.2698,-5.2698,-5.2729,-5.2729,-5.2729,-5.2729,-5.2729,-5.2729,-5.2729,-5.2729,-5.2729,-5.2729,-5.2729,-5.2729,-5.2729,-5.2729,-5.2729,-5.2729,-5.2729,-5.2729,-5.2729,-5.2729,-5.2729,-5.2729,-5.2729,-5.2729,-5.2729,-5.2729,-5.2729,-5.2729,-5.2513,-5.2359,-5.2144,-5.2021,-5.1559,-5.1559,-5.1559,-5.1652,-5.1898,-5.2052,-5.2421,-5.2483,-5.2575,-5.2298,-5.1959,-5.1128,-4.9651,-4.8296,-4.7096,-4.5957,-4.5557,-4.5311,-4.5003,-4.4695,-4.4671,-4.461,-4.461,-4.461,-4.461,-4.461,-4.461,-4.461,-4.4486,-4.4332,-4.4202,-4.4086,-4.3464,-4.2663,-4.2016,-4.1589,-4.0664,-3.9661,-3.8514,-3.7621,-3.7162,-3.7173,-3.7327,-3.7289,-3.7116,-3.6954,-3.6936,-3.6898,-3.6557,-3.6258,-3.592,-3.5836,-3.5695,-3.547]},{"header":{"parameterUnit":"m.s-1","parameterCategory":1,"la1":31.0,"la2":29.5877,"lo1":-88.7671,"lo2":-86.6584,"dy":0.0162,"dx":0.0185,"nx":115,"ny":88,"refTime":"2025-04-16T00:00:00:Z","depth":0,"parameterNumber":3,"parameterNumberName":"V-component_of_WINDS"},"data":[0.0,0.0,0.0,0.0,0.0,0.0,0.0,0.0,0.0,0.0,0.0,0.0,0.0,0.0,0.0,0.0,0.0,0.0,0.0,0.0,0.0,0.0,0.0,0.0,0.0,0.0,0.0,0.0,0.0,0.0,0.0,0.0,0.0,0.0,0.0,0.0,0.0,0.0,0.0,0.0,0.0,0.0,0.0,0.0,0.0,0.0,0.0,0.0,0.0,0.0,0.0,0.0,0.0,0.0,0.0,0.0,0.0,0.0,0.0,0.0,0.0,0.0,0.0,0.0,0.0,0.0,0.0,0.0,0.0,0.0,0.0,0.0,0.0,0.0,0.0,0.0,0.0,0.0,0.0,0.0,0.0,0.0,0.0,0.0,0.0,0.0,0.0,0.0,0.0,0.0,0.0,0.0,0.0,0.0,0.0,0.0,0.0,0.0,0.0,0.0,0.0,0.0,0.0,0.0,0.0,0.0,0.0,0.0,0.0,0.0,0.0,0.0,0.0,0.0,0.0,0.0,0.0,0.0,0.0,0.0,0.0,0.0,0.0,0.0,0.0,0.0,0.0,0.0,0.0,0.0,0.0,0.0,0.0,0.0,0.0,0.0,0.0,0.0,0.0,0.0,0.0,0.0,0.0,0.0,0.0,0.0,0.0,0.0,0.0,0.0,0.0,0.0,0.0,0.0,0.0,0.0,0.0,0.0,0.0,0.0,0.0,0.0,0.0,0.0,0.0,0.0,0.0,0.0,0.0,0.0,0.0,0.0,0.0,0.0,0.0,0.0,0.0,0.0,0.0,0.0,0.0,0.0,0.0,0.0,0.0,0.0,0.0,0.0,0.0,0.0,0.0,0.0,0.0,0.0,0.0,0.0,0.0,0.0,0.0,0.0,0.0,0.0,0.0,0.0,0.0,0.0,0.0,0.0,0.0,0.0,0.0,0.0,0.0,0.0,0.0,0.0,0.0,0.0,0.0,0.0,0.0,0.0,0.0,0.0,0.0,0.0,0.0,0.0,0.0,0.0,0.0,0.0,0.0,0.0,0.0,0.0,0.0,0.0,0.0,0.0,0.0,0.0,0.0,0.0,0.0,0.0,0.0,0.0,0.0,0.0,0.0,0.0,0.0,0.0,0.0,0.0,0.0,0.0,0.0,0.0,0.0,0.0,0.0,0.0,0.0,0.0,0.0,0.0,0.0,0.0,0.0,0.0,0.0,0.0,0.0,0.0,0.0,0.0,0.0,0.0,0.0,0.0,0.0,0.0,0.0,0.0,0.0,0.0,0.0,0.0,0.0,0.0,0.0,0.0,0.0,0.0,0.0,0.0,0.0,0.0,0.0,0.0,0.0,0.0,0.0,0.0,0.0,0.0,0.0,0.0,0.0,0.0,0.0,0.0,0.0,0.0,0.0,0.0,0.0,0.0,0.0,0.0,0.0,0.0,0.0,0.0,0.0,0.0,0.0,0.0,0.0,0.0,0.0,0.0,0.0,0.0,0.0,0.0,0.0,0.0,0.0,0.0,0.0,0.0,0.0,0.0,0.0,0.0,0.0,0.0,0.0,0.0,0.0,0.0,0.0,0.0,0.0,0.0,0.0,0.0,0.0,0.0,0.0,0.0,0.0,0.0,0.0,0.0,0.0,0.0,0.0,0.0,0.0,0.0,0.0,0.0,0.0,0.0,0.0,0.0,0.0,0.0,0.0,0.0,0.0,0.0,0.0,0.0,0.0,0.0,0.0,0.0,0.0,0.0,0.0,0.0,0.0,0.0,0.0,0.0,0.0,0.0,0.0,0.0,0.0,0.0,0.0,0.0,0.0,0.0,0.0,0.0,0.0,0.0,0.0,0.0,0.0,0.0,0.0,0.0,0.0,0.0,0.0,0.0,0.0,0.0,0.0,0.0,0.0,0.0,0.0,0.0,0.0,0.0,0.0,0.0,0.0,0.0,0.0,0.0,0.0,0.0,0.0,0.0,0.0,0.0,0.0,0.0,0.0,0.0,0.0,0.0,0.0,0.0,0.0,0.0,0.0,0.0,0.0,0.0,0.0,0.0,0.0,0.0,0.0,0.0,0.0,0.0,0.0,0.0,0.0,0.0,0.0,0.0,0.0,0.0,0.0,0.0,0.0,0.0,0.0,0.0,0.0,0.0,0.0,0.0,0.0,0.0,0.0,0.0,0.0,0.0,0.0,0.0,0.0,0.0,0.0,0.0,0.0,0.0,0.0,0.0,0.0,0.0,0.0,0.0,0.0,0.0,0.0,0.0,0.0,0.0,0.0,0.0,0.0,0.0,0.0,0.0,0.0,0.0,0.0,0.0,0.0,0.0,0.0,0.0,0.0,0.0,0.0,0.0,0.0,0.0,0.0,0.0,0.0,0.0,0.0,0.0,0.0,0.0,0.0,0.0,0.0,0.0,0.0,0.0,0.0,0.0,0.0,0.0,0.0,0.0,0.0,0.0,0.0,0.0,0.0,0.0,0.0,0.0,0.0,0.0,0.0,0.0,0.0,0.0,0.0,0.0,0.0,0.0,0.0,0.0,0.0,0.0,0.0,0.0,0.0,0.0,0.0,0.0,0.0,0.0,0.0,0.0,0.0,0.0,0.0,0.0,0.0,0.0,0.0,0.0,0.0,0.0,0.0,0.0,0.0,0.0,0.0,0.0,0.0,0.0,0.0,0.0,0.0,0.0,0.0,0.0,0.0,0.0,0.0,0.0,0.0,0.0,0.0,0.0,0.0,0.0,0.0,0.0,0.0,0.0,0.0,0.0,0.0,0.0,0.0,0.0,0.0,0.0,0.0,0.0,0.0,0.0,0.0,0.0,0.0,0.0,0.0,0.0,0.0,0.0,0.0,0.0,0.0,0.0,0.0,0.0,0.0,0.0,0.0,0.0,0.0,0.0,0.0,0.0,0.0,0.0,0.0,0.0,0.0,0.0,0.0,0.0,0.0,0.0,0.0,0.0,0.0,0.0,0.0,0.0,0.0,0.0,0.0,0.0,0.0,0.0,0.0,0.0,0.0,0.0,0.0,0.0,0.0,0.0,0.0,0.0,0.0,0.0,0.0,0.0,0.0,0.0,0.0,0.0,0.0,0.0,0.0,0.0,0.0,0.0,0.0,0.0,0.0,0.0,0.0,0.0,0.0,0.0,0.0,0.0,0.0,0.0,0.0,0.0,0.0,0.0,0.0,0.0,0.0,0.0,0.0,0.0,0.0,0.0,0.0,0.0,0.0,0.0,0.0,0.0,0.0,0.0,0.0,0.0,0.0,0.0,0.0,0.0,0.0,0.0,0.0,0.0,0.0,0.0,0.0,0.0,0.0,0.0,0.0,0.0,0.0,0.0,0.0,0.0,0.0,0.0,0.0,0.0,0.0,0.0,0.0,0.0,0.0,0.0,0.0,0.0,0.0,0.0,0.0,0.0,0.0,0.0,0.0,0.0,0.0,0.0,0.0,0.0,0.0,0.0,0.0,0.0,0.0,0.0,0.0,0.0,0.0,0.0,0.0,0.0,0.0,0.0,0.0,0.0,0.0,0.0,0.0,0.0,0.0,0.0,0.0,0.0,0.0,0.0,0.0,0.0,0.0,0.0,0.0,0.0,0.0,0.0,0.0,0.0,0.0,0.0,0.0,0.0,0.0,0.0,0.0,0.0,0.0,0.0,0.0,0.0,0.0,0.0,0.0,0.0,0.0,0.0,0.0,0.0,0.0,0.0,0.0,0.0,0.0,0.0,0.0,0.0,0.0,0.0,0.0,0.0,0.0,0.0,0.0,0.0,0.0,0.0,0.0,0.0,0.0,0.0,0.0,0.0,0.0,0.0,0.0,0.0,0.0,0.0,0.0,0.0,0.0,0.0,0.0,0.0,0.0,0.0,0.0,0.0,0.0,0.0,0.0,0.0,0.0,0.0,0.0,0.0,0.0,0.0,0.0,0.0,0.0,0.0,0.0,0.0,0.0,0.0,0.0,0.0,0.0,0.0,0.0,0.0,0.0,0.0,0.0,0.0,0.0,0.0,0.0,0.0,0.0,0.0,0.0,0.0,0.0,0.0,0.0,0.0,0.0,0.0,0.0,0.0,0.0,0.0,0.0,0.0,0.0,0.0,0.0,0.0,0.0,0.0,0.0,0.0,0.0,0.0,0.0,0.0,0.0,0.0,0.0,0.0,0.0,0.0,0.0,0.0,0.0,0.0,0.0,0.0,0.0,0.0,0.0,0.0,0.0,0.0,0.0,0.0,0.0,0.0,0.0,0.0,0.0,0.0,0.0,0.0,0.0,0.0,1.1616,0.0,0.0,0.0,0.0,0.0,0.0,0.0,0.0,0.0,0.0,0.0,0.0,0.0,0.0,0.0,0.0,0.0,0.0,0.0,0.0,0.0,0.0,0.0,0.0,0.0,0.0,0.0,0.0,0.0,0.0,0.0,0.0,0.0,0.0,0.0,0.0,0.0,0.0,0.0,0.0,0.0,0.0,0.0,0.0,0.0,0.0,0.0,0.0,0.0,0.0,0.0,0.0,0.0,0.0,0.0,0.0,0.0,0.0,0.0,0.0,0.0,0.0,0.0,0.0,0.0,0.0,0.0,0.0,0.0,0.0,0.0,0.0,0.0,0.0,0.0,0.0,0.0,0.0,0.0,0.0,0.0,0.0,0.0,0.0,0.0,0.0,0.0,0.0,0.0,0.0,0.0,0.0,0.0,0.0,0.0,0.0,0.0,0.0,0.0,0.0,0.0,0.0,0.0,0.0,0.0,0.0,0.0,0.0,0.0,0.0,1.2067,1.2067,1.2067,1.2043,1.1883,0.0,0.0,0.0,0.0,0.0,0.0,0.0,0.0,0.0,0.0,0.0,0.0,0.0,0.0,0.0,0.0,0.0,0.0,0.0,0.0,0.0,0.0,0.0,0.0,0.0,0.0,0.0,0.0,0.0,0.0,0.0,0.0,0.0,0.0,0.0,0.0,0.0,0.0,0.0,0.0,0.0,0.0,0.0,0.0,0.0,0.0,0.0,0.0,0.0,0.0,0.0,0.0,0.0,0.0,0.0,0.0,0.0,0.0,0.0,0.0,0.0,0.0,0.0,0.0,0.0,0.0,0.0,0.0,0.0,0.0,0.0,0.0,0.0,0.0,0.0,0.0,0.0,0.0,0.0,0.0,0.0,0.0,0.0,0.0,0.0,0.0,0.0,0.0,0.0,0.0,0.0,0.0,0.0,0.0,0.0,0.0,0.0,0.0,0.0,0.0,0.0,0.0,0.0,0.0,0.0,0.0,0.0,0.0,0.0,0.0,0.0,0.0,1.2351,1.2339,1.2339,0.0,0.0,0.0,0.0,0.0,0.0,0.0,0.0,0.0,0.0,0.0,0.0,0.0,0.0,0.0,0.0,0.0,0.0,0.0,0.0,0.0,0.0,0.0,0.0,0.0,0.0,0.0,0.0,0.0,0.0,0.0,0.0,0.0,0.0,0.0,0.0,0.0,0.0,0.0,0.0,0.0,0.0,0.0,0.0,0.0,0.0,0.0,0.0,0.0,0.0,0.0,0.0,0.0,0.0,0.0,0.0,0.0,0.0,0.0,0.0,0.0,0.0,0.0,0.0,0.0,0.0,0.0,0.0,0.0,0.0,0.0,0.0,0.0,0.0,0.0,0.0,0.0,0.0,0.0,0.0,0.0,0.0,0.0,0.0,0.0,0.0,0.0,0.0,0.0,0.0,0.0,0.0,0.0,0.0,0.0,0.0,0.0,0.0,0.0,0.0,0.0,0.0,0.0,0.0,0.0,0.0,0.0,0.0,0.0,0.0,1.2612,1.3337,1.3133,0.0,1.3004,0.0,0.0,0.0,0.0,0.0,0.0,0.0,0.0,0.0,0.0,0.0,0.0,0.0,0.0,0.0,0.0,0.0,0.0,0.0,0.0,0.0,0.0,0.0,0.0,0.0,0.0,0.0,0.0,0.0,0.0,0.0,0.0,0.0,0.0,0.0,0.0,0.0,0.0,0.0,0.0,0.0,0.0,0.0,0.0,0.0,0.0,0.0,0.0,0.0,0.0,0.0,0.0,0.0,0.0,0.0,0.0,0.0,0.0,0.0,0.0,0.0,0.0,0.0,0.0,0.0,0.0,0.0,0.0,0.0,0.0,0.0,0.0,0.0,0.0,0.0,0.0,0.0,0.0,0.0,0.0,0.0,0.0,0.0,0.0,0.0,0.0,0.0,0.0,0.0,0.0,0.0,0.0,0.0,0.0,0.0,0.0,0.0,0.0,0.0,0.0,0.0,0.0,0.0,0.0,0.0,0.0,0.0,0.0,0.0,0.0,0.0,1.3035,1.298,1.3009,0.0,0.0,0.0,0.0,0.0,0.0,0.0,0.0,0.0,0.0,0.0,0.0,0.0,0.0,0.0,0.0,0.0,0.0,0.0,0.0,0.0,0.0,0.0,0.0,0.0,0.0,0.0,0.0,0.0,0.0,0.0,0.0,0.0,0.0,0.0,0.0,0.0,0.0,0.0,0.0,0.0,0.0,0.0,0.0,0.0,0.0,0.0,0.0,0.0,0.0,0.0,0.0,0.0,0.0,0.0,0.0,0.0,0.0,0.0,0.0,0.0,0.0,0.0,0.0,0.0,0.0,0.0,0.0,0.0,0.0,0.0,0.0,0.0,0.0,0.0,0.0,0.0,0.0,0.0,0.0,0.0,0.0,0.0,0.0,0.0,0.0,0.0,0.0,0.0,0.0,0.0,0.0,0.0,0.0,0.0,0.0,0.0,0.0,0.0,0.0,0.0,0.0,0.0,0.0,0.0,0.0,0.0,0.0,0.0,0.0,1.282,0.0,1.3055,1.3178,1.3169,1.3036,0.0,0.0,0.0,0.0,0.0,0.0,0.0,0.0,0.0,0.0,0.0,0.0,0.0,0.0,0.0,0.0,0.0,0.0,0.0,0.0,0.0,0.0,0.0,0.0,0.0,0.0,0.0,0.0,0.0,0.0,0.0,0.0,0.0,0.0,0.0,0.0,0.0,0.0,0.0,0.0,0.0,0.0,0.0,0.0,0.0,0.0,0.0,0.0,0.0,0.0,0.0,0.0,0.0,0.0,0.0,0.0,0.0,0.0,0.0,0.0,0.0,0.0,0.0,0.0,0.0,0.0,0.0,0.0,0.0,0.0,0.0,0.0,0.0,0.0,0.0,0.0,0.0,0.0,0.0,0.0,0.0,0.0,0.0,0.0,0.0,0.0,0.0,0.0,0.0,0.0,0.0,0.0,0.0,0.0,0.0,0.0,0.0,0.0,0.0,0.0,0.0,0.0,0.0,0.0,0.0,0.0,0.0,0.0,0.0,1.3592,1.338,1.3975,1.4022,1.3679,0.0,0.0,0.0,0.0,0.0,0.0,0.0,0.0,0.0,0.0,0.0,0.0,0.0,0.0,0.0,0.0,0.0,0.0,0.0,0.0,0.0,0.0,0.0,0.0,0.0,0.0,0.0,0.0,0.0,0.0,0.0,0.0,0.0,0.0,0.0,0.0,0.0,0.0,0.0,0.0,0.0,0.0,0.0,0.0,0.0,0.0,0.0,0.0,0.0,0.0,0.0,0.0,0.0,0.0,0.0,0.0,0.0,0.0,0.0,0.0,0.0,0.0,0.0,0.0,0.0,0.0,0.0,0.0,0.0,0.0,0.0,0.0,0.0,0.0,0.0,0.0,0.0,0.0,0.0,0.0,0.0,0.0,0.0,0.0,0.0,0.0,0.0,0.0,0.0,0.0,0.0,0.0,0.0,0.0,0.0,0.0,0.0,0.0,0.0,0.0,0.0,0.0,0.0,0.0,0.0,0.0,0.0,0.0,0.0,1.3016,1.2921,1.3302,1.4237,1.3463,1.3099,0.0,0.0,0.0,0.0,0.0,0.0,0.0,0.0,0.0,0.0,0.0,0.0,0.0,0.0,0.0,0.0,0.0,0.0,0.0,0.0,0.0,0.0,0.0,0.0,0.0,0.0,0.0,0.0,0.0,0.0,0.0,0.0,0.0,0.0,0.0,0.0,0.0,0.0,0.0,0.0,0.0,0.0,0.0,0.0,0.0,0.0,0.0,0.0,0.0,0.0,0.0,0.0,0.0,0.0,0.0,0.0,0.0,0.0,0.0,0.0,0.0,0.0,0.0,0.0,0.0,0.0,0.0,0.0,0.0,0.0,0.0,0.0,0.0,0.0,0.0,0.0,0.0,0.0,0.0,0.0,0.0,0.0,0.0,0.0,0.0,0.0,0.0,0.0,0.0,0.0,0.0,0.0,0.0,0.0,0.0,0.0,0.0,0.0,0.0,0.0,0.0,0.0,0.0,0.0,0.0,0.0,0.0,0.0,0.0,1.2725,0.0,1.3816,0.0,1.3284,1.2811,0.0,0.0,0.0,0.0,0.0,0.0,0.0,0.0,0.0,0.0,0.0,0.0,0.0,0.0,0.0,0.0,0.0,0.0,0.0,0.0,0.0,0.0,0.0,0.0,0.0,0.0,0.0,0.0,0.0,0.0,0.0,0.0,0.0,0.0,0.0,0.0,0.0,0.0,0.0,0.0,0.0,0.0,0.0,0.0,0.0,0.0,0.0,0.0,0.0,0.0,0.0,0.0,0.0,0.0,0.0,0.0,0.0,0.0,0.0,0.0,0.0,0.0,0.0,0.0,0.0,0.0,0.0,0.0,0.0,0.0,0.0,0.0,0.0,0.0,0.0,0.0,0.0,0.0,0.0,0.0,0.0,0.0,0.0,0.0,0.0,0.0,0.0,0.0,0.0,0.0,0.0,0.0,0.0,0.0,0.0,0.0,0.0,0.0,0.0,0.0,0.0,0.0,0.0,0.0,0.0,0.0,0.0,0.0,1.2871,1.3961,1.4809,1.4876,1.4145,1.3685,1.2891,0.0,0.0,0.0,0.0,0.0,0.0,0.0,0.0,0.0,0.0,0.0,0.0,0.0,0.0,0.0,0.0,0.0,0.0,0.0,0.0,0.0,0.0,0.0,0.0,0.0,0.0,0.0,0.0,0.0,0.0,0.0,0.0,0.0,0.0,0.0,0.0,0.0,0.0,0.0,0.0,0.0,0.0,0.0,0.0,0.0,0.0,0.0,0.0,0.0,0.0,0.0,0.0,0.0,0.0,0.0,0.0,0.0,0.0,0.0,0.0,0.0,0.0,0.0,0.0,0.0,0.0,0.0,0.0,0.0,0.0,0.0,0.0,0.0,0.0,0.0,0.0,0.0,0.0,0.0,0.0,0.0,0.0,0.0,0.0,0.0,0.0,0.0,0.0,0.0,0.0,0.0,0.0,0.0,0.0,0.0,0.0,0.0,0.0,0.0,0.0,0.0,0.0,0.0,0.0,0.0,0.0,0.0,0.0,0.0,1.3261,1.3979,1.4525,1.4791,1.347,1.292,0.0,0.0,0.0,0.0,0.0,0.0,0.0,0.0,0.0,0.0,0.0,0.0,0.0,0.0,0.0,0.0,0.0,0.0,0.0,0.0,0.0,0.0,0.0,0.0,0.0,0.0,0.0,0.0,0.0,0.0,0.0,0.0,0.0,0.0,0.0,0.0,0.0,0.0,0.0,0.0,0.0,0.0,0.0,0.0,0.0,0.0,0.0,0.0,0.0,0.0,0.0,0.0,0.0,0.0,0.0,0.0,0.0,0.0,0.0,0.0,0.0,0.0,0.0,0.0,0.0,0.0,0.0,0.0,0.0,0.0,0.0,0.0,0.0,0.0,0.0,0.0,0.0,0.0,0.0,0.0,0.0,0.0,0.0,0.0,0.0,0.0,0.0,0.0,0.0,0.0,0.0,0.0,0.0,0.0,0.0,0.0,0.0,0.0,0.0,0.0,0.0,0.0,0.0,0.0,0.0,0.0,0.0,0.0,0.0,1.427,1.4713,1.5134,1.5526,1.408,1.3414,1.3607,0.0,0.0,0.0,0.0,0.0,0.0,0.0,0.0,0.0,0.0,0.0,0.0,0.0,0.0,0.0,0.0,0.0,0.0,0.0,0.0,0.0,0.0,0.0,0.0,0.0,0.0,0.0,0.0,0.0,0.0,0.0,0.0,0.0,0.0,0.0,0.0,0.0,0.0,0.0,0.0,0.0,0.0,0.0,0.0,0.0,0.0,0.0,0.0,0.0,0.0,0.0,0.0,0.0,0.0,0.0,0.0,0.0,0.0,0.0,0.0,0.0,0.0,0.0,0.0,0.0,0.0,0.0,0.0,0.0,0.0,0.0,0.0,0.0,0.0,0.0,0.0,0.0,0.0,0.0,0.0,0.0,0.0,0.0,0.0,0.0,0.0,0.0,0.0,0.0,0.0,0.0,0.0,0.0,0.0,0.0,0.0,0.0,0.0,0.0,0.0,0.0,0.0,0.0,0.0,0.0,0.0,0.0,0.0,1.6651,1.6818,1.6687,1.6261,1.5332,1.4297,0.0,0.0,0.0,0.0,0.0,0.0,0.0,0.0,0.0,0.0,0.0,0.0,0.0,0.0,0.0,0.0,0.0,0.0,0.0,0.0,0.0,0.0,0.0,0.0,0.0,0.0,0.0,0.0,0.0,0.0,0.0,0.0,0.0,0.0,0.0,0.0,0.0,0.0,0.0,0.0,0.0,0.0,0.0,0.0,0.0,0.0,0.0,0.0,0.0,0.0,0.0,0.0,0.0,0.0,0.0,0.0,0.0,0.0,0.0,0.0,0.0,0.0,0.0,0.0,0.0,0.0,0.0,0.0,0.0,0.0,0.0,0.0,0.0,0.0,0.0,0.0,0.0,0.0,0.0,0.0,0.0,0.0,0.0,0.0,0.0,0.0,0.0,0.0,0.0,0.0,0.0,0.0,0.0,0.0,0.0,0.0,0.0,0.0,0.0,0.0,0.0,0.0,0.0,0.0,0.0,0.0,0.0,0.0,0.0,1.8523,1.9238,1.9043,1.7935,1.6398,1.5468,0.0,0.0,0.0,0.0,0.0,0.0,0.0,0.0,0.0,0.0,0.0,0.0,0.0,0.0,0.0,0.0,0.0,0.0,0.0,0.0,0.0,0.0,0.0,0.0,0.0,0.0,0.0,0.0,0.0,0.0,0.0,0.0,0.0,0.0,0.0,0.0,0.0,0.0,0.0,0.0,0.0,0.0,0.0,0.0,0.0,0.0,0.0,0.0,0.0,0.0,0.0,0.0,0.0,0.0,0.0,0.0,0.0,0.0,0.0,0.0,0.0,0.0,0.0,0.0,0.0,0.0,0.0,0.0,0.0,0.0,0.0,0.0,0.0,0.0,0.0,0.0,0.0,0.0,0.0,0.0,0.0,0.0,0.0,0.0,0.0,0.0,0.0,0.0,0.0,0.0,0.0,0.0,0.0,0.0,0.0,0.0,0.0,0.0,0.0,0.0,0.0,0.0,0.0,0.0,0.0,0.0,0.0,0.0,1.8395,1.9842,2.0684,2.0762,2.0019,1.8236,1.6896,0.0,0.0,0.0,0.0,0.0,0.0,0.0,0.0,0.0,0.0,0.0,0.0,0.0,0.0,0.0,0.0,0.0,0.0,0.0,0.0,0.0,0.0,0.0,0.0,0.0,0.0,0.0,0.0,0.0,0.0,0.0,0.0,0.0,0.0,0.0,0.0,0.0,0.0,0.0,0.0,0.0,0.0,0.0,0.0,0.0,0.0,0.0,0.0,0.0,0.0,0.0,0.0,0.0,0.0,0.0,0.0,0.0,0.0,0.0,0.0,0.0,0.0,0.0,0.0,0.0,0.0,0.0,0.0,0.0,0.0,0.0,0.0,0.0,0.0,0.0,0.0,0.0,0.0,0.0,0.0,0.0,0.0,0.0,0.0,0.0,0.0,0.0,0.0,0.0,0.0,0.0,0.0,0.0,0.0,0.0,0.0,0.0,0.0,0.0,0.0,0.0,0.0,0.0,0.0,0.0,0.0,0.0,0.0,1.9284,2.0723,2.1562,2.1992,2.1894,2.0234,1.834,0.0,0.0,0.0,0.0,0.0,0.0,0.0,0.0,0.0,0.0,0.0,0.0,0.0,0.0,0.0,0.0,0.0,0.0,0.0,0.0,0.0,0.0,0.0,0.0,0.0,0.0,0.0,0.0,0.0,0.0,0.0,0.0,0.0,0.0,0.0,0.0,0.0,0.0,0.0,0.0,0.0,0.0,0.0,0.0,0.0,0.0,0.0,0.0,0.0,0.0,0.0,0.0,0.0,0.0,0.0,0.0,0.0,0.0,0.0,0.0,0.0,0.0,0.0,0.0,0.0,0.0,0.0,0.0,0.0,0.0,0.0,0.0,0.0,0.0,0.0,0.0,0.0,0.0,0.0,0.0,0.0,0.0,0.0,0.0,0.0,0.0,0.0,0.0,0.0,0.0,0.0,0.0,0.0,0.0,0.0,0.0,0.0,0.0,0.0,0.0,0.0,0.0,0.0,0.0,0.0,0.0,0.0,0.0,2.0235,2.1582,2.2441,2.2715,2.2383,2.0371,1.8805,0.0,0.0,0.0,0.0,0.0,0.0,0.0,0.0,0.0,0.0,0.0,0.0,0.0,0.0,0.0,0.0,0.0,0.0,0.0,0.0,0.0,0.0,0.0,0.0,0.0,0.0,0.0,0.0,0.0,0.0,0.0,0.0,0.0,0.0,0.0,0.0,0.0,0.0,0.0,0.0,0.0,0.0,0.0,0.0,0.0,0.0,0.0,0.0,1.3588,0.0,0.0,0.0,0.0,0.0,0.0,0.0,0.0,0.0,0.0,0.0,0.0,0.0,0.0,0.0,0.0,0.0,0.0,0.0,0.0,0.0,0.0,0.0,0.0,0.0,0.0,0.0,0.0,0.0,0.0,0.0,0.0,0.0,0.0,0.0,0.0,0.0,0.0,0.0,0.0,0.0,0.0,0.0,0.0,0.0,0.0,0.0,0.0,0.0,0.0,0.0,0.0,0.0,0.0,0.0,0.0,0.0,0.0,0.0,2.0859,2.2148,2.2812,2.2984,2.2754,2.1073,1.959,0.0,0.0,0.0,0.0,0.0,0.0,0.0,0.0,0.0,0.0,0.0,0.0,0.0,0.0,0.0,0.0,0.0,0.0,0.0,0.0,0.0,0.0,0.0,0.0,0.0,0.0,0.0,0.0,0.0,0.0,0.0,0.0,0.0,0.0,0.0,0.0,0.0,0.0,0.0,0.0,0.0,0.0,0.0,0.0,0.0,0.0,0.0,0.0,0.0,0.0,0.0,0.0,0.0,0.0,0.0,0.0,0.0,0.0,0.0,0.0,0.0,0.0,0.0,0.0,0.0,0.0,0.0,0.0,0.0,0.0,0.0,0.0,0.0,0.0,0.0,0.0,0.0,0.0,0.0,0.0,0.0,0.0,0.0,0.0,0.0,0.0,0.0,0.0,0.0,0.0,0.0,0.0,0.0,0.0,0.0,0.0,0.0,0.0,0.0,0.0,0.0,0.0,0.0,0.0,0.0,0.0,0.0,1.9881,2.123,2.2516,2.2984,2.3159,2.3081,2.1931,2.0469,1.8754,0.0,0.0,0.0,0.0,0.0,0.0,0.0,0.0,0.0,0.0,0.0,0.0,0.0,0.0,0.0,0.0,0.0,0.0,0.0,0.0,0.0,0.0,0.0,0.0,0.0,0.0,0.0,0.0,0.0,0.0,0.0,0.0,0.0,0.0,0.0,0.0,0.0,0.0,1.3159,1.4947,0.0,0.0,0.0,0.0,0.0,0.0,0.0,0.0,1.5247,0.0,0.0,0.0,0.0,0.0,0.0,0.0,0.0,0.0,0.0,0.0,0.0,0.0,0.0,0.0,0.0,0.0,0.0,0.0,0.0,0.0,0.0,0.0,0.0,0.0,0.0,0.0,0.0,0.0,0.0,0.0,0.0,0.0,0.0,0.0,0.0,0.0,0.0,0.0,0.0,0.0,0.0,0.0,0.0,0.0,0.0,0.0,0.0,0.0,0.0,0.0,0.0,0.0,0.0,0.0,0.0,2.0136,2.0468,2.1367,2.2945,2.3457,2.3516,2.3101,2.2266,2.0957,1.9238,0.0,0.0,0.0,0.0,0.0,0.0,0.0,0.0,0.0,0.0,0.0,0.0,0.0,0.0,0.0,0.0,0.0,0.0,0.0,0.0,0.0,0.0,0.0,0.0,0.0,0.0,0.0,0.0,0.0,0.0,0.0,0.0,0.0,0.0,0.0,0.0,0.0,0.0,0.0,1.6223,1.7054,0.0,0.0,0.0,0.0,0.0,0.0,0.0,0.0,1.4772,0.0,0.0,0.0,0.0,0.0,0.0,0.0,0.0,0.0,0.0,0.0,0.0,0.0,0.0,0.0,0.0,0.0,0.0,0.0,0.0,0.0,0.0,0.0,0.0,0.0,0.0,0.0,0.0,0.0,0.0,0.0,0.0,0.0,0.0,0.0,0.0,0.0,0.0,0.0,0.0,0.0,0.0,0.0,0.0,0.0,0.0,0.0,0.0,0.0,0.0,0.0,0.0,0.0,0.0,0.0,1.9822,2.1016,2.2187,2.3437,2.3672,2.3691,2.3457,2.1992,2.0625,0.0,0.0,0.0,0.0,0.0,0.0,0.0,0.0,0.0,0.0,0.0,0.0,0.0,0.0,0.0,0.0,0.0,0.0,0.0,0.0,0.0,0.0,0.0,0.0,0.0,0.0,0.0,0.0,0.0,0.0,0.0,0.0,0.0,0.0,0.0,0.0,0.0,0.0,0.0,0.0,1.6741,1.755,1.7142,0.0,0.0,0.0,0.0,0.0,0.0,1.5978,1.5386,0.0,0.0,0.0,0.0,0.0,0.0,0.0,0.0,0.0,0.0,0.0,0.0,0.0,0.0,0.0,0.0,0.0,0.0,0.0,0.0,0.0,0.0,0.0,0.0,0.0,0.0,0.0,0.0,0.0,0.0,0.0,0.0,0.0,0.0,0.0,0.0,0.0,0.0,0.0,0.0,0.0,0.0,0.0,0.0,0.0,0.0,0.0,0.0,0.0,0.0,0.0,0.0,0.0,0.0,0.0,1.9414,2.1465,2.2969,2.3867,2.3926,2.3887,2.375,2.1855,2.039,0.0,0.0,0.0,0.0,0.0,0.0,0.0,0.0,0.0,0.0,0.0,0.0,0.0,0.0,0.0,0.0,0.0,0.0,0.0,0.0,0.0,0.0,0.0,0.0,0.0,0.0,0.0,0.0,0.0,0.0,0.0,0.0,0.0,0.0,0.0,0.0,0.0,0.0,0.0,0.0,0.0,1.7925,1.7238,1.712,0.0,0.0,0.0,0.0,1.7912,1.7267,0.0,0.0,0.0,0.0,0.0,0.0,0.0,0.0,0.0,0.0,0.0,0.0,0.0,0.0,0.0,0.0,0.0,0.0,0.0,0.0,0.0,0.0,0.0,0.0,0.0,0.0,0.0,0.0,0.0,0.0,0.0,0.0,0.0,0.0,0.0,0.0,0.0,0.0,0.0,0.0,0.0,0.0,0.0,0.0,0.0,0.0,0.0,0.0,0.0,0.0,0.0,0.0,0.0,0.0,0.0,0.0,1.9805,2.1602,2.3062,2.4277,2.4336,2.416,2.3789,2.2461,2.0957,0.0,0.0,0.0,0.0,0.0,0.0,0.0,0.0,0.0,0.0,0.0,0.0,0.0,0.0,0.0,0.0,0.0,0.0,0.0,0.0,0.0,0.0,0.0,0.0,0.0,0.0,0.0,0.0,0.0,0.0,0.0,0.0,0.0,0.0,0.0,0.0,0.0,0.0,0.0,0.0,0.0,1.8335,1.8007,1.7811,1.7607,0.0,0.0,0.0,1.7869,1.8672,0.0,0.0,0.0,0.0,0.0,0.0,0.0,0.0,0.0,0.0,0.0,0.0,0.0,0.0,0.0,0.0,0.0,0.0,0.0,0.0,0.0,0.0,0.0,0.0,0.0,0.0,0.0,0.0,0.0,0.0,0.0,0.0,0.0,0.0,0.0,0.0,0.0,0.0,0.0,0.0,0.0,0.0,0.0,0.0,0.0,0.0,0.0,0.0,0.0,0.0,0.0,0.0,0.0,0.0,0.0,1.7832,1.9902,2.2109,2.375,2.4727,2.4551,2.4336,2.4141,2.2187,2.0566,0.0,0.0,0.0,0.0,0.0,0.0,0.0,0.0,0.0,0.0,0.0,0.0,0.0,0.0,0.0,0.0,0.0,0.0,0.0,0.0,0.0,0.0,0.0,0.0,0.0,0.0,0.0,0.0,0.0,0.0,0.0,0.0,0.0,0.0,0.0,0.0,0.0,0.0,0.0,0.0,0.0,0.0,1.8363,1.8188,0.0,0.0,0.0,1.8635,1.9285,0.0,0.0,0.0,0.0,0.0,0.0,0.0,0.0,0.0,0.0,0.0,0.0,0.0,0.0,0.0,0.0,0.0,0.0,0.0,0.0,0.0,0.0,0.0,0.0,0.0,0.0,0.0,0.0,0.0,0.0,0.0,0.0,0.0,0.0,0.0,0.0,0.0,0.0,0.0,0.0,0.0,0.0,0.0,0.0,0.0,0.0,0.0,0.0,0.0,0.0,0.0,0.0,0.0,0.0,0.0,0.0,0.0,2.0078,2.2637,2.4375,2.5176,2.4707,2.4414,2.4375,2.2129,0.0,0.0,0.0,0.0,0.0,0.0,0.0,0.0,0.0,0.0,0.0,0.0,0.0,0.0,0.0,0.0,0.0,0.0,0.0,0.0,0.0,0.0,0.0,0.0,0.0,0.0,0.0,1.0063,0.0,0.0,0.0,0.0,0.0,0.0,0.0,0.0,0.0,0.0,0.0,0.0,0.0,0.0,1.897,1.8651,1.8728,1.9152,0.0,0.0,1.938,2.0265,1.9961,1.9239,0.0,0.0,0.0,0.0,0.0,0.0,0.0,0.0,0.0,0.0,0.0,0.0,0.0,0.0,0.0,0.0,0.0,0.0,0.0,0.0,0.0,0.0,0.0,0.0,0.0,0.0,0.0,0.0,0.0,0.0,0.0,0.0,0.0,0.0,0.0,0.0,0.0,0.0,0.0,0.0,0.0,0.0,0.0,0.0,0.0,0.0,0.0,0.0,0.0,0.0,0.0,0.0,0.0,0.0,0.0,2.0586,2.3066,2.4785,2.5577,2.4863,2.4414,2.4394,2.2715,2.1055,0.0,0.0,0.0,0.0,0.0,0.0,0.0,0.0,0.0,0.0,0.0,0.0,0.0,0.0,0.0,0.0,0.0,0.0,0.0,0.0,0.0,0.0,0.0,0.0,0.0,0.0,0.0,0.0,0.0,0.0,0.0,0.0,0.0,0.0,0.0,0.0,0.0,0.0,0.0,0.0,0.0,1.9814,1.8994,1.9677,2.0204,0.0,0.0,2.0198,1.9901,2.061,2.0394,1.7869,0.0,0.0,0.0,0.0,0.0,0.0,0.0,0.0,0.0,0.0,0.0,0.0,0.0,0.0,0.0,0.0,0.0,0.0,0.0,0.0,0.0,0.0,0.0,0.0,0.0,0.0,0.0,0.0,0.0,0.0,0.0,0.0,0.0,0.0,0.0,0.0,0.0,0.0,0.0,0.0,0.0,0.0,0.0,0.0,0.0,0.0,0.0,0.0,0.0,0.0,0.0,0.0,0.0,1.8848,2.0605,2.3105,2.4844,2.5635,2.5137,2.4687,2.4414,2.3027,2.1328,0.0,0.0,0.0,0.0,0.0,0.0,0.0,0.0,0.0,0.0,0.0,0.0,0.0,0.0,0.0,0.0,0.0,0.0,0.0,0.0,0.0,0.0,0.0,0.0,0.0,0.0,0.0,0.0,1.2878,1.2987,1.2794,0.0,0.0,0.0,0.0,0.0,0.0,0.0,0.0,0.0,0.0,1.941,1.9792,1.9802,0.0,0.0,2.0641,2.0282,2.0902,2.0748,2.0155,1.88,1.7954,0.0,0.0,0.0,0.0,0.0,0.0,0.0,0.0,0.0,0.0,0.0,0.0,0.0,0.0,0.0,0.0,0.0,0.0,0.0,0.0,0.0,0.0,0.0,0.0,0.0,0.0,0.0,0.0,0.0,0.0,0.0,0.0,0.0,0.0,0.0,0.0,0.0,0.0,0.0,0.0,0.0,0.0,0.0,0.0,0.0,0.0,0.0,0.0,0.0,0.0,0.0,0.0,1.8984,2.0586,2.3105,2.4797,2.5723,2.5293,2.4863,2.4414,2.3301,2.168,0.0,0.0,0.0,0.0,0.0,0.0,0.0,0.0,0.0,0.0,0.0,0.0,0.0,0.0,0.0,0.0,0.0,0.0,0.0,0.0,0.0,0.0,0.0,0.0,0.0,0.0,0.0,0.0,1.3915,1.3843,1.3312,0.0,0.0,0.0,0.0,0.0,0.0,0.0,0.0,0.0,0.0,1.9454,2.0159,1.9968,2.0223,2.1534,2.0702,2.018,2.0973,2.0563,1.9812,1.8857,0.0,0.0,0.0,0.0,0.0,0.0,0.0,0.0,0.0,0.0,0.0,0.0,0.0,0.0,0.0,0.0,0.0,0.0,0.0,0.0,0.0,0.0,0.0,0.0,0.0,0.0,0.0,0.0,0.0,0.0,0.0,0.0,0.0,0.0,0.0,0.0,0.0,0.0,0.0,0.0,0.0,0.0,0.0,0.0,0.0,0.0,0.0,0.0,0.0,0.0,0.0,0.0,0.0,0.0,2.0625,2.3105,2.4797,2.5635,2.5293,2.4863,2.4414,2.353,2.2109,1.9922,0.0,0.0,0.0,0.0,0.0,0.0,0.0,0.0,0.0,0.0,0.0,0.0,0.0,0.0,0.0,0.0,0.0,0.0,0.0,0.0,0.0,0.0,0.0,0.0,0.0,0.0,1.4349,1.3819,1.3336,0.0,0.0,0.0,0.0,0.0,0.0,0.0,0.0,0.0,0.0,1.9389,2.0258,1.9972,2.029,2.0581,2.0667,2.0241,1.9862,1.9732,1.9971,1.9549,0.0,0.0,0.0,0.0,0.0,0.0,0.0,0.0,0.0,0.0,0.0,0.0,0.0,0.0,0.0,0.0,0.0,0.0,0.0,0.0,0.0,0.0,0.0,0.0,0.0,0.0,0.0,1.7676,1.7148,0.0,0.0,0.0,0.0,0.0,0.0,0.0,0.0,0.0,0.0,0.0,2.0352,2.082,0.0,0.0,0.0,0.0,0.0,0.0,0.0,0.0,0.0,0.0,0.0,0.0,1.9397,2.0995,2.3262,2.4797,2.5654,2.5586,2.5156,2.4387,2.3867,2.2107,1.9124,0.0,0.0,0.0,0.0,0.0,0.0,0.0,0.0,0.0,0.0,0.0,0.0,0.0,0.0,0.0,0.0,0.0,0.0,0.0,0.0,0.0,0.0,0.0,0.0,0.0,1.5468,0.0,0.0,0.0,0.0,0.0,0.0,0.0,0.0,0.0,0.0,0.0,1.824,1.9177,1.9947,2.038,2.0344,2.0514,2.07,0.0,0.0,0.0,0.0,0.0,0.0,0.0,0.0,0.0,0.0,0.0,0.0,0.0,0.0,1.7498,1.452,1.3651,1.347,1.3605,0.0,0.0,0.0,0.0,0.0,0.0,0.0,0.0,0.0,0.0,0.0,0.0,0.0,0.0,0.0,0.0,1.8965,0.0,0.0,0.0,0.0,0.0,0.0,0.0,0.0,2.1328,2.2129,2.2148,2.2559,2.2539,0.0,2.1836,2.0469,0.0,0.0,0.0,0.0,0.0,0.0,0.0,0.0,1.9826,2.1465,2.3555,2.5,2.5654,2.5674,2.5343,2.4648,2.3789,2.207,1.9394,1.8616,1.7709,0.0,0.0,0.0,0.0,0.0,0.0,0.0,0.0,0.0,0.0,0.0,0.0,0.0,0.0,0.0,0.0,0.0,0.0,0.0,0.0,0.0,0.0,0.0,1.6018,0.0,0.0,0.0,0.0,0.0,0.0,0.0,0.0,0.0,1.8213,1.8506,1.9073,2.0232,2.0349,2.0385,2.0674,0.0,0.0,0.0,0.0,0.0,0.0,0.0,2.0073,2.0042,2.0141,2.0176,2.0123,2.0181,2.0297,2.0268,0.0,0.0,1.6454,1.5659,1.5427,1.5337,1.5755,1.6073,1.5939,1.6863,1.7566,0.0,0.0,0.0,0.0,0.0,0.0,0.0,0.0,2.082,2.0996,0.0,2.0859,0.0,0.0,0.0,0.0,0.0,0.0,0.0,0.0,2.3848,2.4675,2.3906,2.4277,2.4238,2.3926,2.4656,2.3971,2.1836,1.9004,0.0,0.0,0.0,0.0,0.0,0.0,2.0625,2.1973,2.4004,2.5273,2.5654,2.5674,2.5508,2.5019,2.3418,2.1934,2.0683,1.9821,1.9107,1.8576,1.6634,0.0,0.0,0.0,0.0,0.0,0.0,0.0,0.0,0.0,0.0,0.0,0.0,0.0,0.0,0.0,0.0,0.0,0.0,0.0,0.0,1.6331,0.0,0.0,0.0,0.0,0.0,0.0,0.0,0.0,0.0,0.0,1.9324,1.9471,1.9972,2.1196,0.0,0.0,0.0,0.0,2.095,2.095,2.0916,2.0916,2.0916,2.1441,2.1277,1.9796,0.0,0.0,2.0329,2.0398,2.0596,2.0625,2.0416,2.003,1.9615,1.8521,1.7951,1.8266,1.7773,1.7531,1.7912,1.8225,1.8517,2.4656,0.0,0.0,0.0,0.0,2.2344,2.3164,2.4707,2.4375,2.3809,2.3047,2.293,0.0,0.0,0.0,0.0,0.0,0.0,2.2305,2.3105,2.4499,2.5098,2.5148,2.5625,2.5605,2.5148,2.5098,2.459,2.3652,2.2268,2.0293,1.7949,0.0,0.0,0.0,0.0,2.1953,2.3223,2.4453,2.5293,2.5674,2.5674,2.5371,2.4629,2.3491,2.25,2.1584,2.1149,2.0626,1.9939,1.8449,0.0,0.0,0.0,0.0,0.0,0.0,0.0,0.0,0.0,0.0,0.0,0.0,0.0,0.0,0.0,0.0,0.0,0.0,0.0,1.6716,1.7075,1.7099,0.0,0.0,0.0,0.0,0.0,0.0,0.0,0.0,0.0,2.1495,2.1836,2.2045,0.0,0.0,2.2093,2.1501,2.1604,2.1673,2.1454,0.0,0.0,0.0,2.1283,2.1297,2.1687,2.1802,2.1809,2.1753,2.112,2.0702,2.0981,2.1136,2.1051,2.0415,1.9674,1.8996,1.8733,1.8659,1.8592,1.8539,1.8611,1.8654,2.7559,2.5371,2.4609,2.4687,2.5293,2.5039,2.5781,2.7109,2.668,2.6152,2.5547,2.5215,2.416,2.2598,2.2112,0.0,0.0,0.0,2.3926,2.4844,2.5527,2.5977,2.62,2.6504,2.6406,2.5996,2.5723,2.5371,2.4941,2.4258,2.2832,2.0723,0.0,0.0,2.0586,2.1777,2.293,2.4023,2.4902,2.5469,2.5674,2.5674,2.5265,2.4453,2.3861,2.314,2.2168,2.221,2.1803,2.0969,1.9712,1.8602,0.0,0.0,0.0,0.0,0.0,0.0,0.0,0.0,0.0,0.0,0.0,1.3017,0.0,0.0,0.0,0.0,1.5222,1.65,1.7891,1.8229,0.0,0.0,0.0,0.0,0.0,0.0,0.0,2.1332,2.1851,2.2367,2.3242,2.3573,2.3485,2.2898,2.2638,2.2411,2.1949,0.0,2.2112,2.1901,2.204,2.2149,2.2149,2.205,2.2246,2.2926,2.2422,2.2136,2.2435,2.1822,2.144,2.1652,2.1614,2.1374,2.0969,2.0403,1.9923,1.9523,1.9483,1.9483,1.9297,1.9266,1.9266,3.0273,2.9062,2.791,2.7559,2.7826,2.7826,2.7988,2.8359,2.7969,2.8008,2.8281,2.7519,2.6699,2.582,2.4609,0.0,0.0,2.5421,2.6035,2.6445,2.6875,2.7051,2.7031,2.7051,2.6855,2.6445,2.6445,2.6211,2.5732,2.5371,2.4746,2.3906,2.2383,2.1892,2.2598,2.3129,2.3711,2.4512,2.5332,2.5674,2.5674,2.5674,2.5265,2.4453,2.4414,2.3809,2.2578,2.2837,2.263,2.178,2.0436,1.9214,1.8155,0.0,0.0,0.0,0.0,0.0,0.0,0.0,0.0,0.0,0.0,0.0,0.0,0.0,0.0,0.0,1.7882,0.0,1.9119,1.9552,0.0,0.0,0.0,1.9456,2.0061,2.0514,2.1404,2.2919,0.0,0.0,0.0,0.0,2.4309,2.315,2.2273,2.1901,2.2324,2.2368,2.2368,2.2368,2.2717,2.2979,2.2929,2.3187,2.3397,2.3357,2.2762,2.2376,2.2605,2.2418,2.2369,2.2433,2.1848,2.1316,2.1397,2.0973,2.0638,2.0583,2.0313,2.0118,2.0042,2.0042,2.002,3.1739,3.1367,3.1074,3.0059,2.8633,2.8633,2.8867,2.9258,2.916,2.8984,2.875,2.8555,2.7988,2.7168,2.6543,2.6309,2.6406,2.6621,2.6758,2.6894,2.7305,2.7344,2.7031,2.7344,2.7285,2.6875,2.6875,2.6641,2.625,2.6133,2.5801,2.5226,2.4816,2.4277,2.3535,2.4284,2.4883,2.5382,2.5577,2.5674,2.5674,2.5674,2.5265,2.4453,2.4414,2.3809,2.2559,2.2318,2.2493,2.3024,2.0421,1.9493,2.0815,1.7579,0.0,0.0,0.0,0.0,0.0,0.0,0.0,0.0,0.0,1.5594,1.3929,0.0,1.5722,0.0,1.825,1.9336,2.0153,2.0322,0.0,0.0,2.1428,2.1813,2.2758,2.2614,2.2871,2.4025,2.4266,2.4314,2.4247,2.4325,2.4018,2.315,2.3062,2.3061,2.2863,2.2848,2.2848,2.2848,2.2914,2.3001,2.3038,2.3335,2.3475,2.318,2.2903,2.2732,2.2767,2.2201,2.1899,2.216,2.206,2.1811,2.1592,2.1374,2.113,2.0897,2.0632,2.0399,2.0172,2.0129,2.0129,3.2344,3.2229,3.2229,3.1465,3.0351,3.0156,3.0215,3.041,3.0019,2.9707,2.9473,2.9297,2.8945,2.855,2.8262,2.8144,2.8144,2.8144,2.8047,2.7871,2.8105,2.7988,2.7598,2.7832,2.7715,2.7305,2.7305,2.709,2.668,2.6484,2.6269,2.6016,2.5791,2.5323,2.4707,2.5137,2.5488,2.5674,2.5674,2.5674,2.5674,2.5674,2.5265,2.4453,2.4808,2.4257,2.2559,2.2817,2.2912,2.2666,2.0637,1.9934,2.0983,1.8196,1.6714,0.0,0.0,0.0,0.0,0.0,0.0,0.0,0.0,0.0,0.0,0.0,1.7345,0.0,2.0009,0.0,2.1933,2.2197,2.2654,2.3496,2.3592,2.3905,2.4757,2.4554,2.4771,2.5793,2.5697,2.5624,2.5718,2.5378,2.4886,2.4212,2.4041,2.3728,2.3156,2.3001,2.3001,2.3001,2.3001,2.3001,2.3001,2.3187,2.3335,2.3276,2.3077,2.2972,2.3095,2.2608,2.2201,2.2448,2.2288,2.2065,2.1914,2.1655,2.1383,2.1017,2.0809,2.0599,2.0183,2.0129,2.0129,3.2656,3.2324,3.2324,3.2324,3.2305,3.1875,3.1641,3.1543,3.0723,3.0332,3.0254,2.9844,2.9648,2.9648,2.9646,2.957,2.957,2.957,2.9375,2.9004,2.8945,2.873,2.8379,2.832,2.8105,2.7754,2.7734,2.7519,2.709,2.6719,2.6504,2.6367,2.6016,2.5732,2.5693,2.5674,2.5674,2.5674,2.5674,2.5674,2.5674,2.5674,2.5265,2.4473,2.5113,2.4621,2.2735,2.3634,2.3495,2.1873,2.1193,2.0673,2.0391,1.8913,1.8233,0.0,1.813,0.0,0.0,0.0,0.0,0.0,0.0,0.0,0.0,1.9384,2.0053,2.0936,2.2414,2.3505,2.3962,2.4434,2.4915,2.5348,2.5468,2.5709,2.6142,2.6214,2.6574,2.7512,2.7186,2.709,2.721,2.668,2.6042,2.5359,2.4672,2.404,2.346,2.3156,2.3001,2.3001,2.3001,2.3001,2.3001,2.3001,2.3113,2.3409,2.3202,2.3113,2.3423,2.3089,2.2825,2.2915,2.2576,2.2306,2.236,2.2018,2.1594,2.1222,2.1069,2.0807,2.026,2.0129,2.0129,3.3262,3.3184,3.3184,3.3184,3.3164,3.2734,3.2363,3.2012,3.1484,3.1074,3.0742,3.0273,3.0078,3.0059,2.9726,2.957,2.957,2.957,2.9587,2.9434,2.9082,2.8867,2.8789,2.8457,2.8262,2.8164,2.8164,2.7949,2.7539,2.7461,2.7121,2.6406,2.6309,2.6094,2.5713,0.0,0.0,0.0,2.5674,2.5674,2.5674,2.5674,2.5265,2.4453,2.4264,0.0,2.3043,2.3265,2.3221,2.274,2.265,0.0,0.0,0.0,0.0,0.0,0.0,0.0,0.0,0.0,0.0,0.0,2.2951,2.2294,2.1601,2.2687,2.337,2.3159,2.4218,2.4915,2.5011,2.5492,2.5829,2.5949,2.6358,2.6633,2.6729,2.6753,2.6825,2.6994,2.6946,2.6695,2.6263,2.5916,2.5693,2.5324,2.4409,2.4082,2.4559,2.3653,2.3038,2.3001,2.3001,2.3001,2.3001,2.3001,2.3038,2.3075,2.3075,2.3038,2.3113,2.3047,2.2959,2.3001,2.2922,2.2827,2.2848,2.2499,2.2149,2.2062,2.1712,2.1188,2.0303,2.0129,2.0129,3.3418,0.0,3.3418,3.3418,0.0,3.3203,3.2988,3.2754,3.2109,3.1601,3.1191,3.0957,3.0742,3.0527,3.0312,3.0234,3.0272,3.0215,3.0098,2.9863,2.9648,2.9336,2.8926,2.8691,2.8496,2.8301,2.8301,2.8184,2.7969,2.7773,2.7493,2.7031,2.6816,2.6484,2.6074,2.584,2.5674,2.5674,2.5674,2.5674,2.5674,2.5674,2.543,2.4812,0.0,0.0,0.0,0.0,0.0,0.0,0.0,0.0,0.0,0.0,0.0,2.3498,2.3094,2.3206,2.403,2.3861,2.4279,2.5601,2.619,2.5588,2.352,2.4554,2.5194,2.4945,2.5624,2.6238,2.6478,2.6983,2.7392,2.7657,2.8162,2.8402,2.8122,2.8089,2.7993,2.7714,2.7666,2.7535,2.7121,2.7082,2.6808,2.6184,2.5542,2.5037,2.486,2.3853,2.3001,2.3001,2.3001,2.3001,2.3001,2.3001,2.3001,2.3001,2.3001,2.3001,2.3001,2.3001,2.3001,2.3038,2.315,2.3261,2.3016,2.2952,2.2805,2.2404,2.2127,2.1734,2.1013,2.063,2.0424,3.3418,3.3418,3.3418,3.3418,3.3418,3.3418,3.3418,3.3359,0.0,0.0,0.0,3.1543,3.1328,3.0996,3.0918,3.0898,3.0898,3.0898,3.0684,3.0312,3.0234,2.9824,2.916,2.8984,2.873,2.8418,2.832,2.8301,2.8281,2.7982,2.7787,2.7689,2.7305,2.6894,2.6406,2.6035,2.5771,2.5693,2.5674,2.5674,2.5674,2.5674,2.5527,2.5125,2.6082,2.5618,2.3652,2.5454,2.5549,2.3487,2.3778,2.4328,2.4909,2.4007,2.4338,2.6319,2.6019,2.5892,2.6385,2.6572,2.6887,2.7426,2.8691,2.8282,2.5564,2.6238,2.6791,2.6815,2.7224,2.7681,2.8074,2.8522,2.8931,2.9268,2.9701,2.9725,2.922,2.9148,2.8907,2.8595,2.8546,2.8555,2.8315,2.8371,2.8211,2.738,2.6688,2.6148,2.5133,2.3968,2.3132,2.3023,2.3001,2.3001,2.3001,2.3001,2.3001,2.3001,2.3001,2.3001,2.3001,2.3001,2.3001,2.3001,2.3335,2.3372,2.3113,2.3276,2.3275,2.2593,2.2433,2.2302,2.1822,2.1441,2.097,3.3418,3.3418,3.3418,3.3418,3.3418,3.3418,3.3418,3.3379,3.291,3.2461,3.2051,3.168,3.1484,3.1406,3.1055,3.0898,3.0898,3.0898,3.0859,0.0,3.0371,3.0137,2.998,2.9258,2.8887,2.8809,2.8476,2.8301,2.8281,2.8223,2.8027,2.7748,2.7598,2.7187,2.6445,2.6328,2.6113,2.5693,2.5674,2.5674,2.5674,2.5674,2.5527,2.5125,2.4927,2.4816,2.4757,2.5937,2.6228,2.5448,2.6869,2.7482,2.6953,2.6924,2.7344,2.8074,2.8083,2.7917,2.7602,2.839,2.9076,2.9581,2.9845,2.9581,2.8763,2.9172,2.9532,2.9532,2.9484,2.9677,2.9749,2.9797,2.9701,2.9388,2.9388,2.922,2.8787,2.8715,2.8667,2.8522,2.8931,2.8817,2.8241,2.8373,2.838,2.777,2.7052,2.6194,2.5239,2.4255,2.3482,2.311,2.3001,2.3001,2.3001,2.3001,2.3001,2.3001,2.3001,2.3001,2.3001,2.3001,2.3001,2.3001,2.3335,2.3409,2.3113,2.3335,2.3364,2.2959,2.2885,2.2717,2.228,2.2106,2.1778,3.3418,3.3418,3.3418,3.3418,3.3418,3.3418,3.3418,3.3398,3.3223,3.291,3.25,3.2285,3.1953,3.1523,3.1309,3.1113,3.0898,3.0898,3.0898,3.0879,3.0664,3.043,3.0176,2.9805,2.9375,2.8926,2.873,2.8516,2.832,2.8301,2.8203,2.8008,2.7773,2.7513,2.709,2.6621,2.6289,2.6094,2.581,2.5674,2.5674,2.5674,2.5867,2.6229,2.6249,2.6169,2.5871,2.702,2.7231,2.6234,2.7409,2.8216,2.838,2.849,2.8811,2.9316,2.9364,2.9295,2.9051,2.9738,3.0254,3.0494,3.0826,3.0855,3.0591,3.0278,3.0086,3.0086,3.0086,3.0086,3.011,3.0392,3.0422,3.0182,3.0398,3.023,2.9532,2.9364,2.9148,2.8643,2.8715,2.8706,2.8267,2.8393,2.8366,2.7921,2.7261,2.6537,2.5661,2.5155,2.4437,2.3607,2.3583,2.3488,2.3141,2.3001,2.3001,2.3001,2.3001,2.3001,2.3001,2.3001,2.3001,2.3038,2.3335,2.3482,2.3335,2.3446,2.3482,2.3409,2.315,2.2929,2.2717,2.2499,2.1974,3.3418,3.3418,3.3418,3.3418,3.3418,3.3418,3.3418,3.3418,3.3418,3.3242,3.2949,3.2832,3.2422,3.1836,3.1621,3.1328,3.1055,3.0937,3.0898,3.0898,3.0898,3.0703,3.0371,3.0254,2.9844,2.9238,2.9023,2.875,2.8457,2.834,2.8301,2.8262,2.7969,2.7826,2.7708,2.7012,2.6582,2.6436,2.63,2.6161,2.6014,2.582,2.6187,2.7111,2.7547,2.7448,2.6827,2.8166,2.8468,2.7457,2.8097,2.8902,2.9755,2.9701,2.9893,3.0374,3.0446,3.0446,3.047,3.0635,3.0874,3.1048,3.1476,3.1717,3.1645,3.097,3.0446,3.0446,3.047,3.047,3.0543,3.085,3.1043,3.097,3.1284,3.1043,3.0254,3.0086,2.9749,2.8883,2.8787,2.8835,2.8595,2.8619,2.8546,2.813,2.7655,2.7065,2.6439,2.6187,2.5564,2.4603,2.4221,2.4009,2.337,2.3082,2.3038,2.3001,2.3001,2.3001,2.3038,2.3075,2.3075,2.3113,2.3409,2.3556,2.3519,2.3629,2.3629,2.3482,2.3261,2.315,2.2995,2.2608,2.2084,3.3418,3.3418,3.3418,3.3418,3.3418,3.3418,3.3418,3.3418,3.3418,3.3418,3.3301,3.2969,3.2754,3.2578,3.1875,3.1523,3.1426,3.1055,3.0898,3.0898,3.0898,3.0859,3.0762,3.0391,3.0156,2.9961,2.9297,2.8906,2.8809,2.8457,2.8301,2.8281,2.8242,2.8047,2.7748,2.763,2.7219,2.6456,2.7247,2.749,2.703,2.6187,2.6187,2.7179,2.728,2.7212,2.7285,2.9032,3.0009,2.9895,3.0275,3.0841,3.1312,3.1019,3.0951,3.1476,3.1548,3.1573,3.1504,3.0751,3.0685,3.1512,3.1669,3.1717,3.1717,3.1621,3.1548,3.15,3.1524,3.1476,3.1529,3.1573,3.1404,3.1043,3.1043,3.0711,3.0254,3.0086,2.9869,2.9316,2.9581,2.9581,2.8811,2.8883,2.8955,2.8451,2.8082,2.7736,2.7498,2.7128,2.6661,2.5632,2.4687,2.4078,2.4015,2.3488,2.3185,2.3082,2.3001,2.3038,2.3075,2.3261,2.3446,2.3224,2.3519,2.3703,2.3556,2.3556,2.3776,2.3409,2.3298,2.3409,2.3069,2.2673,2.2171,3.3418,3.3418,3.3418,3.3418,3.3418,3.3418,3.3418,3.3418,3.3418,3.3418,3.3398,3.3242,3.3027,3.2773,3.2422,3.2012,3.1523,3.1328,3.1113,3.0918,3.0898,3.0898,3.0859,3.0703,3.0469,3.0156,2.957,2.916,2.8887,2.8496,2.8301,2.8301,2.8301,2.8203,2.8027,2.7845,2.748,2.72,2.7914,2.8362,2.8381,2.7799,2.7955,2.8866,2.8958,2.8958,2.905,2.9784,3.0215,3.0215,3.0367,3.0835,3.1649,3.15,3.1476,3.1693,3.1717,3.1717,3.1717,3.1339,3.1294,3.1717,3.1717,3.1717,3.1717,3.1717,3.1717,3.1717,3.1717,3.1717,3.1717,3.1717,3.1621,3.1428,3.1336,3.1163,3.0615,3.0543,3.035,2.9869,2.9941,2.9821,2.9148,2.8883,2.8739,2.8546,2.8323,2.8163,2.7962,2.7493,2.7093,2.6598,2.5672,2.4842,2.4554,2.3897,2.3595,2.3599,2.3326,2.3038,2.3298,2.3224,2.3224,2.3298,2.3482,2.3703,2.3776,2.3446,2.3372,2.3224,2.315,2.3187,2.3038,2.2848,2.263,3.3418,3.3418,3.3418,3.3418,3.3418,3.3418,3.3418,3.3418,3.3418,3.3418,3.3418,3.3418,3.3262,3.2969,3.2851,3.2441,3.1894,3.1621,3.1367,3.1055,3.0937,3.0898,3.0898,3.0898,3.0723,3.0371,2.9961,2.9453,2.8945,2.8496,2.8441,2.8708,2.8761,2.892,2.9144,2.8894,2.8692,2.8634,2.927,2.9759,2.9954,2.9842,2.9897,3.0193,3.0215,3.0215,3.0215,3.0464,3.0621,3.0644,3.0576,3.0913,3.1605,3.1717,3.1717,3.1717,3.1717,3.1717,3.1717,3.1717,3.1717,3.1717,3.1717,3.1717,3.1717,3.1717,3.1717,3.1717,3.1717,3.1717,3.1717,3.1717,3.1717,3.1717,3.1717,3.1524,3.1187,3.1139,3.0879,3.0422,3.0326,3.011,2.9581,2.9124,2.8787,2.8763,2.8579,2.8443,2.8082,2.7696,2.7348,2.7226,2.6598,2.5891,2.5006,2.4481,2.4271,2.4022,2.3643,2.331,2.3549,2.3298,2.3187,2.3446,2.3261,2.3298,2.3629,2.3409,2.3224,2.3409,2.3372,2.3113,2.3001,2.2979,2.2979,3.3418,3.3418,3.3418,3.3418,3.3418,3.3418,3.3418,3.3418,3.3418,3.3418,3.3418,3.3418,3.3398,3.3277,3.2988,3.2773,3.2617,3.1914,3.1543,3.1426,3.1074,3.0898,3.0898,3.0898,3.0879,3.0762,3.0332,2.9707,2.8926,2.8516,2.8847,2.9723,2.9723,3.0328,3.1103,3.1162,3.115,3.073,3.1488,3.1974,3.1756,3.2064,3.1592,3.0512,3.0215,3.0306,3.0351,3.1116,3.1605,3.1629,3.156,3.1673,3.1717,3.1717,3.1717,3.1717,3.1717,3.1717,3.1717,3.1717,3.1717,3.1717,3.1717,3.1717,3.1717,3.1717,3.1717,3.1717,3.1717,3.1717,3.1717,3.1717,3.1717,3.1717,3.1717,3.1669,3.1669,3.1597,3.1428,3.1019,3.085,3.0567,3.0086,2.9605,2.9268,2.91,2.8811,2.8483,2.8403,2.8082,2.7696,2.7348,2.7116,2.6793,2.5914,2.5222,2.4815,2.4569,2.4243,2.3699,2.3594,2.3593,2.3638,2.3615,2.3446,2.3446,2.3556,2.3593,2.3519,2.3519,2.3482,2.3298,2.315,2.3038,2.3001,3.3418,3.3418,3.3418,3.3418,3.3418,3.3418,3.3418,3.3418,3.3418,3.3418,3.3418,3.3418,3.3418,3.3418,3.3262,3.3047,3.2773,3.2461,3.2051,3.1562,3.1367,3.1152,3.0898,3.0898,3.0898,3.082,3.041,2.9766,2.893,2.8769,2.9073,2.9764,2.9932,3.0484,3.141,3.1564,3.1527,3.1497,3.2379,3.2695,3.231,3.2984,3.3026,3.2225,3.1492,3.116,3.1137,3.1516,3.1717,3.1717,3.1717,3.1717,3.1717,3.1717,3.1717,3.1717,3.1717,3.1717,3.1717,3.1717,3.1717,3.1717,3.1717,3.1717,3.1717,3.1717,3.1717,3.1717,3.1717,3.1717,3.1717,3.1717,3.1717,3.1717,3.1717,3.1717,3.1717,3.1717,3.1621,3.1428,3.112,3.0783,3.0518,2.9845,2.9316,2.9244,2.8835,2.857,2.8443,2.8163,2.7841,2.7719,2.7615,2.7424,2.6816,2.5994,2.543,2.5234,2.4954,2.4623,2.4469,2.4161,2.4146,2.4141,2.394,2.3601,2.366,2.3556,2.3556,2.3556,2.3519,2.3446,2.3372,2.3187,2.3075,3.3418,3.3418,3.3418,3.3418,3.3418,3.3418,3.3418,3.3418,3.3418,3.3418,3.3418,3.3418,3.3418,3.3418,3.3418,3.3281,3.2988,3.2851,3.248,3.1934,3.1641,3.1367,3.1113,3.0957,3.0898,3.082,3.043,2.9883,2.943,2.9565,3.0005,3.0632,3.1007,3.1695,3.2471,3.265,3.265,3.2801,3.335,3.3534,3.3305,3.372,3.3838,3.3452,3.2659,3.2151,3.1982,3.1813,3.1717,3.1717,3.1717,3.1717,3.1717,3.1717,3.1717,3.1717,3.1717,3.1717,3.1717,3.1717,3.1717,3.1717,3.1717,3.1717,3.1717,3.1717,3.1717,3.1717,3.1717,3.1717,3.1717,3.1717,3.1717,3.1717,3.1717,3.1717,3.1717,3.1717,3.1717,3.1645,3.1428,3.1211,3.1067,3.035,2.9845,2.9605,2.91,2.8763,2.8491,2.8283,2.8002,2.7921,2.8002,2.7736,2.7319,2.6737,2.6234,2.5973,2.5684,2.5389,2.518,2.4891,2.4665,2.465,2.437,2.3934,2.3682,2.3578,2.3556,2.3593,2.3519,2.3482,2.3372,2.3224,2.315,3.3418,3.3418,3.3418,3.3418,3.3418,3.3418,3.3418,3.3418,3.3418,3.3418,3.3418,3.3418,3.3418,3.3418,3.3418,3.3398,3.3301,3.3008,3.2793,3.2617,3.1953,3.1582,3.1445,3.1113,3.0918,3.0879,3.043,3.0252,3.0285,3.0913,3.1536,3.232,3.3241,3.388,3.4701,3.4553,3.4652,3.458,3.4628,3.4653,3.4703,3.4294,3.4054,3.3958,3.3501,3.302,3.2563,3.2058,3.1837,3.1765,3.1765,3.1717,3.1717,3.1717,3.1717,3.1717,3.1717,3.1717,3.1717,3.1717,3.1717,3.1717,3.1717,3.1717,3.1717,3.1717,3.1717,3.1717,3.1717,3.1717,3.1717,3.1717,3.1717,3.1717,3.1717,3.1717,3.1717,3.1717,3.1717,3.1693,3.1645,3.1693,3.1597,3.1048,3.0518,3.011,2.9581,2.9076,2.8715,2.8515,2.8323,2.8122,2.8163,2.8099,2.7777,2.7487,2.7065,2.6691,2.632,2.6052,2.586,2.5654,2.5386,2.5307,2.4714,2.425,2.3697,2.3593,2.374,2.374,2.3652,2.3556,2.3556,2.3519,2.3335,3.3418,3.3418,3.3418,3.3418,3.3418,3.3418,3.3418,3.3418,3.3418,3.3418,3.3418,3.3418,3.3418,3.3418,3.3418,3.3418,3.3398,3.3281,3.3086,3.2793,3.2519,3.2051,3.1582,3.1387,3.1172,3.0918,3.0742,3.0948,3.1442,3.176,3.2489,3.3802,3.436,3.4824,3.5302,3.5376,3.5232,3.4799,3.4775,3.4775,3.4775,3.4607,3.4534,3.4486,3.403,3.3717,3.3502,3.3068,3.2656,3.225,3.225,3.2082,3.1813,3.1717,3.1717,3.1717,3.1717,3.1717,3.1717,3.1717,3.1717,3.1717,3.1717,3.1717,3.1717,3.1717,3.1717,3.1717,3.1717,3.1717,3.1717,3.1717,3.1717,3.1717,3.1717,3.1717,3.1717,3.1717,3.1717,3.1717,3.1717,3.1717,3.1621,3.1259,3.0855,3.0591,2.9893,2.9268,2.9051,2.8739,2.8483,2.8363,2.8419,2.8419,2.8139,2.7898,2.7636,2.7392,2.7082,2.6726,2.6602,2.6449,2.6217,2.5746,2.5135,2.4596,2.4002,2.374,2.3872,2.3886,2.3776,2.3813,2.3922,2.3813,2.3593,3.3418,3.3418,3.3418,3.3418,3.3418,3.3418,3.3418,3.3418,3.3418,3.3418,3.3418,3.3418,3.3418,3.3418,3.3418,3.3418,3.3418,3.3418,3.3281,3.3027,3.2851,3.2402,3.1858,3.1919,3.2127,3.2231,3.2227,3.2463,3.2902,3.336,3.4053,3.4955,3.5463,3.5746,3.5879,3.5689,3.5425,3.5087,3.4871,3.4775,3.4775,3.4775,3.4775,3.4727,3.4438,3.4294,3.4246,3.4006,3.3525,3.2947,3.2779,3.2539,3.2034,3.203,3.1934,3.1741,3.1717,3.1717,3.1717,3.1717,3.1717,3.1717,3.1717,3.1717,3.1717,3.1717,3.1717,3.1717,3.1717,3.1717,3.1717,3.1717,3.1717,3.1717,3.1717,3.1717,3.1717,3.1717,3.1717,3.1717,3.1717,3.1717,3.1621,3.1476,3.1072,3.0874,3.0326,2.9605,2.9412,2.9027,2.8811,2.8619,2.8483,2.8483,2.8483,2.8323,2.8139,2.7995,2.7827,2.7549,2.7315,2.7268,2.7104,2.6333,2.57,2.5116,2.4554,2.4073,2.3982,2.3922,2.4013,2.3886,2.3922,2.3995,2.3849,3.3418,3.3418,3.3418,3.3418,3.3418,3.3418,3.3418,3.3418,3.3418,3.3418,3.3418,3.3418,3.3418,3.3418,3.3418,3.3418,3.3418,3.3418,3.3418,3.3281,3.3047,3.2679,3.2573,3.2644,3.3158,3.4052,3.4155,3.4314,3.4471,3.5298,3.5979,3.5786,3.6606,3.6912,3.6483,3.5954,3.5785,3.5641,3.5184,3.4871,3.4847,3.4775,3.4775,3.4775,3.4751,3.4703,3.4679,3.4679,3.427,3.3477,3.326,3.2996,3.2635,3.2539,3.2322,3.1982,3.1837,3.191,3.1837,3.1982,3.1958,3.1982,3.1982,3.1789,3.1958,3.203,3.1958,3.1862,3.1837,3.1789,3.1741,3.1717,3.1717,3.1717,3.1717,3.1717,3.1717,3.1717,3.1717,3.1717,3.1717,3.1717,3.1717,3.1669,3.1428,3.1096,3.0855,3.0302,2.9797,2.9412,2.9076,2.8859,2.8667,2.8522,2.8483,2.8483,2.8299,2.8283,2.8203,2.8051,2.786,2.7797,2.7671,2.6941,2.6255,2.5681,2.5233,2.4816,2.4604,2.471,2.4568,2.4132,2.4064,2.4278,2.41,3.3418,3.3418,3.3418,3.3418,3.3418,3.3418,3.3418,3.3418,3.3418,3.3418,3.3418,3.3418,3.3418,3.3418,3.3418,3.3418,3.3418,3.3418,3.3418,3.3398,3.334,3.3629,3.376,3.344,3.3853,3.4893,3.4867,3.4836,3.5685,3.6122,3.6595,3.7334,3.7498,3.7493,3.7012,3.6819,3.6555,3.6194,3.5665,3.5425,3.5303,3.504,3.4775,3.4775,3.4799,3.4775,3.4775,3.4775,3.451,3.3838,3.3477,3.3236,3.3116,3.3092,3.2971,3.2827,3.2803,3.2827,3.2827,3.2803,3.2827,3.2851,3.2755,3.2851,3.2897,3.2851,3.2659,3.2418,3.2274,3.2106,3.1813,3.1717,3.1717,3.1717,3.1717,3.1717,3.1717,3.1717,3.1717,3.1717,3.1717,3.1717,3.1717,3.1693,3.1645,3.1452,3.1163,3.085,3.0344,2.9773,2.9412,2.91,2.8859,2.8643,2.8522,2.8522,2.8483,2.8483,2.8443,2.8379,2.8195,2.8035,2.787,2.7442,2.6909,2.6285,2.6112,2.5826,2.5756,2.5448,2.5271,2.4974,2.4908,2.4995,2.448,3.3418,3.3418,3.3418,3.3418,3.3418,3.3418,3.3418,3.3418,3.3418,3.3418,3.3418,3.3418,3.3418,3.3418,3.3418,3.3418,3.3418,3.3418,3.3418,3.3544,3.4027,3.4677,3.5131,3.4694,3.5301,3.6849,3.645,3.6709,3.7131,3.7075,3.7388,3.7791,3.7974,3.7829,3.7541,3.7276,3.706,3.6699,3.6242,3.5954,3.5905,3.5665,3.5376,3.5232,3.516,3.5088,3.4823,3.4775,3.4607,3.4318,3.4078,3.3837,3.3621,3.3621,3.3501,3.3332,3.3284,3.3284,3.3284,3.3284,3.3284,3.3284,3.3284,3.3284,3.326,3.3284,3.3092,3.2899,3.2659,3.2346,3.2058,3.1817,3.1741,3.1717,3.1717,3.1717,3.1717,3.1717,3.1717,3.1717,3.1717,3.1717,3.1717,3.1717,3.1717,3.1645,3.1476,3.1187,3.0807,3.0254,2.9725,2.9364,2.9076,2.8835,2.8595,2.8522,2.8522,2.8522,2.8522,2.8522,2.8403,2.8243,2.8076,2.7854,2.738,2.7089,2.6892,2.6632,2.6174,2.5948,2.5892,2.5859,2.5779,2.5701,2.5158,3.3418,3.3418,3.3418,3.3418,3.3418,3.3418,3.3418,3.3418,3.3418,3.3418,3.3418,3.3418,3.3418,3.3418,3.3418,3.3418,3.3418,3.3418,3.3607,3.409,3.4984,3.6003,3.6778,3.6392,3.7325,3.8951,3.9043,3.8772,3.855,3.8275,3.8065,3.8094,3.8046,3.7974,3.7829,3.7517,3.73,3.7204,3.6747,3.6507,3.6459,3.629,3.6026,3.5761,3.5639,3.5449,3.5063,3.4895,3.4847,3.4751,3.4775,3.4486,3.4126,3.4078,3.3958,3.3645,3.3621,3.3597,3.3501,3.3597,3.3525,3.3573,3.3549,3.3452,3.3573,3.3621,3.3549,3.338,3.2947,3.2707,3.237,3.201,3.1765,3.1717,3.1717,3.1717,3.1717,3.1717,3.1717,3.1717,3.1717,3.1717,3.1717,3.1717,3.1717,3.1717,3.1573,3.1452,3.1187,3.0735,3.0134,2.9581,2.9292,2.9051,2.8763,2.8522,2.8522,2.8522,2.8522,2.8522,2.8419,2.8363,2.8323,2.814,2.7846,2.7719,2.7717,2.729,2.6789,2.6694,2.6795,2.6623,2.6467,2.6395,2.607,3.3418,3.3418,3.3418,3.3418,3.3418,3.3418,3.3418,3.3418,3.3418,3.3418,3.3418,3.3418,3.3418,3.3418,3.3418,3.3418,3.3418,3.3544,3.3902,3.5129,3.6276,3.7506,3.8236,3.8063,3.8746,3.981,3.9681,3.9441,3.9296,3.8936,3.8647,3.8599,3.8238,3.7974,3.7974,3.7878,3.7805,3.7709,3.7276,3.7036,3.694,3.6675,3.6435,3.6242,3.6218,3.5954,3.5569,3.5449,3.5256,3.4944,3.4799,3.4823,3.4607,3.4558,3.4535,3.4438,3.4414,3.4438,3.4487,3.4414,3.4487,3.439,3.4366,3.4511,3.4487,3.4414,3.4246,3.3958,3.3694,3.3284,3.2587,3.1985,3.1789,3.1741,3.1717,3.1717,3.1717,3.1717,3.1717,3.1717,3.1717,3.1717,3.1717,3.1717,3.1717,3.1717,3.1693,3.1645,3.1428,3.1163,3.0615,2.9989,2.9581,2.9316,2.8883,2.8619,2.8522,2.8522,2.8522,2.8522,2.8459,2.8419,2.8403,2.8419,2.8371,2.8266,2.8162,2.8194,2.7774,2.7726,2.7606,2.7424,2.7257,2.7172,2.7076,3.3418,3.3418,3.3418,3.3418,3.3418,3.3418,3.3418,3.3418,3.3418,3.3418,3.3418,3.3418,3.3418,3.3418,3.3418,3.3418,3.3607,3.409,3.5067,3.6338,3.761,3.8566,3.9193,3.9593,4.0144,4.0667,4.0234,4.0018,3.985,3.9489,3.92,3.9152,3.8647,3.8431,3.8286,3.8118,3.7974,3.7979,3.7733,3.7565,3.7493,3.73,3.6964,3.6747,3.6555,3.6242,3.6002,3.5978,3.5833,3.5641,3.5545,3.5304,3.4871,3.4775,3.4775,3.4775,3.4775,3.4775,3.4775,3.4775,3.4751,3.4775,3.4775,3.4775,3.4775,3.4775,3.4679,3.439,3.4054,3.3574,3.2635,3.2298,3.201,3.1741,3.1717,3.1717,3.1717,3.1717,3.1717,3.1717,3.1717,3.1717,3.1717,3.1717,3.1717,3.1717,3.1717,3.1669,3.1669,3.1404,3.1091,3.0585,3.0013,2.9556,2.9076,2.8739,2.8522,2.8522,2.8522,2.8522,2.8483,2.8483,2.8522,2.8498,2.8459,2.8498,2.8402,2.8498,2.8522,2.829,2.8083,2.8074,2.8041,2.7858,2.781,3.3418,3.3418,3.3418,3.3418,3.3418,3.3418,3.3418,3.3418,3.3418,3.3418,3.3418,3.3418,3.3418,3.3418,3.3418,3.3481,3.409,3.5129,3.6338,3.767,3.8944,3.9533,3.9884,4.0524,4.0985,4.1124,4.0739,4.0523,4.0379,4.0018,3.9729,3.9633,3.92,3.8864,3.8695,3.8383,3.8094,3.7998,3.7926,3.7902,3.7926,3.7853,3.7637,3.7324,3.7012,3.6699,3.6579,3.6507,3.6459,3.6411,3.6411,3.593,3.5352,3.5064,3.4992,3.4943,3.5016,3.4895,3.4799,3.4775,3.4775,3.4775,3.4775,3.4775,3.4775,3.4775,3.4751,3.4583,3.427,3.3694,3.2851,3.2515,3.225,3.1982,3.1813,3.1717,3.1717,3.1717,3.1717,3.1717,3.1717,3.1717,3.1717,3.1717,3.1717,3.1717,3.1717,3.1717,3.1717,3.1621,3.1308,3.0995,3.0446,2.9773,2.9268,2.8763,2.857,2.8522,2.8522,2.8522,2.8522,2.8522,2.8522,2.8522,2.8498,2.8522,2.8522,2.8522,2.8522,2.8522,2.8474,2.833,2.8378,2.8498,2.8386,3.3418,3.3418,3.3418,3.3418,3.3418,3.3418,3.3418,3.3418,3.3418,3.3418,3.3418,3.3418,3.3418,3.3481,3.3418,3.4027,3.5253,3.652,3.767,3.8921,4.0141,4.0687,4.0745,4.0942,4.1196,4.1172,4.1028,4.098,4.0884,4.0547,4.0282,4.0138,3.9729,3.932,3.9008,3.8695,3.8431,3.8142,3.807,3.8046,3.7974,3.7974,3.795,3.7757,3.7589,3.7397,3.7132,3.7036,3.6867,3.6459,3.6411,3.6314,3.6194,3.6146,3.593,3.5593,3.5497,3.5352,3.5064,3.4919,3.4799,3.4775,3.4871,3.4847,3.4847,3.4847,3.5016,3.4799,3.4462,3.3934,3.3766,3.3116,3.2563,3.2274,3.203,3.1741,3.1717,3.1717,3.1717,3.1717,3.1717,3.1717,3.1717,3.1717,3.1717,3.1717,3.1717,3.1717,3.1717,3.1645,3.1476,3.1163,3.0831,3.011,2.9436,2.8931,2.857,2.8522,2.8522,2.8522,2.8522,2.8522,2.8522,2.8522,2.8522,2.8522,2.8522,2.8522,2.8522,2.8522,2.8522,2.8522,2.8522,2.8522,2.8522,3.3418,3.3418,3.3418,3.3418,3.3418,3.3418,3.3418,3.3418,3.3418,3.3418,3.3418,3.3418,3.3859,3.4278,3.4465,3.5479,3.7127,3.791,3.9062,4.0199,4.0884,4.1196,4.1196,4.1196,4.1196,4.1172,4.1172,4.1196,4.1172,4.0956,4.0787,4.0667,4.0282,3.9874,3.9633,3.9369,3.896,3.8527,3.8407,3.8262,3.8022,3.7998,3.7974,3.7974,3.7974,3.7853,3.7685,3.7613,3.7493,3.73,3.7228,3.7228,3.7204,3.7108,3.6843,3.6218,3.6026,3.593,3.5689,3.5641,3.5689,3.5615,3.5617,3.5641,3.5641,3.5689,3.5593,3.5497,3.516,3.4679,3.4414,3.3717,3.3116,3.2563,3.2226,3.2006,3.1813,3.1741,3.1717,3.1717,3.1717,3.1717,3.1717,3.1717,3.1717,3.1717,3.1717,3.1717,3.1717,3.1645,3.1548,3.138,3.1043,3.0302,2.9653,2.9172,2.8643,2.8546,2.8522,2.8522,2.8522,2.8522,2.8522,2.8522,2.8522,2.8522,2.8522,2.8522,2.8522,2.8522,2.8522,2.8522,2.8522,2.8522,2.8522,3.3418,3.3418,3.3418,3.3418,3.3418,3.3713,3.3859,3.3839,3.4153,3.432,3.4153,3.4278,3.4881,3.5561,3.6032,3.7006,3.9098,3.9157,3.9849,4.0884,4.1115,4.1196,4.1196,4.1196,4.1196,4.1196,4.1196,4.1196,4.1196,4.1148,4.1172,4.1028,4.0715,4.0475,4.0258,3.9922,3.9465,3.9152,3.896,3.8719,3.8407,3.819,3.8142,3.8118,3.8046,3.7974,3.7926,3.7902,3.7902,3.7878,3.7878,3.7926,3.795,3.7974,3.7565,3.6892,3.6651,3.6531,3.6386,3.6338,3.6242,3.6218,3.6362,3.6386,3.6338,3.6242,3.6314,3.6338,3.6026,3.5593,3.5208,3.451,3.3838,3.3236,3.2779,3.2346,3.201,3.1862,3.1717,3.1717,3.1717,3.1717,3.1717,3.1717,3.1717,3.1717,3.1717,3.1717,3.1717,3.1717,3.1621,3.1524,3.1163,3.0446,2.9869,2.9436,2.8907,2.8546,2.8522,2.8522,2.8522,2.8522,2.8522,2.8522,2.8522,2.8522,2.8522,2.8522,2.8522,2.8522,2.8522,2.8522,2.8522,2.8522,2.8522,3.3418,3.3418,3.3418,3.3418,3.3544,3.459,3.5129,3.5253,3.6154,3.6803,3.652,3.6703,3.6764,3.7067,3.7188,3.797,3.8921,3.9451,4.0083,4.1057,4.1196,4.1196,4.1196,4.1196,4.1196,4.1196,4.1196,4.1196,4.1196,4.1196,4.1196,4.1148,4.1076,4.0884,4.0523,4.0379,4.0042,3.9609,3.9489,3.9441,3.9272,3.8912,3.8743,3.8599,3.831,3.8046,3.807,3.8046,3.7974,3.7974,3.7974,3.7974,3.7974,3.7974,3.795,3.7685,3.7372,3.6916,3.6603,3.6603,3.6603,3.6627,3.6555,3.6435,3.6579,3.6603,3.6579,3.6411,3.6338,3.629,3.6002,3.5255,3.4727,3.4102,3.338,3.2827,3.237,3.1862,3.1741,3.1717,3.1717,3.1717,3.1717,3.1717,3.1717,3.1717,3.1717,3.1717,3.1717,3.1717,3.1717,3.1597,3.1452,3.0783,3.023,2.9749,2.9244,2.8715,2.8546,2.8522,2.8522,2.8522,2.8522,2.8522,2.8522,2.8522,2.8522,2.8522,2.8522,2.8522,2.8522,2.8522,2.8522,2.8522,2.8522,3.3418,3.3418,3.3418,3.3418,3.3544,3.4839,3.5376,3.5684,3.6764,3.7309,3.7309,3.7309,3.7648,3.8387,3.9121,3.9791,4.0257,4.0257,4.0571,4.1057,4.1196,4.1196,4.1196,4.1196,4.1196,4.1196,4.1196,4.1196,4.1196,4.1196,4.1196,4.1196,4.1172,4.11,4.0812,4.0836,4.0523,4.0114,3.9777,3.9609,3.9561,3.9393,3.9272,3.9224,3.8743,3.8503,3.8407,3.8118,3.7998,3.7974,3.7974,3.7974,3.7974,3.7974,3.7974,3.795,3.7781,3.7541,3.7372,3.7276,3.7228,3.7276,3.7276,3.7348,3.73,3.7204,3.7228,3.7324,3.7012,3.6867,3.6723,3.617,3.5665,3.5016,3.415,3.3452,3.2827,3.2078,3.1717,3.1717,3.1717,3.1717,3.1717,3.1717,3.1717,3.1717,3.1717,3.1717,3.1717,3.1717,3.1717,3.1693,3.1524,3.1168,3.0663,3.0158,2.9629,2.91,2.8619,2.8595,2.8522,2.8522,2.8522,2.8522,2.8522,2.8522,2.8522,2.8522,2.8522,2.8522,2.8522,2.8522,2.8522,2.8522,2.8522,3.3607,3.3922,3.3902,3.3902,3.409,3.5664,3.6399,3.652,3.785,3.8328,3.8268,3.8387,3.8921,3.965,4.0571,4.0942,4.1115,4.1196,4.1196,4.1196,4.1196,4.1196,4.1196,4.1196,4.1196,4.1196,4.1196,4.1196,4.1196,4.1196,4.1196,4.1196,4.1196,4.1172,4.1172,4.1124,4.0908,4.0619,4.0282,4.0114,4.0042,3.9898,3.9826,3.9657,3.9345,3.9008,3.8936,3.8503,3.8238,3.8214,3.8046,3.7974,3.7974,3.7974,3.7974,3.7974,3.7902,3.7902,3.7829,3.7829,3.7974,3.795,3.7805,3.7565,3.7613,3.7709,3.7565,3.7324,3.7324,3.7156,3.7108,3.6771,3.6483,3.5857,3.5088,3.4318,3.3525,3.2779,3.203,3.1717,3.1717,3.1717,3.1717,3.1717,3.1717,3.1717,3.1717,3.1717,3.1717,3.1717,3.1717,3.1717,3.1621,3.1404,3.0903,3.0422,2.9941,2.9484,2.9003,2.8643,2.8595,2.8546,2.8522,2.8522,2.8522,2.8522,2.8522,2.8522,2.8522,2.8522,2.8522,2.8522,2.8522,2.8522,2.8538,3.4153,3.5253,3.5253,3.5314,3.5438,3.791,3.8862,3.8744,4.0141,4.0687,4.0513,4.0826,4.0629,4.1,4.1,4.1196,4.1196,4.1196,4.1196,4.1196,4.1196,4.1196,4.1196,4.1196,4.1196,4.1196,4.1196,4.1196,4.1196,4.1196,4.1196,4.1196,4.1196,4.1196,4.1196,4.1172,4.1172,4.1004,4.086,4.0908,4.0787,4.0595,4.0355,4.0234,3.9874,3.9561,3.9513,3.9032,3.8767,3.8743,3.8431,3.8118,3.8166,3.8118,3.8118,3.7998,3.7974,3.7974,3.7974,3.7974,3.7974,3.7853,3.7661,3.7469,3.7517,3.6867,3.6627,3.6795,3.6988,3.7084,3.7108,3.7108,3.6819,3.6531,3.5809,3.5088,3.4318,3.3549,3.2779,3.2006,3.1765,3.1837,3.1717,3.1717,3.1717,3.1717,3.1717,3.1717,3.1717,3.1717,3.1717,3.1717,3.1717,3.1476,3.1048,3.0615,3.0302,2.9869,2.9364,2.8955,2.8667,2.8619,2.8522,2.8522,2.8522,2.8522,2.8522,2.8522,2.8522,2.8522,2.8522,2.8522,2.8578,2.8657,2.8657,3.5664,3.5561,3.7067,3.7287,3.6703,3.8447,3.9216,3.9393,4.0629,4.1196,4.1196,4.1196,4.1196,4.1196,4.1196,4.1196,4.1196,4.1196,4.1196,4.1196,4.1196,4.1196,4.1196,4.1196,4.1196,4.1196,4.1196,4.1196,4.1196,4.1196,4.1196,4.1196,4.1196,4.1196,4.1196,4.1196,4.1196,4.1196,4.1196,4.1196,4.1148,4.1052,4.0884,4.0836,4.0379,4.0138,4.0018,3.9561,3.9393,3.9248,3.9032,3.8791,3.8527,3.8503,3.8359,3.8118,3.8094,3.807,3.7998,3.7998,3.7974,3.795,3.7781,3.7637,3.7541,3.7156,3.694,3.6916,3.6723,3.6771,3.6699,3.6723,3.6675,3.6771,3.6435,3.5713,3.504,3.4246,3.3477,3.2611,3.2226,3.2082,3.1934,3.1717,3.1717,3.1717,3.1717,3.1717,3.1717,3.1717,3.1717,3.1717,3.1717,3.1717,3.1332,3.0999,3.0735,3.0254,2.9725,2.934,2.8955,2.8595,2.8522,2.8522,2.8522,2.8522,2.8522,2.8522,2.8522,2.8522,2.8522,2.8522,2.8618,2.8776,2.8855,3.7006,3.6764,3.8447,3.8684,3.8067,3.9216,3.9767,3.9966,4.0769,4.1196,4.1196,4.1196,4.1196,4.1196,4.1196,4.1196,4.1196,4.1196,4.1196,4.1196,4.1196,4.1196,4.1196,4.1196,4.1196,4.1196,4.1196,4.1196,4.1196,4.1196,4.1196,4.1196,4.1196,4.1196,4.1196,4.1196,4.1196,4.1196,4.1196,4.1196,4.1196,4.1172,4.1148,4.1124,4.0787,4.0667,4.0499,4.0138,3.9874,3.9777,3.9609,3.9393,3.9176,3.8984,3.8839,3.8599,3.8455,3.8407,3.8262,3.8046,3.7998,3.7974,3.7733,3.7685,3.7637,3.7276,3.6771,3.6579,3.6435,3.6362,3.629,3.6338,3.6531,3.6627,3.6459,3.5857,3.5425,3.4775,3.403,3.326,3.2923,3.2539,3.2106,3.191,3.1717,3.1717,3.1717,3.1717,3.1717,3.1717,3.1717,3.1717,3.1717,3.1717,3.1669,3.1404,3.1139,3.0711,3.0206,2.9725,2.934,2.8955,2.8595,2.8522,2.8522,2.8522,2.8522,2.8522,2.8522,2.8522,2.8538,2.8618,2.8657,2.8816,2.9145,3.8029,3.9098,3.9216,3.9216,3.9298,4.0571,4.1057,4.0942,4.1115,4.1196,4.1196,4.1196,4.1196,4.1196,4.1196,4.1196,4.1196,4.1196,4.1196,4.1196,4.1196,4.1196,4.1196,4.1196,4.1196,4.1196,4.1196,4.1196,4.1196,4.1196,4.1196,4.1196,4.1196,4.1196,4.1196,4.1196,4.1196,4.1196,4.1196,4.1196,4.1196,4.1196,4.1196,4.1148,4.11,4.1004,4.0884,4.0619,4.0403,4.0331,4.0042,3.9801,3.9633,3.9585,3.9513,3.9417,3.9417,3.9224,3.8839,3.831,3.8142,3.7974,3.7733,3.7517,3.7228,3.6819,3.6507,3.6483,3.6194,3.6074,3.6026,3.6002,3.6194,3.6338,3.6146,3.6074,3.5641,3.5328,3.4583,3.3909,3.3501,3.3068,3.2515,3.2126,3.1837,3.1741,3.1717,3.1717,3.1717,3.1717,3.1717,3.1717,3.1717,3.1717,3.1717,3.1717,3.15,3.1115,3.0663,3.0158,2.9701,2.9268,2.8931,2.8643,2.8522,2.8522,2.8522,2.8538,2.8657,2.8816,2.8776,2.8816,2.8816,2.9052,2.9535,3.9592,3.9275,4.0141,4.049,4.0571,4.1,4.1196,4.1196,4.1196,4.1196,4.1196,4.1196,4.1196,4.1196,4.1196,4.1196,4.1196,4.1196,4.1196,4.1196,4.1196,4.1196,4.1196,4.1196,4.1196,4.1196,4.1196,4.1196,4.1196,4.1196,4.1196,4.1196,4.1196,4.1196,4.1196,4.1196,4.1196,4.1196,4.1196,4.1196,4.1196,4.1196,4.1196,4.1196,4.1196,4.1196,4.1196,4.0908,4.086,4.086,4.0547,4.0427,4.0186,4.0138,3.9994,3.9753,3.9633,3.9537,3.9345,3.908,3.8695,3.8238,3.7926,3.7781,3.7661,3.7228,3.6892,3.6507,3.6146,3.5978,3.5737,3.5376,3.5449,3.5809,3.5833,3.6026,3.5857,3.5641,3.5184,3.4583,3.4054,3.3356,3.2731,3.2466,3.2247,3.191,3.1862,3.1741,3.1717,3.1717,3.1717,3.1717,3.1717,3.1717,3.1717,3.1717,3.1717,3.1452,3.1019,3.0518,3.0062,2.9677,2.9148,2.8763,2.8619,2.8522,2.8776,2.8988,2.9091,2.9145,2.9457,2.938,2.9263,2.9729,3.0393,4.0687,4.0024,4.0803,4.1196,4.1196,4.1196,4.1196,4.1196,4.1196,4.1196,4.1196,4.1196,4.1196,4.1196,4.1196,4.1196,4.1196,4.1196,4.1196,4.1196,4.1196,4.1196,4.1196,4.1196,4.1196,4.1196,4.1196,4.1196,4.1196,4.1196,4.1196,4.1196,4.1196,4.1196,4.1196,4.1196,4.1196,4.1196,4.1196,4.1196,4.1196,4.1196,4.1196,4.1196,4.1196,4.1196,4.1196,4.1196,4.1196,4.1196,4.1124,4.1028,4.0739,4.0595,4.0475,4.0234,3.997,3.9922,3.9874,3.9585,3.9152,3.8719,3.8551,3.8455,3.831,3.7974,3.7541,3.706,3.6386,3.5954,3.5665,3.5159,3.5015,3.5425,3.5449,3.5641,3.5665,3.54,3.5376,3.4799,3.4462,3.3717,3.302,3.2827,3.2635,3.2298,3.203,3.191,3.1765,3.1717,3.1717,3.1717,3.1717,3.1717,3.1717,3.1717,3.1717,3.1717,3.1356,3.0903,3.0591,3.0206,2.9556,2.9036,2.9149,2.9267,2.9376,2.9535,2.9819,3.0203,3.0646,3.0393,2.9858,3.0279,3.1022,4.1196,4.1196,4.1196,4.1196,4.1196,4.1196,4.1196,4.1196,4.1196,4.1196,4.1196,4.1196,4.1196,4.1196,4.1196,4.1196,4.1196,4.1196,4.1196,4.1196,4.1196,4.1196,4.1196,4.1196,4.1196,4.1196,4.1196,4.1196,4.1196,4.1196,4.1196,4.1196,4.1196,4.1196,4.1196,4.1196,4.1196,4.1196,4.1196,4.1196,4.1196,4.1196,4.1196,4.1196,4.1196,4.1196,4.1196,4.1196,4.1196,4.1196,4.1172,4.1172,4.1148,4.1172,4.1172,4.1004,4.0619,4.0499,4.0355,4.0042,3.9898,3.9657,3.9657,3.9369,3.8984,3.8719,3.8383,3.7757,3.7084,3.6411,3.5857,3.54,3.4895,3.4943,3.4895,3.5016,3.5064,3.5015,3.5111,3.4919,3.4775,3.4246,3.3549,3.3236,3.3116,3.2755,3.2442,3.2226,3.2034,3.1741,3.1741,3.1717,3.1717,3.1717,3.1717,3.1717,3.1717,3.1717,3.1693,3.1356,3.1023,3.0706,3.0086,2.9745,2.9951,3.0065,3.0105,3.0433,3.0846,3.122,3.132,3.1134,3.0507,3.0872,3.1431,4.1196,4.1196,4.1196,4.1196,4.1196,4.1196,4.1196,4.1196,4.1196,4.1196,4.1196,4.1196,4.1196,4.1196,4.1196,4.1196,4.1196,4.1196,4.1196,4.1196,4.1196,4.1196,4.1196,4.1196,4.1196,4.1196,4.1196,4.1196,4.1196,4.1196,4.1196,4.1196,4.1196,4.1196,4.1196,4.1196,4.1196,4.1196,4.1196,4.1196,4.1196,4.1196,4.1196,4.1196,4.1196,4.1196,4.1196,4.1196,4.1196,4.1196,4.1196,4.1196,4.1196,4.1196,4.1172,4.1172,4.1004,4.0956,4.0932,4.0787,4.0643,4.0595,4.0643,4.0162,3.9729,3.9345,3.9176,3.8527,3.7853,3.7228,3.6579,3.605,3.5473,3.516,3.4967,3.4799,3.4847,3.4871,3.4943,3.4919,3.4775,3.4583,3.3933,3.3813,3.3669,3.3284,3.2947,3.2707,3.237,3.2034,3.1741,3.1741,3.1717,3.1717,3.1717,3.1717,3.1717,3.1717,3.1781,3.1704,3.1342,3.0979,3.0579,3.0445,3.0564,3.0723,3.0879,3.1239,3.158,3.1495,3.1569,3.1394,3.1357,3.1579,3.168,4.1196,4.1196,4.1196,4.1196,4.1196,4.1196,4.1196,4.1196,4.1196,4.1196,4.1196,4.1196,4.1196,4.1196,4.1196,4.1196,4.1196,4.1196,4.1196,4.1196,4.1196,4.1196,4.1196,4.1196,4.1196,4.1196,4.1196,4.1196,4.1196,4.1196,4.1196,4.1196,4.1196,4.1196,4.1196,4.1196,4.1196,4.1196,4.1196,4.1196,4.1196,4.1196,4.1196,4.1196,4.1196,4.1196,4.1196,4.1196,4.1196,4.1196,4.1196,4.1196,4.1196,4.1196,4.1196,4.1172,4.1172,4.1124,4.1124,4.1148,4.1148,4.1196,4.1172,4.086,4.0451,4.0066,3.9777,3.932,3.8719,3.8094,3.7445,3.6795,3.6146,3.5521,3.5184,3.4799,3.4775,3.4775,3.4775,3.4775,3.4703,3.4631,3.4438,3.4342,3.415,3.3742,3.3477,3.3284,3.2875,3.2418,3.203,3.1765,3.1741,3.1717,3.1717,3.1717,3.1717,3.1849,3.2133,3.1986,3.1625,3.1761,3.1911,3.1564,3.1163,3.1436,3.185,3.1947,3.2182,3.2112,3.1978,3.1844,3.1817,3.19,3.19,4.1196,4.1196,4.1196,4.1196,4.1196,4.1196,4.1196,4.1196,4.1196,4.1196,4.1196,4.1196,4.1196,4.1196,4.1196,4.1196,4.1196,4.1196,4.1196,4.1196,4.1196,4.1196,4.1196,4.1196,4.1196,4.1196,4.1196,4.1196,4.1196,4.1196,4.1196,4.1196,4.1196,4.1196,4.1196,4.1196,4.1196,4.1196,4.1196,4.1196,4.1196,4.1196,4.1196,4.1196,4.1196,4.1196,4.1196,4.1196,4.1196,4.1196,4.1196,4.1196,4.1196,4.1196,4.1196,4.1196,4.1196,4.1196,4.1196,4.1196,4.1196,4.1196,4.1172,4.11,4.0836,4.0619,4.0331,4.0066,3.9489,3.9008,3.8431,3.7493,3.6699,3.6026,3.5521,3.5112,3.4775,3.4775,3.4775,3.4775,3.4751,3.4679,3.4655,3.4534,3.4486,3.415,3.4006,3.3814,3.3452,3.2947,3.2466,3.2006,3.1789,3.1741,3.1717,3.1717,3.1717,3.1893,3.2264,3.2457,3.2198,3.2707,3.3411,3.2941,3.247,3.2642,3.2896,3.2936,3.2944,3.2911,3.2722,3.2363,3.2264,3.2318,3.2146,4.1196,4.1196,4.1196,4.1196,4.1196,4.1196,4.1196,4.1196,4.1196,4.1196,4.1196,4.1196,4.1196,4.1196,4.1196,4.1196,4.1196,4.1196,4.1196,4.1196,4.1196,4.1196,4.1196,4.1196,4.1196,4.1196,4.1196,4.1196,4.1196,4.1196,4.1196,4.1196,4.1196,4.1196,4.1196,4.1196,4.1196,4.1196,4.1196,4.1196,4.1196,4.1196,4.1196,4.1196,4.1196,4.1196,4.1196,4.1196,4.1196,4.1196,4.1196,4.1196,4.1196,4.1196,4.1196,4.1196,4.1196,4.1196,4.1196,4.1196,4.1196,4.1196,4.1196,4.1196,4.1124,4.1052,4.0884,4.0619,4.0331,3.9874,3.9296,3.8286,3.7324,3.6627,3.5905,3.5425,3.4944,3.4799,3.4799,3.4775,3.4775,3.4775,3.4775,3.4751,3.4703,3.4655,3.4607,3.4438,3.403,3.3574,3.3116,3.2587,3.1958,3.1813,3.1789,3.1789,3.1837,3.2006,3.2351,3.2525,3.2785,3.3292,3.3866,3.4027,3.3893,3.3792,3.3715,3.3772,3.3772,3.3675,3.3322,3.2915,3.2698,3.2698,3.2399,4.1196,4.1196,4.1196,4.1196,4.1196,4.1196,4.1196,4.1196,4.1196,4.1196,4.1196,4.1196,4.1196,4.1196,4.1196,4.1196,4.1196,4.1196,4.1196,4.1196,4.1196,4.1196,4.1196,4.1196,4.1196,4.1196,4.1196,4.1196,4.1196,4.1196,4.1196,4.1196,4.1196,4.1196,4.1196,4.1196,4.1196,4.1196,4.1196,4.1196,4.1196,4.1196,4.1196,4.1196,4.1196,4.1196,4.1196,4.1196,4.1196,4.1196,4.1196,4.1196,4.1196,4.1196,4.1196,4.1196,4.1196,4.1196,4.1172,4.1148,4.1124,4.11,4.1148,4.1148,4.1196,4.11,4.11,4.0884,4.0884,4.0499,4.0186,3.9369,3.8551,3.7829,3.6916,3.6194,3.5521,3.4967,3.4871,3.4775,3.4775,3.4775,3.4775,3.4775,3.4727,3.4727,3.4775,3.4775,3.4438,3.415,3.3694,3.3332,3.2707,3.2202,3.2154,3.2126,3.203,3.2264,3.2599,3.3428,3.4021,3.4037,3.4236,3.4421,3.4507,3.4401,3.4366,3.4389,3.4423,3.4287,3.3919,3.3457,3.3295,3.3132,3.2915,4.1196,4.1196,4.1196,4.1196,4.1196,4.1196,4.1196,4.1196,4.1196,4.1196,4.1196,4.1196,4.1196,4.1196,4.1196,4.1196,4.1196,4.1196,4.1196,4.1196,4.1196,4.1196,4.1196,4.1196,4.1196,4.1196,4.1196,4.1196,4.1196,4.1196,4.1196,4.1196,4.1196,4.1196,4.1196,4.1196,4.1196,4.1196,4.1196,4.1196,4.1196,4.1196,4.1196,4.1196,4.1196,4.1196,4.1196,4.1196,4.1196,4.1196,4.1196,4.1196,4.1196,4.1196,4.1196,4.1196,4.1196,4.1124,4.1052,4.098,4.0932,4.0932,4.1004,4.1004,4.1004,4.1052,4.1052,4.1124,4.1124,4.1028,4.0715,4.0331,3.9561,3.8623,3.7661,3.6723,3.593,3.5183,3.5015,3.4871,3.4799,3.4799,3.4775,3.4775,3.4775,3.4775,3.4775,3.4775,3.4703,3.4486,3.415,3.3958,3.3693,3.3236,3.2731,3.272,3.2713,3.2906,3.337,3.4402,3.51,3.4936,3.4827,3.4827,3.487,3.4899,3.4901,3.4955,3.4939,3.4856,3.445,3.4054,3.3908,3.3783,3.3566,4.1196,4.1196,4.1196,4.1196,4.1196,4.1196,4.1196,4.1196,4.1196,4.1196,4.1196,4.1196,4.1196,4.1196,4.1196,4.1196,4.1196,4.1196,4.1196,4.1196,4.1196,4.1196,4.123,4.123,4.1196,4.1172,4.123,4.1172,4.1172,4.1196,4.1196,4.1196,4.1196,4.1196,4.1196,4.1196,4.1196,4.1196,4.1196,4.1196,4.1196,4.1196,4.1196,4.1196,4.1196,4.1196,4.1196,4.1196,4.1196,4.1196,4.1196,4.1196,4.1196,4.1196,4.1196,4.1196,4.1196,4.1028,4.0908,4.0739,4.0643,4.0282,4.0282,4.0282,4.0355,4.0547,4.0667,4.0956,4.1004,4.1076,4.086,4.0595,3.9946,3.8791,3.7733,3.6795,3.5905,3.5593,3.54,3.516,3.4919,3.4823,3.4775,3.4775,3.4775,3.4775,3.4775,3.4775,3.4775,3.4679,3.4558,3.4535,3.4366,3.3958,3.3332,3.3646,3.3678,3.382,3.4099,3.4984,3.5546,3.5575,3.5507,3.5345,3.5386,3.5454,3.5453,3.5359,3.5399,3.5303,3.4938,3.4612,3.4531,3.4395,3.4179]}]]